     2              OBSERVATION DATA    GPS                 RINEX VERSION / TYPE
teqc 2000Feb29 20031025 01:58:23UTC                         PGM / RUN BY / DATE
                                                            COMMENT
L2: 1 -> 1; 150 -> 5; 250 -> 9                              COMMENT
L2: 1 -> 1; 150 -> 5; 250 -> 9                              COMMENT
L2: 1 -> 1; 150 -> 5; 250 -> 9                              COMMENT
L2: 1 -> 1; 150 -> 5; 250 -> 9                              COMMENT
L2: 1 -> 1; 150 -> 5; 250 -> 9                              COMMENT
Original Marker Name: NORC                                  COMMENT
Campaign Name: CSUSB 2002-2003                              COMMENT
4-Character Station Name: NORC                              COMMENT
6-Character Antenna Code: DMRCHT                            COMMENT
Vertical Measurement Point: BCR                             COMMENT
Vertical Offset to Rinex Ref. Point: 0.0348                 COMMENT
Radial Measurement Point: ECF                               COMMENT
Radial Offset to Rinex Ref. Point: 0.1897                   COMMENT
Antenna Height from Field Measurement: 1.0230 m             COMMENT
Additional Antenna Identification Info.:                    COMMENT
Turborogue and Ashtech Choke Ring                           COMMENT
Original XYZ: -2451142.9900 -4696394.5400 3540572.7500      COMMENT
New XYZ position is based on association with SCEC monument COMMENT
E1D0O3O1+0011. Position of that monument is believed to be  COMMENT
valid to within 1 m horizontally; vertical accuracy         COMMENT
should be no worse than 3-times this value.                 COMMENT
                                                            COMMENT
Revised Rinex header created by UCSD GPS archive for        COMMENT
GSAC on 09-Nov-2004 (2004:314) 22:02:59 GMT                 COMMENT
For assistance contact dagnew@ucsd.edu                      COMMENT
or anderson@python.ucsd.edu                                 COMMENT
                                                            COMMENT
NORCO                                                       MARKER NAME
___ CAL STATE SAN BERNARDINO                                OBSERVER / AGENCY
1602 ASHTECH Z-X ZB00                                       REC # / TYPE / VERS
1403 DORNE-MARGOL. TYPE T                                   ANT # / TYPE
 -2451083.0000 -4696385.0000  3540593.0000                  APPROX POSITION XYZ
        0.9705        0.0000        0.0000                  ANTENNA: DELTA H/E/N
     1     1     0                                          WAVELENGTH FACT L1/2
     7    C1    L1    L2    P1    P2    S1    S2            # / TYPES OF OBSERV
     0                                                      INTERVAL
  2003     6    25    15    41   40.000000                  TIME OF FIRST OBS
  2003     6    25    23    51    0.000000                  TIME OF LAST OBS
                                                            END OF HEADER
 03  6 25 15 41 40.0000000  0  3G18G17G15
  22135688.161     -245016.18553   -177728.04952  22135689.992    22135687.714
        54.000          46.000
  20960754.773    18775691.33953  14633804.54952  20960755.316    20960753.620
        56.000          50.000
  23521983.280    18336706.86753  14299127.16952  23521982.782    23521983.452
        47.000          40.000
 03  6 25 15 42  0.0000000  0  3G18G17G15
  22121789.943     -318053.31643   -234640.06942  22121791.345    22121788.516
        54.000          46.000
  20957574.368    18758978.41043  14620781.47442  20957575.048    20957573.363
        56.000          50.000
  23509502.242    18271122.15043  14248022.22242  23509503.834    23509502.693
        47.000          41.000
 03  6 25 15 42 20.0000000  0  3G18G17G15
  22107895.679     -391067.42243   -291534.15142  22107897.389    22107894.767
        54.000          46.000
  20954384.219    18742212.93843  14607717.45442  20954384.258    20954382.787
        56.000          50.000
  23497005.650    18205451.00543  14196849.92842  23497005.794    23497007.627
        47.000          40.000
 03  6 25 15 42 40.0000000  0  3G18G17G15
  22094007.190     -464052.12143   -348405.31242  22094008.259    22094006.725
        54.000          46.000
  20951184.934    18725400.78243  14594617.05742  20951185.457    20951183.636
        56.000          50.000
  23484493.620    18139699.38143  14145614.92142  23484494.474    23484493.376
        47.000          40.000
 03  6 25 15 43  0.0000000  0  3G18G17G15
  22080119.321     -537033.97343   -405274.26142  22080120.500    22080117.911
        54.000          46.000
  20947971.642    18708514.99743  14581459.28142  20947972.045    20947970.486
        56.000          49.000
  23471960.675    18073840.21643  14094296.11042  23471961.154    23471960.441
        47.000          40.000
 03  6 25 15 43 20.0000000  0  3G18G17G15
  22066223.893     -610054.37643   -462173.24442  22066225.068    22066222.598
        54.000          46.000
  20944736.377    18691513.73043  14568211.52342  20944736.597    20944735.371
        56.000          49.000
  23459399.521    18007831.80343  14042861.01542  23459400.157    23459401.078
        46.000          41.000
 03  6 25 15 43 40.0000000  0  8G 6G30G18G23G21G29G17G15
  20270574.225     -345042.22654   -265671.07952  20270575.825    20270573.083
        57.000          51.000
  23777168.141     -151776.18453   -122200.18452  23777170.146    23777169.270
        47.000          40.000
  21995950.508     -979343.83843   -749931.24042  21995951.431    21995948.717
        53.000          46.000
  24122831.487     -581776.76153   -435679.67352  24122832.743    24122833.027
        45.000          38.000
  20984084.878     -421015.40653   -319735.72652  20984086.011    20984082.621
        56.000          49.000
  22799200.850     -358066.46953   -277322.85352  22799202.528    22799201.880
        50.000          43.000
  20885108.353    18378166.63843  14324044.94042  20885108.779    20885107.202
        56.000          49.000
  23390439.372    17645443.36143  13760480.43742  23390439.463    23390440.307
        48.000          41.000
 03  6 25 15 44  0.0000000  0  8G 6G30G18G23G21G29G17G15
  20271546.429     -339933.74944   -261690.46042  20271547.720    20271545.201
        57.000          51.000
  23790180.671      -83392.94043    -68914.60542  23790182.732    23790182.872
        47.000          40.000
  21985728.106    -1033062.14143   -791789.62342  21985729.012    21985726.941
        53.000          46.000
  24110469.781     -646736.55143   -486297.66242  24110470.965    24110472.171
        44.000          38.000
  20980781.796     -438374.13943   -333262.01742  20980783.096    20980779.070
        56.000          49.000
  22798885.252     -359721.44243   -278612.43042  22798887.635    22798885.558
        50.000          43.000
  20885516.831    18380312.17543  14325716.76842  20885517.325    20885515.111
        56.000          49.000
  23381509.540    17598514.60043  13723912.61242  23381510.187    23381509.914
        47.000          41.000
 03  6 25 15 44 20.0000000  0  8G 6G30G18G23G21G29G17G15
  20272558.385     -334615.86544   -257546.66542  20272559.822    20272557.248
        57.000          51.000
  23803195.510      -15000.30443    -15621.70042  23803196.811    23803196.816
        48.000          40.000
  21975535.104    -1086627.11243   -833528.53642  21975536.426    21975534.013
        54.000          46.000
  24098125.328     -711606.78743   -536845.85742  24098126.280    24098129.057
        45.000          38.000
  20977494.009     -455651.65443   -346725.02342  20977495.114    20977491.162
        56.000          49.000
  22798615.389     -361138.57243   -279716.69042  22798616.601    22798615.897
        50.000          43.000
  20885939.329    18382532.29843  14327446.71542  20885939.660    20885938.134
        56.000          49.000
  23372586.599    17551627.05343  13687376.88742  23372588.406    23372587.469
        47.000          41.000
 03  6 25 15 44 40.0000000  0  8G 6G30G18G23G21G29G17G15
  20273610.142     -329088.41744   -253239.57242  20273611.719    20273608.974
        57.000          51.000
  23816211.278       53400.77043     37677.77942  23816213.275    23816214.252
        47.000          40.000
  21965371.238    -1140038.25343   -875147.57742  21965372.624    21965370.252
        54.000          46.000
  24085798.017     -776386.98043   -587323.88442  24085798.844    24085800.075
        45.000          38.000
  20974221.793     -472848.20443   -360124.93542  20974222.683    20974218.768
        56.000          49.000
  22798391.387     -362317.72243   -280635.49842  22798393.037    22798391.945
        50.000          43.000
  20886375.981    18384827.21043  14329234.93642  20886376.732    20886374.555
        56.000          49.000
  23363672.374    17504780.57043  13650873.14242  23363671.806    23363672.240
        48.000          41.000
 03  6 25 15 45  0.0000000  0  8G 6G30G18G23G21G29G17G15
  20274701.978     -323350.78444   -248768.69342  20274703.479    20274701.048
        57.000          51.000
  23829229.333      121809.77043     90983.42642  23829232.085    23829229.814
        46.000          40.000
  21955236.851    -1193295.18243   -916646.45442  21955238.276    21955235.510
        54.000          46.000
  24073488.365     -841076.23143   -637731.03842  24073489.394    24073490.385
        45.000          38.000
  20970964.841     -489963.38343   -373461.44442  20970965.869    20970962.128
        56.000          49.000
  22798211.809     -363258.23743   -281368.36542  22798212.747    22798212.822
        50.000          43.000
  20886826.951    18387196.99843  14331081.50142  20886827.493    20886825.902
        56.000          49.000
  23354765.661    17457975.50443  13614401.68142  23354766.773    23354766.162
        48.000          41.000
 03  6 25 15 45 20.0000000  0  8G 6G30G18G23G21G29G17G15
  20275833.612     -317404.25244   -244135.03842  20275835.039    20275832.622
        57.000          51.000
  23842248.207      190224.33943    144293.41142  23842249.969    23842250.044
        47.000          40.000
  21945131.478    -1246398.90143   -958025.94742  21945132.775    21945130.728
        54.000          46.000
  24061195.105     -905675.59943   -688068.15142  24061196.895    24061197.805
        45.000          38.000
  20967723.120     -506998.91443   -386735.88842  20967724.284    20967720.698
        56.000          49.000
  22798078.289     -363961.58643   -281916.42242  22798079.873    22798079.370
        50.000          43.000
  20887291.873    18389640.17943  14332985.25742  20887292.538    20887290.843
        56.000          49.000
  23345866.442    17411210.30443  13577961.29142  23345867.438    23345866.533
        47.000          41.000
 03  6 25 15 45 40.0000000  0  8G 6G30G18G23G21G29G17G15
  20277004.277     -311252.48844   -239341.46642  20277005.577    20277003.173
        57.000          51.000
  23855267.806      258639.80943    197604.09942  23855269.030    23855269.940
        47.000          40.000
  21935054.716    -1299352.86643   -999288.75042  21935055.415    21935053.779
        54.000          46.000
  24048919.134     -970188.45343   -738337.86142  24048919.708    24048920.624
        45.000          39.000
  20964495.860     -523958.45243   -399951.11742  20964496.889    20964492.886
        56.000          49.000
  22797988.862     -364431.49743   -282282.58242  22797990.966    22797990.333
        50.000          43.000
  20887770.030    18392152.70543  14334943.04742  20887770.468    20887769.056
        56.000          49.000
  23336974.127    17364481.16843  13541549.01042  23336974.271    23336975.200
        47.000          41.000
 03  6 25 15 46  0.0000000  0  8G 6G30G18G23G21G29G17G15
  20278215.476     -304886.83144   -234381.21942  20278216.953    20278214.580
        57.000          51.000
  23868288.322      327063.71443    250921.34742  23868289.757    23868288.685
        47.000          40.000
  21925008.202    -1352148.24043  -1040427.97542  21925009.336    21925007.151
        54.000          46.000
  24036660.838    -1034605.89143   -788533.20942  24036662.488    24036663.662
        45.000          39.000
  20961284.612     -540833.86143   -413100.78942  20961285.234    20961281.786
        56.000          49.000
  22797945.470     -364659.15443   -282459.97442  22797946.977    22797946.071
        50.000          43.000
  20888262.839    18394742.82843  14336961.30042  20888263.574    20888261.683
        56.000          49.000
  23328090.622    17317796.45443  13505171.34742  23328092.102    23328090.640
        47.000          41.000
 03  6 25 15 46 20.0000000  0  8G 6G30G18G23G21G29G17G15
  20279466.442     -298313.45644   -229259.11442  20279467.989    20279465.344
        57.000          51.000
  23881308.741      395488.89043    304239.60842  23881310.555    23881310.511
        46.000          40.000
  21914990.389    -1404791.01743  -1081448.29542  21914991.720    21914990.018
        54.000          46.000
  24024419.036    -1098933.87943   -838658.84942  24024420.595    24024421.720
        45.000          39.000
  20958088.062     -557631.57443   -426189.92142  20958089.118    20958085.590
        56.000          49.000
  22797947.282     -364651.01843   -282453.63742  22797948.561    22797948.007
        50.000          43.000
  20888769.389    18397404.17643  14339035.05542  20888770.090    20888768.039
        56.000          49.000
  23319213.866    17271149.71643  13468823.27842  23319214.323    23319215.278
        47.000          41.000
 03  6 25 15 46 40.0000000  0  8G 6G30G18G23G21G29G17G15
  20280756.912     -291531.66744   -223974.60642  20280758.697    20280755.873
        57.000          51.000
  23894330.386      463914.85443    357558.45942  23894331.299    23894331.961
        47.000          40.000
  21905001.834    -1457280.34143  -1122349.03842  21905003.585    21905000.678
        54.000          46.000
  24012195.361    -1163171.20043   -888713.84842  24012196.634    24012198.682
        45.000          39.000
  20954906.580     -574350.56943   -439217.70942  20954907.257    20954903.604
        56.000          49.000
  22797994.369     -364406.25043   -282262.90442  22797994.906    22797995.085
        50.000          44.000
  20889289.589    18400137.26543  14341164.71342  20889290.061    20889288.484
        56.000          49.000
  23310344.881    17224541.40443  13432505.15342  23310345.860    23310345.166
        47.000          41.000
 03  6 25 15 47  0.0000000  0  8G 6G30G18G23G21G29G17G15
  20282087.488     -284539.78944   -218526.39542  20282088.937    20282086.482
        57.000          51.000
  23907351.585      532342.46443    410878.60442  23907352.928    23907353.615
        47.000          40.000
  21895043.136    -1509614.23143  -1163128.66142  21895044.656    21895041.941
        54.000          46.000
  23999989.108    -1227316.00643   -938696.75942  23999989.824    23999990.881
        45.000          39.000
  20951740.338     -590989.73043   -452183.29542  20951741.303    20951737.607
        56.000          49.000
  22798085.791     -363923.24843   -281886.54342  22798087.942    22798085.711
        50.000          43.000
  20889823.539    18402943.43243  14343351.31542  20889823.931    20889822.032
        56.000          49.000
  23301482.811    17177972.97343  13396218.09542  23301484.708    23301483.445
        47.000          41.000
 03  6 25 15 47 20.0000000  0  8G 6G30G18G23G21G29G17G15
  20283458.633     -277335.01344   -212912.28542  20283459.970    20283457.602
        57.000          51.000
  23920373.737      600773.47543    464201.39942  23920375.435    23920375.855
        46.000          40.000
  21885114.408    -1561789.70543  -1203784.85442  21885115.643    21885113.125
        54.000          47.000
  23987800.974    -1291365.14443   -988605.11842  23987802.505    23987803.690
        45.000          39.000
  20948589.512     -607546.54043   -465084.70942  20948590.850    20948586.872
        56.000          49.000
  22798223.935     -363199.26443   -281322.40242  22798225.383    22798224.285
        50.000          44.000
  20890371.981    18405825.34943  14345596.94542  20890372.579    20890370.581
        56.000          49.000
  23292629.461    17131447.04543  13359964.15642  23292629.865    23292628.396
        47.000          41.000
 03  6 25 15 47 40.0000000  0  8G 6G30G18G23G21G29G17G15
  20284868.533     -269925.75144   -207138.83442  20284869.976    20284867.634
        57.000          51.000
  23933394.974      669198.28943    517519.35442  23933396.004    23933395.888
        46.000          40.000
  21875214.259    -1613814.83143  -1244323.88242  21875215.348    21875213.134
        54.000          47.000
  23975629.377    -1355326.70743  -1038445.24342  23975630.544    23975631.078
        45.000          39.000
  20945452.979     -624029.63043   -477928.68042  20945454.250    20945450.309
        56.000          49.000
  22798405.339     -362242.82043   -280577.12542  22798407.043    22798407.499
        50.000          43.000
  20890933.135    18408774.26543  14347894.78042  20890933.432    20890931.998
        56.000          49.000
  23283782.009    17084955.00843  13323736.62242  23283783.407    23283783.128
        47.000          41.000
 03  6 25 15 48  0.0000000  0  8G 6G30G18G23G21G29G17G15
  20286319.321     -262301.52944   -201197.88542  20286320.707    20286318.295
        57.000          51.000
  23946416.315      737626.39743    570839.88242  23946417.077    23946418.637
        46.000          40.000
  21865344.905    -1665678.99943  -1284737.49242  21865346.195    21865344.239
        54.000          47.000
  23963477.134    -1419189.96643  -1088208.76942  23963478.586    23963478.834
        45.000          39.000
  20942332.424     -640428.67543   -490707.16442  20942333.622    20942329.471
        56.000          49.000
  22798633.811     -361043.48043   -279642.58342  22798636.148    22798635.046
        50.000          43.000
  20891508.998    18411800.50843  14350252.87242  20891509.863    20891507.810
        56.000          49.000
  23274944.087    17038507.18843  13287543.52742  23274944.792    23274944.318
        47.000          41.000
 03  6 25 15 48 20.0000000  0  9G 6G30G26G18G23G21G29G17G15
  20287810.009     -254467.27144   -195093.27142  20287811.634    20287808.965
        57.000          51.000
  23959436.950      806052.04143    624158.49542  23959438.544    23959438.145
        46.000          40.000
  21855591.513     -225384.02553   -162759.75752  21855592.465    21855591.837
        51.000          45.000
  21855505.143    -1717386.99443  -1325029.40642  21855506.334    21855504.194
        54.000          47.000
  23951341.600    -1482959.42943  -1137899.19142  23951342.700    23951344.035
        45.000          39.000
  20939226.761     -656748.90244   -503424.23142  20939227.487    20939223.656
        57.000          49.000
  22798907.173     -359606.20843   -278522.63142  22798909.356    22798908.834
        50.000          43.000
  20892098.679    18414898.84343  14352667.14042  20892099.357    20892097.521
        56.000          49.000
  23266112.074    16992098.30443  13251380.80442  23266112.803    23266111.157
        48.000          41.000
 03  6 25 15 48 40.0000000  0 10G 6G30G10G26G18G23G21G29G17G15
  20289341.007     -246422.70044   -188824.77942  20289342.439    20289339.657
        57.000          51.000
  23972457.169      874474.14543    677474.33742  23972459.815    23972459.094
        46.000          40.000
  23859085.176      150144.65753    107594.20552  23859086.319    23859086.029
        47.000          40.000
  21849615.056     -256789.96843   -187231.89842  21849616.672    21849616.181
        51.000          45.000
  21845695.348    -1768938.36543  -1365199.28042  21845696.831    21845694.184
        54.000          47.000
  23939225.100    -1546634.54743  -1187516.10742  23939224.828    23939227.090
        44.000          38.000
  20936136.069     -672990.33743   -516079.90342  20936137.124    20936133.510
        56.000          49.000
  22799226.110     -357930.92943   -277217.22542  22799227.499    22799228.074
        50.000          44.000
  20892702.014    18418069.34843  14355137.64242  20892702.764    20892700.921
        56.000          49.000
  23257288.062    16945728.39543  13215248.41642  23257289.234    23257288.170
        48.000          41.000
 03  6 25 15 49  0.0000000  0 10G 6G30G10G26G18G23G21G29G17G15
  20290911.469     -238169.35844   -182393.60542  20290912.934    20290910.293
        57.000          51.000
  23985476.741      942890.31243    730785.56342  23985479.021    23985478.693
        46.000          40.000
  23872260.020      219377.13743    161541.55842  23872260.451    23872260.171
        47.000          40.000
  21843683.611     -287959.99043   -211520.19942  21843685.146    21843683.564
        52.000          45.000
  21835915.056    -1820334.48343  -1405248.17342  21835916.443    21835914.545
        54.000          47.000
  23927125.315    -1610216.71843  -1237060.60042  23927125.335    23927127.408
        44.000          38.000
  20933060.246     -689154.48443   -528675.35042  20933061.028    20933057.594
        56.000          49.000
  22799589.659     -356019.04043   -275727.45042  22799591.964    22799592.224
        50.000          43.000
  20893318.605    18421310.06443  14357662.86042  20893319.271    20893317.425
        56.000          49.000
  23248471.807    16899395.80743  13179145.12142  23248472.745    23248473.635
        48.000          41.000
 03  6 25 15 49 20.0000000  0 10G 6G30G10G26G18G23G21G29G17G15
  20292522.414     -229704.42544   -175797.55842  20292523.671    20292521.407
        57.000          51.000
  23998495.518     1011302.41643    784093.61742  23998496.831    23998497.178
        46.000          40.000
  23885441.756      288649.05543    215519.61642  23885442.499    23885444.282
        47.000          40.000
  21837797.733     -318890.31343   -235621.72842  21837799.973    21837797.933
        52.000          45.000
  21826164.711    -1871572.23643  -1445173.67342  21826166.065    21826163.516
        54.000          47.000
  23915043.981    -1673702.62543  -1286530.07242  23915044.880    23915046.293
        45.000          38.000
  20929999.494     -705238.74443   -541208.54742  20930000.454    20929996.733
        56.000          49.000
  22799999.404     -353867.81543   -274051.17542  22800001.526    22800000.094
        49.000          43.000
  20893949.405    18424623.70743  14360244.90342  20893949.872    20893947.944
        56.000          49.000
  23239661.826    16853103.11543  13143072.92042  23239661.972    23239663.177
        48.000          41.000
 03  6 25 15 49 40.0000000  0 10G 6G30G10G26G18G23G21G29G17G15
  20294174.073     -221025.00544   -169034.37942  20294175.730    20294173.160
        57.000          51.000
  24011513.218     1079712.37443    837399.99042  24011514.928    24011516.568
        46.000          39.000
  23898631.524      357962.39343    269529.96042  23898632.195    23898633.667
        46.000          40.000
  21831957.764     -349577.85243   -259534.07242  21831960.070    21831959.115
        52.000          45.000
  21816445.331    -1922648.60043  -1484973.40142  21816446.592    21816443.908
        55.000          47.000
  23902981.984    -1737089.13443  -1335922.08342  23902984.130    23902984.564
        46.000          38.000
  20926954.612     -721240.21043   -553677.22942  20926955.209    20926951.671
        56.000          49.000
  22800455.114     -351474.34343   -272186.14442  22800455.293    22800455.464
        50.000          43.000
  20894594.290    18428012.94043  14362885.84742  20894595.047    20894592.988
        56.000          49.000
  23230861.071    16806853.06843  13107033.92642  23230859.923    23230859.768
        47.000          40.000
 03  6 25 15 50  0.0000000  0 10G 6G30G10G26G18G23G21G29G17G15
  20295865.257     -212138.05844   -162109.49142  20295866.449    20295864.099
        57.000          51.000
  24024529.371     1148112.11843    890698.41142  24024531.194    24024532.159
        46.000          40.000
  23911827.710      427309.33643    323566.49942  23911827.925    23911829.036
        47.000          40.000
  21826163.473     -380028.63843   -283261.93042  21826164.177    21826164.303
        51.000          45.000
  21806755.176    -1973570.32443  -1524652.64942  21806756.729    21806753.728
        54.000          47.000
  23890937.494    -1800382.82143  -1385241.78542  23890938.906    23890940.223
        45.000          38.000
  20923923.779     -737166.35343   -566087.22242  20923924.720    20923921.184
        56.000          49.000
  22800954.689     -348845.88343   -270138.00542  22800956.299    22800955.733
        50.000          43.000
  20895252.321    18431470.56243  14365580.07642  20895252.917    20895251.059
        56.000          49.000
  23222066.630    16760638.48943  13071022.60742  23222066.432    23222066.368
        48.000          41.000
 03  6 25 15 50 20.0000000  0 11G 6G16G30G10G26G18G23G21G29G17G15
  20297597.450     -203034.90944   -155016.13442  20297599.044    20297596.809
        57.000          51.000
  23608058.050    -1599098.21753  -1241265.26152  23608059.262    23608056.974
        48.000          41.000
  24037545.294     1216509.22843    943994.77842  24037547.388    24037547.930
        46.000          39.000
  23925032.002      496697.56943    377635.20542  23925033.348    23925033.809
        46.000          40.000
  21820415.653     -410233.68343   -306798.31142  21820417.508    21820415.983
        52.000          45.000
  21797096.137    -2024328.50243  -1564204.45142  21797097.536    21797094.639
        54.000          47.000
  23878913.070    -1863574.86843  -1434482.26742  23878913.422    23878915.238
        45.000          39.000
  20920909.222     -753008.68143   -578431.90242  20920910.312    20920906.089
        56.000          49.000
  22801501.470     -345973.74243   -267899.98442  22801503.027    22801502.594
        50.000          43.000
  20895924.894    18435004.93043  14368334.11342  20895925.439    20895924.020
        56.000          49.000
  23213280.634    16714467.74643  13035045.43142  23213280.568    23213280.130
        48.000          41.000
 03  6 25 15 50 40.0000000  0 11G 6G16G30G10G26G18G23G21G29G17G15
  20299370.406     -193717.68144   -147755.96142  20299372.003    20299369.311
        57.000          51.000
  23602794.190    -1626757.48443  -1262817.94342  23602795.304    23602794.537
        47.000          41.000
  24050559.141     1284900.64643    997286.71342  24050562.163    24050560.666
        46.000          39.000
  23938243.460      566124.02543    431733.68042  23938244.642    23938244.590
        47.000          40.000
  21814714.277     -440194.60943   -330144.46642  21814716.035    21814714.829
        52.000          45.000
  21787467.922    -2074925.00543  -1603630.27342  21787469.279    21787466.859
        54.000          47.000
  23866906.277    -1926667.14243  -1483645.01342  23866905.700    23866909.312
        45.000          39.000
  20917910.035     -768769.33343   -590712.93942  20917911.099    20917907.066
        56.000          49.000
  22802093.597     -342860.21343   -265473.86342  22802095.758    22802094.277
        49.000          43.000
  20896611.759    18438613.84743  14371146.23642  20896612.261    20896610.247
        56.000          49.000
  23204502.276    16668338.53743  12999100.61042  23204505.284    23204501.761
        48.000          41.000
 03  6 25 15 51  0.0000000  0 11G 6G16G30G10G26G18G23G21G29G17G15
  20301183.380     -184190.91844   -140332.51642  20301184.734    20301182.189
        57.000          51.000
  23597573.239    -1654192.65843  -1284196.01642  23597575.484    23597572.680
        47.000          41.000
  24063571.644     1353280.92443   1050569.95542  24063573.037    24063573.094
        45.000          39.000
  23951461.388      635583.27443    485857.71442  23951461.881    23951461.193
        46.000          40.000
  21809058.475     -469915.20343   -353303.35142  21809060.498    21809058.810
        52.000          45.000
  21777869.656    -2125364.29043  -1642933.58442  21777871.209    21777868.472
        54.000          47.000
  23854918.789    -1989663.88643  -1532733.31442  23854919.565    23854921.216
        45.000          39.000
  20914925.583     -784453.28343   -602934.20542  20914926.253    20914922.790
        56.000          49.000
  22802731.271     -339509.81143   -262863.17042  22802732.201    22802732.616
        49.000          44.000
  20897311.653    18442292.31843  14374012.56242  20897312.180    20897310.397
        56.000          49.000
  23195731.138    16622246.01443  12963184.38042  23195732.030    23195729.859
        48.000          41.000
 03  6 25 15 51 20.0000000  0 11G 6G16G30G10G26G18G23G21G29G17G15
  20303036.657     -174451.45244   -132743.33142  20303038.490    20303035.708
        57.000          51.000
  23592396.887    -1681400.18643  -1305396.70542  23592397.504    23592395.012
        48.000          41.000
  24076583.048     1421652.11543   1103846.12542  24076584.701    24076584.546
        47.000          39.000
  23964685.086      705077.80543    540009.23742  23964687.150    23964687.536
        46.000          39.000
  21803448.991     -499391.91743   -376272.20742  21803450.481    21803449.551
        51.000          45.000
  21768302.060    -2175642.96943  -1682111.74742  21768303.374    21768300.895
        54.000          47.000
  23842949.660    -2052561.50543  -1581744.38542  23842950.605    23842951.418
        45.000          39.000
  20911956.082     -800057.52543   -615093.36442  20911957.158    20911953.559
        56.000          49.000
  22803415.075     -335919.39443   -260065.45142  22803416.887    22803415.526
        49.000          43.000
  20898025.444    18446043.43843  14376935.49442  20898025.964    20898024.041
        56.000          49.000
  23186967.950    16576193.26743  12927299.13842  23186969.359    23186967.634
        48.000          41.000
 03  6 25 15 51 40.0000000  0 11G 6G16G30G10G26G18G23G21G29G17G15
  20304930.499     -164500.05144   -124989.00042  20304931.986    20304929.511
        57.000          51.000
  23587262.653    -1708380.94043  -1326420.68042  23587264.553    23587262.783
        48.000          41.000
  24089591.220     1490012.51443   1157113.88042  24089592.395    24089593.293
        46.000          39.000
  23977916.772      774605.89243    594186.91542  23977916.962    23977918.682
        46.000          40.000
  21797886.660     -528624.82543   -399051.07542  21797888.576    21797887.074
        52.000          45.000
  21758764.713    -2225761.53243  -1721165.15342  21758765.792    21758763.972
        54.000          47.000
  23830999.091    -2115360.38343  -1630678.50242  23830999.930    23831002.142
        46.000          39.000
  20909001.699     -815582.94043   -627191.09942  20909002.753    20908999.069
        56.000          49.000
  22804143.264     -332090.04343   -257081.54942  22804146.436    22804145.015
        49.000          43.000
  20898752.938    18449866.19643  14379914.24642  20898753.409    20898751.598
        56.000          49.000
  23178211.975    16530179.34443  12891444.16942  23178212.788    23178211.352
        48.000          41.000
 03  6 25 15 52  0.0000000  0 11G 6G16G30G10G26G18G23G21G29G17G15
  20306864.606     -154335.65744   -117068.70042  20306866.286    20306863.572
        58.000          51.000
  23582171.766    -1735133.51743  -1347266.85742  23582173.365    23582170.877
        48.000          41.000
  24102597.686     1558362.28943   1210373.36242  24102599.038    24102599.894
        45.000          39.000
  23991153.655      844167.96943    648391.08342  23991155.302    23991155.783
        46.000          40.000
  21792369.887     -557612.31543   -421638.71142  21792371.662    21792370.618
        52.000          45.000
  21749258.137    -2275718.48743  -1760092.62642  21749259.459    21749257.272
        55.000          47.000
  23819067.977    -2178059.13943  -1679534.60842  23819069.787    23819070.825
        46.000          39.000
  20906062.491     -831028.69343   -639226.75942  20906063.316    20906059.913
        56.000          49.000
  22804917.859     -328020.37443   -253910.38942  22804919.637    22804918.958
        50.000          43.000
  20899494.086    18453761.57143  14382949.59042  20899494.849    20899492.956
        56.000          49.000
  23169463.406    16484205.26043  12855620.24542  23169464.452    23169463.952
        48.000          41.000
 03  6 25 15 52 20.0000000  0 11G 6G16G30G10G26G18G23G21G29G17G15
  20308838.713     -143961.87344   -108985.23742  20308840.304    20308837.612
        57.000          51.000
  23577123.739    -1761661.31443  -1367937.88642  23577124.070    23577122.887
        48.000          41.000
  24115601.748     1626696.92943   1263621.04842  24115603.061    24115602.071
        45.000          39.000
  24004396.749      913759.38043    702618.10442  24004397.718    24004396.941
        46.000          40.000
  21786900.145     -586357.31043   -444037.39042  21786902.414    21786901.319
        51.000          45.000
  21739781.761    -2325517.34043  -1798896.90042  21739783.022    21739780.519
        54.000          47.000
  23807154.946    -2240661.05343  -1728315.25342  23807155.732    23807158.600
        46.000          39.000
  20903137.581     -846398.15643   -651202.97342  20903138.787    20903135.190
        56.000          49.000
  22805737.619     -323714.21643   -250554.95142  22805739.165    22805737.997
        50.000          44.000
  20900248.611    18457725.80543  14386038.58542  20900248.944    20900247.342
        56.000          49.000
  23160721.435    16438267.14243  12819824.32242  23160722.934    23160720.922
        48.000          41.000
 03  6 25 15 52 40.0000000  0 11G 6G16G30G10G26G18G23G21G29G17G15
  20310854.356     -133369.82944   -100731.70742  20310855.922    20310853.334
        57.000          51.000
  23572120.637    -1787955.46443  -1388426.84842  23572119.576    23572119.406
        48.000          41.000
  24128603.891     1695024.19943   1316862.99942  24128605.291    24128606.526
        46.000          39.000
  24017646.825      983388.09243    756874.17642  24017647.487    24017648.027
        46.000          39.000
  21781478.083     -614850.51543   -466239.87242  21781479.907    21781478.648
        51.000          45.000
  21730337.032    -2375149.20743  -1837571.05742  21730338.528    21730335.369
        54.000          47.000
  23795262.494    -2303156.94943  -1777013.27742  23795263.967    23795264.048
        46.000          39.000
  20900229.138     -861682.84443   -663113.13142  20900230.083    20900226.615
        56.000          49.000
  22806603.370     -319162.81243   -247008.41142  22806604.735    22806605.611
        50.000          44.000
  20901017.736    18461767.51743  14389187.95342  20901018.317    20901016.605
        56.000          49.000
  23151987.954    16392373.66743  12784063.20342  23151988.772    23151986.374
        49.000          41.000
 03  6 25 15 53  0.0000000  0 11G 6G16G30G10G26G18G23G21G29G17G15
  20312909.560     -122569.91444    -92316.19442  20312911.046    20312908.334
        57.000          51.000
  23567158.065    -1814026.22243  -1408741.72942  23567160.307    23567157.604
        47.000          41.000
  24141602.751     1763332.75343   1370090.35342  24141603.340    24141604.457
        46.000          39.000
  24030901.396     1053042.80243    811150.52642  24030901.598    24030902.898
        45.000          39.000
  21776102.025     -643101.73643   -488253.79042  21776104.059    21776103.269
        52.000          45.000
  21720922.184    -2424624.37543  -1876123.10842  21720923.090    21720920.890
        54.000          47.000
  23783388.555    -2365557.06743  -1825636.67242  23783389.542    23783390.399
        45.000          39.000
  20897334.764     -876893.36843   -674965.49942  20897336.126    20897331.809
        56.000          49.000
  22807514.396     -314376.73543   -243279.00942  22807515.409    22807514.901
        49.000          43.000
  20901799.506    18465875.96243  14392389.32242  20901799.959    20901798.312
        56.000          49.000
  23143261.546    16346514.33943  12748328.69542  23143261.954    23143262.411
        49.000          41.000
 03  6 25 15 53 20.0000000  0 11G 6G16G30G10G26G18G23G21G29G17G15
  20315006.566     -111549.86844    -83729.15642  20315008.222    20315005.350
        57.000          51.000
  23562242.072    -1839861.17143  -1428872.88642  23562243.717    23562240.559
        47.000          41.000
  24154600.273     1831633.97943   1423312.00342  24154600.015    24154602.925
        47.000          39.000
  24044163.055     1122734.99143    865456.07342  24044164.485    24044165.576
        46.000          39.000
  21770774.110     -671098.20543   -510069.20742  21770776.580    21770775.825
        51.000          45.000
  21711539.523    -2473930.39343  -1914543.35642  21711541.011    21711538.169
        54.000          47.000
  23771534.233    -2427848.74343  -1874175.57842  23771535.209    23771537.266
        45.000          39.000
  20894456.694     -892017.63943   -686750.65842  20894457.826    20894453.947
        56.000          49.000
  22808472.466     -309343.71243   -239357.17142  22808473.311    22808472.825
        50.000          43.000
  20902596.437    18470063.38943  14395652.23742  20902597.116    20902594.937
        56.000          49.000
  23134543.019    16300701.28543  12712630.24442  23134542.821    23134544.012
        48.000          41.000
 03  6 25 15 53 40.0000000  0 11G 6G16G30G10G26G18G23G21G29G17G15
  20317143.034     -100323.00044    -74980.94942  20317144.516    20317142.099
        57.000          51.000
  23557368.795    -1865473.42143  -1448830.50342  23557369.858    23557366.712
        48.000          41.000
  24167593.535     1899913.44143   1476516.68942  24167594.588    24167594.777
        45.000          39.000
  24057430.233     1192450.51343    919779.80142  24057431.998    24057431.082
        46.000          39.000
  21765492.856     -698852.62443   -531696.02642  21765494.469    21765493.937
        51.000          45.000
  21702186.692    -2523080.08243  -1952841.78942  21702188.338    21702185.735
        54.000          47.000
  23759698.845    -2490044.90243  -1922640.04342  23759700.064    23759701.273
        45.000          40.000
  20891592.482     -907069.14443   -698479.11142  20891593.401    20891589.833
        56.000          49.000
  22809474.228     -304077.06143   -235253.29242  22809475.463    22809475.452
        49.000          43.000
  20903405.687    18474316.36043  14398966.22342  20903406.344    20903404.466
        56.000          49.000
  23125831.464    16254921.08043  12676957.36442  23125832.745    23125830.328
        48.000          41.000
 03  6 25 15 54  0.0000000  0 11G 6G16G30G10G26G18G23G21G29G17G15
  20319320.773      -88879.14044    -66063.65842  20319322.177    20319319.386
        57.000          51.000
  23552539.531    -1890852.77443  -1468606.64242  23552540.625    23552537.643
        48.000          41.000
  24180584.121     1968180.59243   1529711.78042  24180585.645    24180584.608
        46.000          39.000
  24070702.670     1262198.71643    974128.99242  24070701.996    24070703.231
        45.000          39.000
  21760259.661     -726354.25643   -553125.84442  21760261.801    21760260.330
        52.000          45.000
  21692865.743    -2572063.13643  -1991010.38142  21692866.989    21692864.159
        55.000          47.000
  23747883.283    -2552135.18643  -1971022.00942  23747882.993    23747885.206
        45.000          39.000
  20888744.133     -922037.76243   -710142.97742  20888745.297    20888741.639
        56.000          49.000
  22810523.049     -298566.78643   -230959.57242  22810523.792    22810522.583
        50.000          43.000
  20904229.459    18478644.89043  14402339.08642  20904229.965    20904227.885
        56.000          49.000
  23117128.267    16209183.51843  12641317.72242  23117128.623    23117128.886
        49.000          41.000
 03  6 25 15 54 20.0000000  0 11G 6G16G30G10G26G18G23G21G29G17G15
  20321539.071      -77221.86644    -56980.06842  20321540.498    20321537.964
        57.000          51.000
  23547753.477    -1916002.59643  -1488203.92342  23547753.535    23547752.613
        48.000          41.000
  24193571.534     2036430.81743   1582893.68242  24193574.062    24193574.821
        46.000          39.000
  24083981.139     1331975.24643   1028500.24842  24083981.940    24083981.734
        46.000          39.000
  21755073.649     -753606.21343   -574361.12242  21755075.741    21755074.291
        52.000          45.000
  21683575.546    -2620882.83543  -2029051.68042  21683576.481    21683573.898
        55.000          47.000
  23736087.681    -2614122.68243  -2019323.88242  23736089.001    23736089.773
        45.000          39.000
  20885910.874     -936927.08043   -721745.05142  20885911.699    20885907.878
        56.000          49.000
  22811617.055     -292816.67343   -226478.97342  22811617.994    22811618.008
        49.000          43.000
  20905066.822    18483045.31643  14405767.97442  20905067.352    20905065.878
        56.000          49.000
  23108431.909    16163485.00843  12605708.50342  23108431.997    23108434.244
        49.000          41.000
 03  6 25 15 54 40.0000000  0 11G 6G16G30G10G26G18G23G21G29G17G15
  20323798.418      -65348.69744    -47728.24842  20323799.665    20323797.226
        57.000          51.000
  23543010.901    -1940920.32743  -1507620.35142  23543012.069    23543011.078
        48.000          41.000
  24206556.177     2104665.66243   1636063.60242  24206558.988    24206559.217
        46.000          39.000
  24097264.378     1401781.73943   1082894.87242  24097263.773    24097265.183
        45.000          39.000
  21749935.777     -780605.42243   -595399.44742  21749938.615    21749936.797
        52.000          45.000
  21674317.072    -2669536.60943  -2066963.68842  21674318.279    21674315.608
        55.000          47.000
  23724312.144    -2676004.51243  -2067543.40942  23724312.567    23724312.915
        45.000          39.000
  20883092.930     -951734.97343   -733283.67442  20883094.142    20883090.185
        56.000          49.000
  22812757.628     -286824.09743   -221809.43342  22812759.327    22812758.027
        50.000          43.000
  20905918.190    18487519.76343  14409254.54042  20905918.938    20905917.092
        56.000          49.000
  23099743.571    16117827.94143  12570131.59142  23099745.146    23099743.366
        48.000          42.000
 03  6 25 15 55  0.0000000  0 11G 6G16G30G10G26G18G23G21G29G17G15
  20326097.899      -53264.50844    -38312.00142  20326099.379    20326096.717
        57.000          51.000
  23538313.652    -1965610.53743  -1526859.50042  23538314.613    23538312.881
        48.000          41.000
  24219537.707     2172879.20843   1689216.93042  24219538.349    24219539.015
        45.000          39.000
  24110552.962     1471612.65043   1137308.50642  24110552.424    24110554.088
        45.000          39.000
  21744845.481     -807356.13843   -616244.14542  21744846.985    21744845.864
        52.000          45.000
  21665089.221    -2718029.14143  -2104750.04742  21665090.549    21665088.202
        55.000          47.000
  23712555.192    -2737785.30443  -2115684.21642  23712556.013    23712556.816
        45.000          39.000
  20880289.791     -966466.34343   -744762.66742  20880290.796    20880287.149
        56.000          49.000
  22813943.006     -280594.16643   -216954.94542  22813944.225    22813944.193
        50.000          43.000
  20906782.867    18492063.13943  14412794.81542  20906783.393    20906781.625
        55.000          49.000
  23091062.367    16072207.25343  12534583.01442  23091063.196    23091060.300
        49.000          41.000
 03  6 25 15 55 20.0000000  0 11G 6G16G30G10G26G18G23G21G29G17G15
  20328438.215      -40966.65144    -28729.25742  20328439.619    20328436.992
        57.000          51.000
  23533659.068    -1990070.54743  -1545919.26742  23533660.472    23533658.688
        48.000          41.000
  24232514.472     2241073.21243   1742355.01942  24232515.958    24232516.839
        46.000          39.000
  24123846.266     1541469.89143   1191742.66742  24123846.077    24123848.437
        45.000          39.000
  21739802.573     -833855.22443   -636892.77042  21739804.325    21739803.614
        52.000          45.000
  21655892.392    -2766357.50343  -2142408.47942  21655893.758    21655891.345
        55.000          47.000
  23700818.809    -2799462.02743  -2163743.93642  23700819.247    23700821.130
        45.000          39.000
  20877501.426     -981118.61243   -756180.02042  20877502.188    20877499.100
        56.000          49.000
  22815174.058     -274124.19443   -211913.41842  22815175.662    22815175.771
        50.000          43.000
  20907661.094    18496677.89443  14416390.71142  20907661.698    20907659.904
        56.000          49.000
  23082388.481    16026625.56443  12499064.84142  23082389.406    23082388.947
        49.000          42.000
 03  6 25 15 55 40.0000000  0 11G 6G16G30G10G26G18G23G21G29G17G15
  20330819.939      -28450.56944    -18976.46842  20330821.421    20330818.796
        57.000          51.000
  23529049.761    -2014295.80143  -1564796.08942  23529050.588    23529047.740
        48.000          41.000
  24245488.657     2309251.36743   1795480.76642  24245489.559    24245491.164
        46.000          39.000
  24137145.460     1611356.93643   1246200.05242  24137146.659    24137147.536
        45.000          39.000
  21734809.133     -860097.59743   -657341.35742  21734811.007    21734810.230
        52.000          45.000
  21646728.096    -2814517.02843  -2179935.35442  21646729.605    21646726.547
        55.000          47.000
  23689102.254    -2861029.89043  -2211718.81642  23689103.703    23689104.383
        45.000          39.000
  20874729.060     -995687.57143   -767532.45942  20874730.200    20874726.469
        56.000          49.000
  22816451.490     -267409.93043   -206681.52742  22816453.388    22816452.249
        49.000          43.000
  20908553.525    18501368.31443  14420045.56542  20908554.098    20908552.524
        56.000          49.000
  23073722.397    15981087.19043  12463580.40242  23073722.361    23073721.961
        49.000          41.000
 03  6 25 15 56  0.0000000  0 11G 6G16G30G10G26G18G23G21G29G17G15
  20333241.823      -15723.25644     -9059.08542  20333243.479    20333240.628
        57.000          51.000
  23524482.390    -2038292.99743  -1583495.22042  23524484.711    23524481.044
        48.000          41.000
  24258457.324     2377405.77943   1848588.00642  24258457.841    24258457.814
        45.000          39.000
  24150448.858     1681265.95743   1300674.55942  24150449.331    24150451.433
        45.000          39.000
  21729862.640     -886089.62543   -677594.87042  21729864.206    21729863.936
        52.000          45.000
  21637594.487    -2862514.32743  -2217335.81442  21637596.247    21637593.329
        55.000          47.000
  23677405.920    -2922495.57343  -2259614.09742  23677407.062    23677409.212
        45.000          39.000
  20871971.209    -1010180.28443   -778825.48242  20871972.246    20871968.196
        56.000          49.000
  22817774.819     -260458.26543   -201264.64042  22817776.278    22817774.741
        49.000          43.000
  20909459.219    18506127.61043  14423754.09042  20909459.758    20909458.239
        56.000          49.000
  23065064.135    15935584.94643  12428124.11642  23065065.554    23065063.991
        49.000          42.000
 03  6 25 15 56 20.0000000  0 11G 6G16G30G10G26G18G23G21G29G17G15
  20335705.224       -2777.54644      1028.47942  20335706.743    20335704.414
        57.000          51.000
  23519960.489    -2062054.80243  -1602010.91542  23519962.050    23519960.244
        48.000          41.000
  24271423.644     2445542.58543   1901681.52042  24271426.830    24271426.149
        46.000          39.000
  24163757.992     1751203.49143   1355171.28742  24163758.863    24163759.072
        46.000          39.000
  21724965.930     -911823.80543   -697647.45642  21724967.944    21724966.749
        52.000          45.000
  21628493.154    -2910342.11643  -2254604.18942  21628494.607    21628492.207
        55.000          47.000
  23665730.332    -2983851.65543  -2307423.95542  23665731.968    23665733.215
        46.000          39.000
  20869229.206    -1024589.66843   -790053.57542  20869230.265    20869226.437
        56.000          49.000
  22819143.959     -253262.21243   -195657.32842  22819146.078    22819143.834
        49.000          43.000
  20910379.395    18510962.60043  14427521.59742  20910380.122    20910378.482
        56.000          49.000
  23056413.363    15890125.81643  12392701.43542  23056413.787    23056414.022
        49.000          42.000
 03  6 25 15 56 40.0000000  0 11G 6G16G30G10G26G18G23G21G29G17G15
  20338208.702       10377.92044     11279.48742  20338210.331    20338207.685
        57.000          51.000
  23515481.722    -2085589.79443  -1620349.88842  23515483.379    23515480.451
        48.000          41.000
  24284384.294     2513652.24543   1954753.89042  24284384.915    24284387.008
        45.000          39.000
  24177069.313     1821160.15943   1409682.92942  24177069.578    24177070.985
        45.000          39.000
  21720116.146     -937307.94443   -717505.21742  21720118.227    21720116.311
        52.000          45.000
  21619422.449    -2958008.69643  -2291746.94742  21619423.871    21619421.039
        55.000          47.000
  23654074.329    -3045106.29043  -2355154.77542  23654075.381    23654075.326
        46.000          39.000
  20866501.371    -1038924.39443   -801223.49642  20866502.704    20866498.594
        56.000          49.000
  22820558.464     -245830.54743   -189866.42442  22820560.765    22820559.416
        50.000          43.000
  20911312.147    18515864.68443  14431341.38942  20911312.848    20911310.640
        55.000          49.000
  23047769.334    15844701.04943  12357305.52542  23047770.798    23047769.612
        48.000          42.000
 03  6 25 15 57  0.0000000  0 11G 6G16G30G10G26G18G23G21G29G17G15
  20340753.367       23749.91944     21699.22642  20340754.639    20340752.324
        57.000          51.000
  23511048.278    -2108891.10743  -1638506.76742  23511050.475    23511047.393
        48.000          41.000
  24297340.840     2581740.78643   2007809.80342  24297343.610    24297343.548
        46.000          39.000
  24190386.740     1891141.88943   1464214.10242  24190387.556    24190389.506
        45.000          39.000
  21715315.911     -962534.81043   -737162.49742  21715317.313    21715316.280
        52.000          45.000
  21610383.700    -3005507.04643  -2328758.61842  21610384.955    21610382.009
        55.000          47.000
  23642437.957    -3106252.37343  -2402801.01842  23642439.669    23642439.495
        46.000          39.000
  20863789.021    -1053177.71043   -812329.97942  20863790.149    20863786.642
        56.000          49.000
  22822018.767     -238156.52843   -183886.67542  22822020.332    22822019.033
        49.000          43.000
  20912259.068    18520840.43543  14435218.57842  20912259.486    20912258.040
        56.000          49.000
  23039132.822    15799317.35543  12321941.62542  23039134.452    23039134.321
        49.000          42.000
 03  6 25 15 57 20.0000000  0 11G 6G16G30G10G26G18G23G21G29G17G15
  20343339.560       37340.70544     32289.44342  20343340.913    20343338.530
        57.000          51.000
  23506658.636    -2131956.28443  -1656479.63142  23506659.519    23506658.694
        48.000          41.000
  24310294.643     2649809.49643   2060850.25642  24310299.780    24310297.664
        46.000          39.000
  24203708.950     1961150.21143   1518765.98442  24203709.852    24203711.167
        45.000          39.000
  21710564.931     -987501.65243   -756617.16542  21710566.899    21710565.081
        52.000          45.000
  21601377.732    -3052834.82543  -2365637.37042  21601378.787    21601376.066
        55.000          47.000
  23630823.587    -3167287.27843  -2450360.61942  23630825.589    23630824.596
        46.000          39.000
  20861092.759    -1067347.52843   -823371.39942  20861093.848    20861090.022
        56.000          49.000
  22823525.452     -230237.87743   -177716.29542  22823527.492    22823525.202
        49.000          43.000
  20913220.472    18525891.74143  14439154.64442  20913221.062    20913219.511
        56.000          49.000
  23030504.693    15753976.83343  12286611.35142  23030506.156    23030505.494
        48.000          42.000
 03  6 25 15 57 40.0000000  0 11G 6G16G30G10G26G18G23G21G29G17G15
  20345966.044       51142.63044     43044.18542  20345967.490    20345964.915
        57.000          51.000
  23502313.357    -2154792.78543  -1674274.32242  23502316.257    23502312.374
        48.000          41.000
  24323242.218     2717849.86643   2113868.64642  24323243.417    24323245.108
        45.000          39.000
  24217034.674     2031176.93343   1573332.20942  24217035.712    24217037.310
        45.000          39.000
  21705861.849    -1012215.54243   -775874.73042  21705863.639    21705862.511
        52.000          45.000
  21592402.655    -3099999.44343  -2402388.98942  21592403.829    21592400.512
        55.000          47.000
  23619228.861    -3228218.34443  -2497839.32242  23619229.734    23619231.234
        46.000          40.000
  20858410.628    -1081441.72643   -834353.89642  20858411.532    20858408.003
        56.000          49.000
  22825077.057     -222082.53143   -171361.47942  22825077.688    22825078.085
        49.000          43.000
  20914194.481    18531011.06943  14443143.70942  20914195.219    20914193.807
        56.000          49.000
  23021884.126    15708671.92043  12251308.83642  23021885.174    23021883.374
        49.000          42.000
 03  6 25 15 58  0.0000000  0 11G 6G16G30G10G26G18G23G21G29G17G15
  20348633.688       65161.10044     53967.66142  20348635.063    20348632.475
        57.000          51.000
  23498012.011    -2177395.02343  -1691886.46042  23498012.832    23498011.159
        48.000          41.000
  24336184.930     2785866.46143   2166868.49742  24336187.046    24336187.590
        45.000          38.000
  24230364.826     2101226.70643   1627916.39742  24230366.128    24230367.220
        45.000          39.000
  21701208.148    -1036670.43843   -794930.48042  21701210.638    21701209.614
        52.000          45.000
  21583459.544    -3146994.96443  -2439008.84242  21583461.101    21583458.165
        55.000          48.000
  23607654.642    -3289039.74543  -2545232.55142  23607655.238    23607656.694
        46.000          40.000
  20855744.059    -1095454.78744   -845273.16842  20855745.143    20855741.337
        57.000          49.000
  22826675.076     -213684.96043   -164817.91142  22826677.097    22826676.508
        49.000          43.000
  20915182.953    18536203.90243  14447190.05642  20915183.384    20915181.883
        56.000          49.000
  23013270.695    15663407.84343  12216038.13742  23013271.870    23013269.596
        49.000          42.000
 03  6 25 15 58 20.0000000  0 11G 6G16G30G10G26G18G23G21G29G17G15
  20351342.327       79395.75144     65059.59442  20351343.818    20351341.366
        57.000          51.000
  23493756.138    -2199763.38443  -1709316.36742  23493756.319    23493755.351
        48.000          41.000
  24349124.047     2853857.88643   2219848.72442  24349127.084    24349126.897
        45.000          38.000
  24243698.790     2171298.01243   1682517.37642  24243699.398    24243701.232
        44.000          39.000
  21696604.209    -1060866.32243   -813784.41242  21696606.215    21696603.857
        52.000          45.000
  21574548.744    -3193821.98943  -2475497.39942  21574549.951    21574546.948
        55.000          48.000
  23596101.555    -3349751.70643  -2592540.52542  23596102.906    23596102.383
        46.000          40.000
  20853092.840    -1109387.17943   -856129.58142  20853093.798    20853090.237
        56.000          49.000
  22828319.496     -205045.88543   -158086.17842  22828320.787    22828319.266
        49.000          43.000
  20916184.830    18541469.52843  14451293.12642  20916185.252    20916183.778
        56.000          49.000
  23004664.318    15618184.06043  12180798.83642  23004665.407    23004666.662
        49.000          42.000
 03  6 25 15 58 40.0000000  0 11G 6G16G30G10G26G18G23G21G29G17G15
  20354091.630       93842.82444     76317.04342  20354093.202    20354090.285
        57.000          51.000
  23489542.373    -2221901.38243  -1726566.76342  23489544.396    23489542.591
        48.000          41.000
  24362056.999     2921819.65143   2272805.86842  24362057.876    24362058.860
        45.000          38.000
  24257037.260     2241386.52843   1737131.75342  24257038.170    24257037.788
        45.000          39.000
  21692048.734    -1084806.24543   -832438.88842  21692050.111    21692049.238
        52.000          45.000
  21565669.273    -3240483.77243  -2511857.19442  21565670.420    21565667.690
        55.000          47.000
  23584568.720    -3410357.39443  -2639765.67042  23584569.782    23584569.322
        46.000          40.000
  20850456.328    -1123242.54743   -866925.97442  20850457.374    20850453.544
        56.000          49.000
  22830008.700     -196168.82543   -151168.99642  22830010.502    22830009.489
        49.000          43.000
  20917199.943    18546804.07943  14455449.90242  20917200.641    20917198.658
        55.000          49.000
  22996065.810    15572996.80943  12145588.00942  22996067.792    22996065.800
        49.000          42.000
 03  6 25 15 59  0.0000000  0 11G 6G16G30G10G26G18G23G21G29G17G15
  20356882.400      108508.29544     87744.67842  20356883.765    20356881.288
        57.000          51.000
  23485375.501    -2243803.03943  -1743632.99242  23485376.030    23485374.285
        48.000          41.000
  24374984.188     2989756.73243   2325743.74842  24374985.140    24374986.291
        44.000          38.000
  24270378.115     2311497.38143   1791763.54342  24270378.774    24270380.081
        45.000          39.000
  21687542.728    -1108483.92343   -850889.02442  21687544.257    21687543.170
        52.000          45.000
  21556822.441    -3286974.11743  -2548083.40642  21556823.662    21556820.847
        55.000          48.000
  23573056.540    -3470850.66643  -2686903.23042  23573059.113    23573058.732
        45.000          40.000
  20847835.297    -1137015.30943   -877657.99942  20847836.630    20847832.641
        56.000          49.000
  22831743.956     -187048.27043   -144062.07042  22831746.485    22831745.076
        49.000          43.000
  20918229.447    18552213.33843  14459664.89542  20918230.107    20918227.930
        56.000          49.000
  22987474.670    15527851.91843  12110410.18242  22987475.554    22987474.433
        49.000          42.000
 03  6 25 15 59 20.0000000  0 11G 6G16G30G10G26G18G23G21G29G17G15
  20359714.000      123388.69244     99339.78542  20359715.553    20359712.948
        57.000          51.000
  23481252.475    -2265471.68143  -1760517.66842  23481253.247    23481249.607
        48.000          41.000
  24387906.896     3057664.81643   2378659.04242  24387908.358    24387906.689
        45.000          38.000
  24283723.708     2381626.53943   1846409.57942  24283724.755    24283725.588
        44.000          39.000
  21683085.997    -1131902.24043   -869137.05142  21683087.981    21683086.723
        52.000          45.000
  21548007.417    -3333296.55043  -2584178.76742  21548008.798    21548006.272
        55.000          48.000
  23561565.644    -3531234.61243  -2733955.59142  23561566.788    23561568.578
        45.000          40.000
  20845229.578    -1150709.04843   -888328.44842  20845230.607    20845227.089
        56.000          49.000
  22833525.311     -177687.67143   -136768.09542  22833527.622    22833526.060
        49.000          43.000
  20919272.198    18557693.75843  14463935.33942  20919273.069    20919271.394
        55.000          49.000
  22978892.285    15482745.86843  12075262.60342  22978892.884    22978890.275
        49.000          42.000
 03  6 25 15 59 40.0000000  0 11G 6G16G30G10G26G18G23G21G29G17G15
  20362586.966      138486.05844    111103.96242  20362588.523    20362585.870
        57.000          50.000
  23477173.317    -2286905.14443  -1777219.07042  23477174.393    23477172.626
        48.000          41.000
  24400824.590     3125544.95343   2431552.56642  24400826.032    24400825.485
        44.000          38.000
  24297072.320     2451775.25543   1901070.86542  24297073.574    24297074.500
        44.000          38.000
  21678679.918    -1155058.50943   -887180.88742  21678680.917    21678680.189
        52.000          45.000
  21539224.960    -3379448.61143  -2620141.37042  21539226.087    21539223.150
        55.000          48.000
  23550096.543    -3591506.84243  -2780920.89642  23550098.380    23550098.315
        46.000          40.000
  20842639.106    -1164322.00743   -898935.94842  20842640.060    20842636.520
        56.000          49.000
  22835352.863     -168085.10343   -129285.57442  22835353.557    22835353.452
        49.000          43.000
  20920329.076    18563247.36643  14468262.81342  20920329.435    20920327.914
        56.000          49.000
  22970315.831    15437680.54943  12040146.79342  22970316.573    22970316.405
        49.000          42.000
 03  6 25 16  0  0.0000000  0 11G 6G16G30G10G26G18G23G21G29G17G15
  20365499.951      153794.66744    123032.74142  20365501.467    20365498.961
        57.000          51.000
  23473137.948    -2308108.78643  -1793741.40442  23473139.716    23473136.511
        48.000          41.000
  24413734.646     3193390.77143   2484419.34142  24413736.852    24413736.441
        43.000          38.000
  24310424.070     2521937.04743   1955742.36142  24310423.614    24310423.432
        45.000          38.000
  21674322.489    -1177958.00243   -905024.63542  21674323.875    21674322.525
        52.000          45.000
  21530473.847    -3425435.71043  -2655975.43342  21530475.131    21530472.359
        55.000          48.000
  23538647.280    -3651672.56743  -2827803.22642  23538648.857    23538649.414
        45.000          40.000
  20840062.950    -1177859.50243   -909484.65042  20840063.984    20840059.869
        56.000          49.000
  22837225.063     -158246.38043   -121619.04042  22837226.727    22837225.449
        49.000          43.000
  20921398.553    18568868.33343  14472642.77542  20921399.103    20921397.992
        55.000          49.000
  22961746.747    15392650.10243  12005058.14642  22961747.620    22961745.647
        49.000          42.000
 03  6 25 16  0 20.0000000  0 11G 6G16G30G10G26G18G23G21G29G17G15
  20368455.007      169323.38144    135133.03542  20368456.550    20368454.043
        57.000          51.000
  23469148.657    -2329074.00543  -1810077.92742  23469149.290    23469146.987
        48.000          41.000
  24426639.426     3261210.26943   2537265.60642  24426642.091    24426642.146
        45.000          38.000
  24323778.826     2592120.07943   2010430.41542  24323779.558    24323781.691
        45.000          38.000
  21670015.497    -1200591.36543   -922661.00742  21670017.712    21670016.225
        52.000          45.000
  21521755.748    -3471248.94643  -2691674.02242  21521757.178    21521753.905
        55.000          48.000
  23527220.391    -3711722.68043  -2874595.46042  23527222.247    23527221.560
        46.000          40.000
  20837502.864    -1191312.81443   -919967.74942  20837504.034    20837500.381
        56.000          49.000
  22839144.161     -148162.72443   -113761.64042  22839145.186    22839144.480
        49.000          43.000
  20922482.770    18574565.52843  14477082.13542  20922483.317    20922481.638
        56.000          49.000
  22953186.369    15347663.29643  11970003.49342  22953188.004    22953185.726
        49.000          42.000
 03  6 25 16  0 40.0000000  0 11G 6G16G30G10G26G18G23G21G29G17G15
  20371451.277      185068.26244    147401.76642  20371452.733    20371450.003
        57.000          51.000
  23465203.446    -2349804.47843  -1826231.54942  23465204.148    23465203.022
        47.000          41.000
  24439539.835     3328998.35943   2590087.40142  24439541.690    24439542.847
        44.000          38.000
  24337137.587     2662319.68343   2065131.37742  24337136.377    24337139.282
        44.000          38.000
  21665758.277    -1222961.96943   -940092.64542  21665760.205    21665758.536
        52.000          46.000
  21513070.258    -3516891.83443  -2727239.87342  21513071.946    21513068.813
        55.000          48.000
  23515814.477    -3771660.77443  -2921300.41942  23515815.126    23515816.687
        46.000          40.000
  20834958.063    -1204685.85643   -930388.30442  20834959.240    20834954.960
        56.000          49.000
  22841108.689     -137838.19243   -105716.54942  22841108.772    22841109.108
        50.000          43.000
  20923580.681    18580334.80843  14481577.65942  20923581.237    20923579.571
        56.000          49.000
  22944633.252    15302716.13143  11934979.75042  22944633.381    22944634.109
        49.000          42.000
 03  6 25 16  1  0.0000000  0 11G 6G16G30G10G26G18G23G21G29G17G15
  20374488.110      201027.27944    159837.35642  20374489.482    20374486.992
        57.000          50.000
  23461302.911    -2370301.99743  -1842203.63742  23461304.450    23461302.790
        48.000          41.000
  24452433.613     3396752.48643   2642882.71342  24452435.431    24452436.743
        45.000          38.000
  24350498.757     2732533.12143   2119843.09142  24350498.327    24350499.382
        44.000          38.000
  21661550.856    -1245071.21243   -957320.61242  21661552.382    21661551.282
        52.000          45.000
  21504416.698    -3562366.24443  -2762674.44242  21504418.006    21504414.989
        55.000          48.000
  23504429.738    -3831488.50343  -2967919.37242  23504430.158    23504432.619
        47.000          40.000
  20832428.172    -1217980.84943   -940748.04442  20832429.297    20832425.037
        56.000          49.000
  22843118.659     -127275.06643    -97485.53942  22843120.028    22843119.437
        49.000          43.000
  20924691.847    18586174.11843  14486127.75242  20924692.635    20924691.040
        56.000          49.000
  22936087.057    15257806.58343  11899985.31542  22936087.582    22936085.132
        49.000          42.000
 03  6 25 16  1 20.0000000  0 11G 6G16G30G10G26G18G23G21G29G17G15
  20377566.158      217202.02544    172441.04442  20377567.636    20377565.071
        57.000          50.000
  23457447.932    -2390564.94143  -1857992.97342  23457449.468    23457446.799
        48.000          41.000
  24465320.121     3464473.21943   2695652.03242  24465324.447    24465323.200
        45.000          38.000
  24363862.667     2802761.35843   2174566.34142  24363864.783    24363865.671
        44.000          38.000
  21657393.820    -1266917.11843   -974343.39242  21657395.428    21657394.121
        52.000          45.000
  21495795.670    -3607670.45443  -2797976.38742  21495796.800    21495794.209
        55.000          48.000
  23493066.531    -3891203.94643  -3014450.84142  23493067.244    23493068.124
        47.000          40.000
  20829913.468    -1231196.27943   -951045.79142  20829914.579    20829910.619
        56.000          49.000
  22845174.418     -116471.67243    -89067.30742  22845175.137    22845174.628
        49.000          43.000
  20925816.705    18592084.95843  14490733.58142  20925817.733    20925815.635
        56.000          49.000
  22927548.081    15212936.18943  11865021.37842  22927549.672    22927548.817
        49.000          42.000
 03  6 25 16  1 40.0000000  0 11G 6G16G30G10G26G18G23G21G29G17G15
  20380686.152      233597.03644    185216.36242  20380687.638    20380684.843
        57.000          50.000
  23453637.305    -2410588.65943  -1873595.88042  23453638.010    23453636.638
        48.000          41.000
  24478202.903     3532164.31043   2748398.23542  24478206.192    24478204.895
        45.000          38.000
  24377230.551     2873008.19743   2229304.09642  24377231.564    24377233.141
        45.000          38.000
  21653287.989    -1288494.55243   -991156.96042  21653289.501    21653288.092
        52.000          45.000
  21487207.774    -3652799.59543  -2833141.91542  21487208.864    21487206.065
        55.000          48.000
  23481725.054    -3950802.16043  -3060890.95642  23481726.409    23481727.170
        47.000          40.000
  20827414.594    -1244327.60643   -961278.00042  20827415.701    20827411.575
        56.000          49.000
  22847276.981     -105423.68743    -80458.48542  22847278.299    22847277.782
        49.000          43.000
  20926956.014    18598071.92443  14495398.73142  20926956.686    20926954.982
        56.000          49.000
  22919018.847    15168109.39143  11830091.41442  22919018.728    22919017.560
        49.000          42.000
 03  6 25 16  2  0.0000000  0 11G 6G16G30G10G26G18G23G21G29G17G15
  20383845.902      250202.33744    198155.54942  20383847.595    20383844.833
        57.000          50.000
  23449870.757    -2430383.03643  -1889020.07742  23449871.593    23449870.153
        48.000          41.000
  24491077.114     3599814.99443   2801112.96642  24491079.091    24491079.414
        45.000          38.000
  24390599.900     2943262.81443   2284047.93342  24390601.465    24390599.582
        46.000          38.000
  21649231.003    -1309813.08243  -1007768.78942  21649233.278    21649231.825
        52.000          46.000
  21478651.321    -3697763.65443  -2868178.80742  21478652.472    21478649.698
        55.000          48.000
  23470404.030    -4010292.80643  -3107247.26042  23470404.243    23470405.048
        47.000          41.000
  20824929.947    -1257384.97043   -971452.57542  20824930.894    20824926.900
        56.000          49.000
  22849424.194      -94141.16543    -71666.90742  22849425.677    22849424.867
        49.000          43.000
  20928107.880    18604124.70543  14500115.16242  20928108.830    20928107.148
        56.000          49.000
  22910493.676    15123316.03043  11795187.51942  22910495.709    22910494.368
        48.000          42.000
 03  6 25 16  2 20.0000000  0 11G 6G16G30G10G26G18G23G21G29G17G15
  20387047.822      267028.04644    211266.47842  20387049.380    20387046.689
        57.000          50.000
  23446147.944    -2449938.05043  -1904257.75742  23446150.843    23446147.343
        47.000          41.000
  24503943.773     3667434.49843   2853803.38842  24503946.409    24503945.827
        45.000          38.000
  24403971.291     3013534.62443   2338805.16642  24403973.164    24403972.509
        45.000          38.000
  21645225.615    -1330861.96543  -1024170.49642  21645228.252    21645225.646
        53.000          46.000
  21470128.325    -3742552.17143  -2903078.91242  21470129.472    21470126.732
        55.000          48.000
  23459106.228    -4069665.44543  -3153511.61542  23459108.575    23459108.878
        47.000          41.000
  20822461.098    -1270358.27143   -981561.64842  20822462.059    20822458.461
        56.000          49.000
  22851617.282      -82614.24643    -62684.87842  22851617.843    22851616.963
        49.000          43.000
  20929274.255    18610253.33343  14504890.69742  20929274.597    20929272.919
        56.000          49.000
  22901978.134    15078566.24843  11760317.59042  22901979.869    22901980.124
        49.000          42.000
 03  6 25 16  2 40.0000000  0 11G 6G16G30G10G26G18G23G21G29G17G15
  20390290.654      284069.40244    224545.44842  20390292.057    20390289.748
        57.000          50.000
  23442473.490    -2469257.94543  -1919312.23742  23442472.919    23442470.557
        48.000          41.000
  24516803.574     3735017.28043   2906465.19842  24516807.356    24516806.324
        45.000          38.000
  24417345.831     3083818.36443   2393571.69942  24417346.129    24417348.621
        45.000          38.000
  21641270.315    -1351645.62043  -1040365.53342  21641271.866    21641270.922
        52.000          46.000
  21461638.060    -3787169.42343  -2937845.56842  21461639.189    21461636.421
        55.000          48.000
  23447830.058    -4128924.33843  -3199687.34242  23447830.991    23447831.165
        47.000          40.000
  20820007.593    -1283252.03043   -991608.73642  20820008.629    20820004.823
        56.000          49.000
  22853856.184      -70847.51743    -53515.98542  22853858.304    22853856.683
        49.000          43.000
  20930453.812    18616453.11843  14509721.67942  20930454.723    20930452.827
        56.000          49.000
  22893470.355    15033855.32243  11725477.91642  22893471.429    22893468.400
        49.000          42.000
 03  6 25 16  3  0.0000000  0 11G 6G16G30G10G26G18G23G21G29G17G15
  20393574.459      301326.35244    237992.40642  20393575.865    20393573.602
        57.000          50.000
  23438841.000    -2488342.65743  -1934183.45542  23438842.792    23438840.057
        48.000          41.000
  24529657.042     3802562.57643   2959097.80542  24529660.321    24529661.900
        45.000          37.000
  24430723.079     3154113.27543   2448346.91242  24430724.026    24430723.369
        45.000          38.000
  21637366.069    -1372163.31943  -1056353.33242  21637368.046    21637367.074
        52.000          46.000
  21453180.300    -3831615.28843  -2972478.67842  21453181.699    21453178.869
        55.000          48.000
  23436574.595    -4188069.20543  -3245774.19942  23436574.155    23436576.643
        47.000          41.000
  20817568.921    -1296066.41343  -1001593.97642  20817570.141    20817566.143
        56.000          49.000
  22856141.320      -58841.35843    -44160.52542  22856143.007    22856141.795
        50.000          43.000
  20931647.292    18622724.12543  14514608.15442  20931648.003    20931646.335
        56.000          49.000
  22884969.472    14989183.10143  11690668.40642  22884971.087    22884970.541
        49.000          42.000
 03  6 25 16  3 20.0000000  0 11G 6G16G30G10G26G18G23G21G29G17G15
  20396899.687      318800.54844    251608.65042  20396901.242    20396898.596
        57.000          50.000
  23435254.748    -2507190.55443  -1948870.14442  23435257.021    23435252.793
        48.000          41.000
  24542504.847     3870071.12343   3011701.76542  24542504.231    24542505.590
        45.000          38.000
  24444102.183     3224420.21643   2503131.50442  24444102.703    24444105.097
        45.000          38.000
  21633512.938    -1392412.97243  -1072132.26642  21633514.597    21633513.091
        52.000          46.000
  21444755.460    -3875888.01243  -3006976.87642  21444756.713    21444753.630
        55.000          48.000
  23425341.918    -4247098.03743  -3291770.64942  23425342.895    23425344.627
        47.000          40.000
  20815145.892    -1308799.90543  -1011516.18642  20815146.949    20815143.346
        56.000          49.000
  22858471.737      -46594.16843    -34617.25842  22858473.031    22858471.998
        50.000          43.000
  20932854.420    18629067.78943  14519551.25242  20932855.357    20932853.185
        56.000          49.000
  22876476.562    14944551.24643  11655890.36142  22876476.790    22876475.494
        49.000          42.000
 03  6 25 16  3 40.0000000  0 11G 6G16G30G10G26G18G23G21G29G17G15
  20400266.510      336492.94744    265394.91842  20400268.113    20400265.288
        57.000          50.000
  23431712.512    -2525800.54543  -1963371.45042  23431714.769    23431712.235
        47.000          41.000
  24555343.765     3937543.12943   3064277.25942  24555345.856    24555347.082
        45.000          38.000
  24457483.789     3294739.72943   2557925.88242  24457485.231    24457484.683
        45.000          38.000
  21629710.771    -1412393.10543  -1087701.18042  21629712.964    21629711.069
        52.000          46.000
  21436363.689    -3919986.23743  -3041339.10442  21436365.073    21436361.936
        55.000          48.000
  23414131.191    -4306009.38443  -3337675.54842  23414132.452    23414133.446
        47.000          41.000
  20812738.385    -1321451.64243  -1021374.68942  20812739.182    20812735.474
        56.000          49.000
  22860848.327      -34104.99543    -24885.42142  22860849.641    22860848.368
        49.000          43.000
  20934075.740    18635485.20343  14524551.81442  20934076.389    20934074.459
        55.000          49.000
  22867991.205    14899960.81243  11621144.60042  22867990.626    22867990.086
        49.000          42.000
 03  6 25 16  4  0.0000000  0 11G 6G16G30G10G26G18G23G21G29G17G15
  20403674.242      354400.80544    279349.07942  20403675.732    20403673.378
        57.000          50.000
  23428217.194    -2544175.15643  -1977689.35042  23428216.902    23428216.338
        48.000          41.000
  24568174.629     4004975.01443   3116821.50842  24568177.382    24568178.659
        44.000          38.000
  24470866.869     3365068.32543   2612727.35742  24470865.923    24470867.408
        45.000          39.000
  21625959.285    -1432105.86243  -1103061.75242  21625960.718    21625960.250
        52.000          46.000
  21428004.935    -3963912.38343  -3075567.24542  21428006.368    21428003.400
        55.000          48.000
  23402942.632    -4364805.59943  -3383490.73442  23402943.076    23402944.681
        48.000          40.000
  20810345.930    -1334024.16543  -1031171.46942  20810347.310    20810342.943
        56.000          49.000
  22863270.681      -21376.74843    -14967.30242  22863271.789    22863270.915
        49.000          43.000
  20935310.341    18641973.59643  14529607.68642  20935310.652    20935309.446
        55.000          49.000
  22859513.019    14855408.75343  11586428.72042  22859513.850    22859511.393
        49.000          42.000
 03  6 25 16  4 20.0000000  0 11G 6G16G30G10G26G18G23G21G29G17G15
  20407123.003      372524.12144    293471.12742  20407124.634    20407121.949
        57.000          50.000
  23424764.821    -2562314.24943  -1991823.74142  23424765.303    23424763.643
        47.000          41.000
  24580998.887     4072366.02743   3169333.87642  24581001.213    24581002.015
        44.000          38.000
  24484252.048     3435405.27443   2667535.33742  24484252.899    24484254.525
        45.000          39.000
  21622259.088    -1451550.86243  -1118213.68542  21622261.147    21622259.615
        53.000          46.000
  21419678.831    -4007666.38743  -3109661.25242  21419680.659    21419676.822
        55.000          48.000
  23391775.753    -4423486.33743  -3429215.94642  23391776.856    23391777.934
        47.000          41.000
  20807968.330    -1346517.61843  -1040906.63842  20807969.632    20807965.932
        56.000          49.000
  22865738.200       -8409.63443     -4863.05742  22865740.463    22865737.531
        49.000          43.000
  20936558.573    18648532.65743  14534718.62042  20936559.028    20936557.261
        55.000          49.000
  22851042.603    14810895.16843  11551742.82242  22851042.709    22851043.322
        49.000          42.000
 03  6 25 16  4 40.0000000  0 11G 6G16G30G10G26G18G23G21G29G17G15
  20410612.878      390863.31144    307761.38542  20410614.332    20410611.953
        57.000          50.000
  23421357.528    -2580217.51443  -2005774.35242  23421360.394    23421357.681
        48.000          41.000
  24593816.515     4139715.87043   3221814.16642  24593818.798    24593817.682
        44.000          37.000
  24497637.662     3505750.37743   2722349.68842  24497638.431    24497639.785
        45.000          38.000
  21618610.061    -1470727.10643  -1133156.19142  21618611.137    21618610.452
        53.000          46.000
  21411385.524    -4051247.78443  -3143620.76142  21411386.689    21411383.824
        55.000          48.000
  23380631.302    -4482050.86043  -3474850.59342  23380632.012    23380633.628
        47.000          41.000
  20805606.320    -1358931.55643  -1050579.84242  20805607.286    20805603.582
        56.000          49.000
  22868251.463        4796.75543      5427.65542  22868253.476    22868252.967
        50.000          43.000
  20937820.314    18655163.05643  14539885.14842  20937820.478    20937819.344
        56.000          49.000
  22842579.329    14766420.51043  11517087.26242  22842579.578    22842577.486
        49.000          42.000
 03  6 25 16  5  0.0000000  0 11G 6G16G30G10G26G18G23G21G29G17G15
  20414144.589      409422.15144    322222.79842  20414146.078    20414143.763
        57.000          50.000
  23417996.661    -2597880.98843  -2019538.11042  23417997.794    23417996.216
        48.000          41.000
  24606623.884     4207027.49443   3274264.70642  24606624.329    24606629.202
        42.000          37.000
  24511026.161     3576106.83243   2777172.87542  24511025.458    24511027.356
        45.000          38.000
  21615013.134    -1489630.40543  -1147886.02042  21615014.363    21615013.383
        52.000          46.000
  21403125.960    -4094652.26143  -3177442.41442  21403127.274    21403124.477
        55.000          48.000
  23369510.275    -4540495.02143  -3520391.45042  23369510.416    23369512.697
        47.000          41.000
  20803259.748    -1371262.03443  -1060188.01942  20803260.927    20803257.082
        56.000          49.000
  22870810.121       18245.90943     15907.52642  22870811.265    22870811.702
        49.000          43.000
  20939096.501    18661868.58943  14545110.21442  20939097.264    20939095.692
        55.000          49.000
  22834123.972    14721988.42943  11482464.86442  22834123.731    22834123.259
        49.000          42.000
 03  6 25 16  5 20.0000000  0 11G 6G16G30G10G26G18G23G21G29G17G15
  20417716.956      428195.36344    336851.26342  20417718.495    20417716.094
        57.000          50.000
  23414680.251    -2615309.73943  -2033118.98742  23414682.538    23414678.946
        48.000          41.000
  24619423.405     4274294.76043   3326680.65642  24619423.712    24619426.485
        42.000          37.000
  24524415.512     3646468.64243   2832000.23342  24524415.034    24524415.806
        44.000          37.000
  21611466.680    -1508265.49743  -1162406.84842  21611467.505    21611467.060
        52.000          46.000
  21394898.953    -4137884.96243  -3211130.20942  21394900.222    21394897.733
        55.000          48.000
  23358410.447    -4598823.76443  -3565842.37542  23358412.387    23358411.238
        47.000          41.000
  20800928.305    -1383514.49343  -1069735.39842  20800929.303    20800925.835
        56.000          49.000
  22873415.138       31932.60543     26572.49442  22873416.373    22873416.139
        49.000          43.000
  20940385.619    18668643.73243  14550389.52542  20940386.333    20940384.768
        56.000          49.000
  22825675.758    14677593.60043  11447871.50942  22825676.267    22825676.576
        49.000          42.000
 03  6 25 16  5 40.0000000  0 11G 6G16G30G10G26G18G23G21G29G17G15
  20421331.043      447187.85044    351650.58342  20421332.647    20421330.498
        57.000          50.000
  23411409.268    -2632498.79843  -2046513.07042  23411410.259    23411407.423
        48.000          41.000
  24632217.881     4341521.75443   3379065.22442  24632220.041    24632219.783
        44.000          37.000
  24537806.553     3716840.15143   2886835.15142  24537807.988    24537809.296
        44.000          38.000
  21607972.218    -1526626.88143  -1176714.39642  21607974.052    21607973.575
        52.000          46.000
  21386705.609    -4180940.69043  -3244680.10442  21386707.160    21386704.007
        55.000          48.000
  23347333.978    -4657031.77443  -3611199.20542  23347335.086    23347334.707
        47.000          41.000
  20798612.634    -1395683.52443  -1079217.77442  20798613.770    20798610.141
        56.000          49.000
  22876065.261       45861.51143     37426.19642  22876066.527    22876065.655
        50.000          43.000
  20941689.149    18675493.59043  14555727.05742  20941689.879    20941688.358
        56.000          49.000
  22817236.023    14633240.98743  11413311.03942  22817236.082    22817235.566
        49.000          42.000
 03  6 25 16  6  0.0000000  0 11G 6G16G30G10G26G18G23G21G29G17G15
  20424986.081      466394.96844    366617.14842  20424987.583    20424985.083
        57.000          50.000
  23408183.088    -2649452.75043  -2059723.97042  23408183.436    23408181.887
        48.000          41.000
  24645001.927     4408703.18843   3431414.29842  24645006.338    24645005.890
        45.000          37.000
  24551198.920     3787216.01943   2941673.45442  24551201.068    24551199.988
        45.000          38.000
  21604529.752    -1544718.77343  -1190811.95542  21604531.825    21604530.497
        52.000          46.000
  21378545.316    -4223823.75243  -3278095.45842  21378546.818    21378543.945
        56.000          48.000
  23336279.023    -4715123.32443  -3656465.30242  23336281.801    23336281.113
        47.000          41.000
  20796311.926    -1407773.67143  -1088638.67542  20796312.899    20796309.010
        56.000          49.000
  22878760.688       60027.82143     48464.89242  22878762.943    22878761.396
        49.000          43.000
  20943006.095    18682413.52843  14561119.20042  20943006.579    20943004.955
        55.000          49.000
  22808803.106    14588925.89743  11378779.81142  22808804.064    22808802.338
        49.000          42.000
 03  6 25 16  6 20.0000000  0 11G 6G16G30G10G26G18G23G21G29G17G15
  20428682.405      485818.83144    381752.60442  20428683.935    20428681.117
        57.000          50.000
  23405001.781    -2666169.31743  -2072749.88142  23405003.306    23405001.652
        48.000          41.000
  24657777.146     4475840.26543   3483728.81542  24657780.145    24657780.663
        44.000          37.000
  24564592.731     3857597.78843   2996516.37142  24564591.390    24564593.906
        45.000          38.000
  21601138.702    -1562538.61343  -1204697.52442  21601141.068    21601139.110
        52.000          46.000
  21370418.189    -4266531.85043  -3311374.47642  21370419.762    21370416.473
        55.000          48.000
  23325247.550    -4773095.86343  -3701638.66742  23325247.100    23325249.297
        47.000          41.000
  20794026.522    -1419783.65643  -1097997.11742  20794027.598    20794023.983
        56.000          49.000
  22881502.775       74433.53343     59690.12842  22881504.082    22881502.234
        49.000          43.000
  20944336.605    18689405.47843  14566567.45542  20944337.339    20944335.277
        56.000          49.000
  22800377.802    14544650.39443  11344279.42742  22800380.028    22800378.555
        49.000          43.000
 03  6 25 16  6 40.0000000  0 11G 6G16G30G10G26G18G23G21G29G17G15
  20432420.571      505462.65344    397059.46042  20432421.868    20432419.401
        57.000          50.000
  23401866.349    -2682645.14143  -2085588.19842  23401868.532    23401863.874
        48.000          41.000
  24670548.210     4542935.61643   3536010.80542  24670552.275    24670549.354
        45.000          37.000
  24577986.969     3927988.08943   3051365.92842  24577987.838    24577989.877
        45.000          38.000
  21597800.352    -1580082.58043  -1218368.12642  21597801.693    21597801.297
        52.000          46.000
  21362325.164    -4309061.51043  -3344514.44842  21362326.597    21362323.551
        55.000          48.000
  23314238.560    -4830945.77043  -3746716.47242  23314240.143    23314239.920
        48.000          41.000
  20791756.887    -1431710.02643  -1107290.40042  20791757.862    20791754.262
        56.000          49.000
  22884290.107       89081.89843     71104.44742  22884291.643    22884290.606
        50.000          43.000
  20945681.283    18696472.70843  14572074.37242  20945682.278    20945680.038
        55.000          49.000
  22791960.487    14500417.83543  11309812.50042  22791960.794    22791960.275
        49.000          42.000
 03  6 25 16  7  0.0000000  0 11G 6G16G30G10G26G18G23G21G29G17G15
  20436199.337      525319.85844    412532.58642  20436200.699    20436198.226
        57.000          50.000
  23398775.735    -2698886.70643  -2098243.97142  23398777.037    23398774.882
        47.000          41.000
  24683305.205     4609981.86343   3588254.54542  24683308.844    24683307.953
        45.000          37.000
  24591381.665     3998379.66443   3106216.46242  24591382.920    24591383.608
        45.000          38.000
  21594513.011    -1597356.81243  -1231828.54742  21594514.460    21594513.928
        52.000          46.000
  21354264.798    -4351419.15143  -3377520.37842  21354265.958    21354263.086
        55.000          48.000
  23303252.655    -4888679.23043  -3791703.53842  23303253.709    23303254.218
        47.000          41.000
  20789502.292    -1443559.12243  -1116523.47042  20789503.071    20789499.476
        56.000          49.000
  22887122.343      103966.05443     82702.50542  22887124.318    22887123.590
        49.000          43.000
  20947039.274    18703608.65743  14577634.83642  20947040.094    20947038.495
        55.000          49.000
  22783550.366    14456221.56943  11275373.86142  22783551.572    22783550.998
        49.000          42.000
 03  6 25 16  7 20.0000000  0 11G 6G16G30G10G26G18G23G21G29G17G15
  20440019.150      545393.24844    428174.17142  20440020.821    20440018.112
        57.000          50.000
  23395730.736    -2714891.17043  -2110714.99142  23395733.004    23395729.636
        48.000          41.000
  24696055.195     4676980.86143   3640461.46142  24696057.133    24696056.601
        45.000          37.000
  24604777.231     4068774.63843   3161069.67342  24604779.489    24604778.661
        44.000          37.000
  21591277.547    -1614358.03543  -1245076.23742  21591279.764    21591278.939
        52.000          46.000
  21346237.604    -4393601.69343  -3410389.86942  21346238.764    21346235.703
        55.000          48.000
  23292289.272    -4946293.10543  -3836597.41542  23292290.577    23292290.098
        48.000          41.000
  20787262.424    -1455327.81943  -1125693.89042  20787263.804    20787259.686
        56.000          49.000
  22890000.189      119088.77543     94486.44142  22890002.171    22890001.724
        49.000          43.000
  20948410.894    18710816.29843  14583251.15642  20948411.366    20948409.670
        55.000          49.000
  22775147.676    14412064.49743  11240965.76142  22775148.217    22775146.942
        49.000          42.000
 03  6 25 16  7 40.0000000  0 11G 6G16G30G10G26G18G23G21G29G17G15
  20443880.687      565685.21544    443986.06742  20443882.236    20443879.567
        57.000          50.000
  23392730.759    -2730656.02143  -2122999.31242  23392731.283    23392730.363
        48.000          41.000
  24708797.323     4743934.49543   3692633.03742  24708797.886    24708800.073
        43.000          37.000
  24618173.643     4139174.93543   3215927.03642  24618175.799    24618174.052
        44.000          37.000
  21588094.961    -1631083.34843  -1258108.93342  21588096.734    21588095.881
        52.000          46.000
  21338244.346    -4435606.41943  -3443120.80042  21338245.627    21338242.812
        56.000          48.000
  23281348.803    -5003784.60243  -3881395.92742  23281350.395    23281350.073
        47.000          41.000
  20785038.963    -1467013.89043  -1134799.92342  20785039.923    20785036.400
        56.000          49.000
  22892924.113      134452.13943    106457.90442  22892925.266    22892924.253
        50.000          43.000
  20949796.432    18718097.75843  14588925.00542  20949796.806    20949795.403
        55.000          49.000
  22766752.712    14367948.99743  11206590.05642  22766753.288    22766751.759
        49.000          42.000
 03  6 25 16  8  0.0000000  0 11G 6G16G30G10G26G18G23G21G29G17G15
  20447782.728      586190.80444    459964.41342  20447784.399    20447781.633
        57.000          50.000
  23389774.612    -2746185.97843  -2135100.58842  23389776.438    23389773.500
        47.000          41.000
  24721528.315     4810836.96543   3744764.73342  24721530.377    24721530.184
        45.000          37.000
  24631570.880     4209575.00543   3270784.24442  24631572.907    24631573.835
        44.000          37.000
  21584964.150    -1647537.22943  -1270930.12142  21584966.252    21584964.973
        53.000          46.000
  21330283.957    -4477438.04543  -3475716.84842  21330285.205    21330282.598
        55.000          48.000
  23270430.838    -5061158.32843  -3926102.67542  23270432.077    23270432.101
        48.000          41.000
  20782829.854    -1478622.42943  -1143845.54542  20782831.325    20782827.479
        56.000          49.000
  22895892.203      150051.18043    118613.00442  22895893.987    22895892.808
        49.000          43.000
  20951195.245    18725448.17043  14594652.58142  20951196.081    20951194.382
        55.000          49.000
  22758364.588    14323870.04343  11172242.82742  22758365.190    22758365.526
        49.000          42.000
 03  6 25 16  8 20.0000000  0 11G 6G16G30G10G26G18G23G21G29G17G15
  20451727.113      606918.69844    476116.00442  20451728.704    20451725.971
        57.000          50.000
  23386865.973    -2761472.40443  -2147012.10742  23386867.411    23386866.080
        47.000          41.000
  24734250.952     4877696.18743   3796862.74542  24734251.196    24734252.659
        44.000          37.000
  24644969.019     4279982.89343   3325647.51042  24644970.507    24644970.516
        44.000          38.000
  21581886.274    -1663710.55143  -1283532.69142  21581888.272    21581886.562
        53.000          46.000
  21322358.352    -4519087.67643  -3508171.08142  21322359.768    21322356.667
        55.000          48.000
  23259536.764    -5118405.27843  -3970710.62642  23259537.780    23259538.184
        47.000          41.000
  20780637.361    -1490144.97243  -1152824.15542  20780638.358    20780634.464
        56.000          49.000
  22898907.063      165894.33943    130958.32942  22898909.404    22898907.895
        49.000          43.000
  20952608.724    18732876.33343  14600440.74542  20952609.398    20952608.052
        56.000          49.000
  22749985.229    14279836.24143  11137930.79042  22749985.760    22749985.380
        49.000          43.000
 03  6 25 16  8 40.0000000  0 11G 6G16G30G10G26G18G23G21G29G17G15
  20455712.072      627860.10044    492433.96242  20455713.821    20455711.080
        57.000          50.000
  23384002.165    -2776523.92443  -2158740.57342  23384003.986    23384000.648
        47.000          41.000
  24746963.544     4944502.67343   3848919.65642  24746965.889    24746965.759
        44.000          37.000
  24658367.478     4350389.31443   3380509.62642  24658368.994    24658368.563
        45.000          38.000
  21578860.408    -1679611.57243  -1295923.07042  21578862.342    21578860.653
        52.000          46.000
  21314465.678    -4560564.05143  -3540490.31042  21314466.931    21314464.152
        55.000          48.000
  23248665.656    -5175533.70643  -4015226.23542  23248666.989    23248668.184
        48.000          41.000
  20778459.398    -1501589.90343  -1161742.29242  20778460.506    20778456.961
        56.000          49.000
  22901966.747      181972.75743    143486.97242  22901968.716    22901967.300
        49.000          43.000
  20954035.597    18740373.32443  14606282.53942  20954036.232    20954034.527
        55.000          49.000
  22741612.923    14235839.04443  11103647.26742  22741614.107    22741612.711
        49.000          43.000
 03  6 25 16  9  0.0000000  0 11G 6G16G30G10G26G18G23G21G29G17G15
  20459738.196      649016.53744    508919.47242  20459739.541    20459737.056
        57.000          50.000
  23381183.156    -2791338.91343  -2170284.73642  23381183.756    23381180.923
        47.000          41.000
  24759667.044     5011257.37543   3900936.21142  24759670.971    24759668.782
        45.000          37.000
  24671766.186     4420795.15943   3435371.29942  24671766.961    24671768.148
        45.000          38.000
  21575886.737    -1695238.29743  -1308099.72542  21575888.328    21575887.019
        52.000          46.000
  21306606.379    -4601865.12243  -3572672.94042  21306607.632    21306604.586
        55.000          48.000
  23237817.143    -5232541.61043  -4059647.92942  23237818.080    23237818.368
        48.000          41.000
  20776296.578    -1512955.49643  -1170598.60842  20776297.727    20776293.891
        56.000          49.000
  22905071.335      198288.04543    156200.18442  22905074.284    22905071.939
        49.000          43.000
  20955475.509    18747940.92643  14612179.35242  20955476.215    20955474.577
        55.000          49.000
  22733247.696    14191879.89243  11069393.39842  22733247.209    22733247.594
        49.000          43.000
 03  6 25 16  9 20.0000000  0 11G 6G16G30G10G26G18G23G21G29G17G15
  20463805.789      670391.86344    525575.55542  20463807.013    20463804.647
        57.000          50.000
  23378409.841    -2805913.42043  -2181641.50742  23378410.755    23378407.521
        48.000          41.000
  24772357.735     5077963.37643   3952914.82842  24772360.041    24772362.010
        44.000          36.000
  24685163.332     4491203.78343   3490235.14642  24685164.697    24685166.401
        44.000          38.000
  21572966.186    -1710586.37943  -1320059.24942  21572967.048    21572966.549
        52.000          46.000
  21298781.193    -4642986.89943  -3604715.85542  21298782.299    21298779.262
        56.000          48.000
  23226992.915    -5289424.73643  -4103972.38242  23226994.524    23226995.464
        48.000          41.000
  20774149.508    -1524238.66243  -1179390.69542  20774150.653    20774146.832
        56.000          49.000
  22908221.467      214843.60843    169100.62542  22908223.910    22908222.150
        50.000          43.000
  20956929.837    18755583.16443  14618134.32642  20956930.664    20956928.820
        55.000          49.000
  22724890.575    14147962.75043  11035172.26542  22724891.237    22724891.063
        49.000          43.000
 03  6 25 16  9 40.0000000  0 11G 6G16G30G10G26G18G23G21G29G17G15
  20467914.363      691982.97644    542399.78142  20467915.888    20467913.359
        57.000          50.000
  23375680.936    -2820250.45143  -2192813.23642  23375681.091    23375679.327
        48.000          40.000
  24785044.462     5144616.69143   4004852.39342  24785047.990    24785046.304
        44.000          36.000
  24698561.570     4561611.51243   3545098.30142  24698563.242    24698564.229
        43.000          37.000
  21570098.191    -1725658.34543  -1331803.61742  21570100.065    21570098.400
        53.000          46.000
  21290989.296    -4683932.10543  -3636621.18142  21290990.968    21290987.564
        56.000          48.000
  23216191.355    -5346185.84943  -4148201.76342  23216192.660    23216192.744
        48.000          41.000
  20772017.630    -1535441.42644  -1188120.13342  20772018.768    20772015.016
        57.000          49.000
  22911417.023      231636.55543    182186.04342  22911417.762    22911418.412
        49.000          43.000
  20958397.760    18763296.78543  14624144.92442  20958398.528    20958396.947
        55.000          49.000
  22716540.693    14104084.48343  11000981.41642  22716541.500    22716541.596
        50.000          43.000
 03  6 25 16 10  0.0000000  0 10G 6G16G10G26G18G23G21G29G17G15
  20472066.761      713803.44844    559402.73742  20472068.389    20472065.900
        57.000          50.000
  23373000.692    -2834336.43543  -2203789.34242  23373000.776    23372999.432
        47.000          41.000
  24711961.466     4632031.21043   3599970.78142  24711964.252    24711962.457
        42.000          37.000
  21567285.164    -1740440.16543  -1343321.89842  21567287.579    21567285.973
        53.000          46.000
  21283234.061    -4724687.04143  -3668378.25342  21283235.253    21283232.328
        56.000          48.000
  23205415.946    -5402810.97043  -4192325.18442  23205417.955    23205417.014
        48.000          41.000
  20769903.823    -1546550.37543  -1196776.47042  20769904.793    20769901.163
        56.000          49.000
  22914660.958      248680.09243    195466.72442  22914660.982    22914661.049
        50.000          43.000
  20959881.653    18771095.49743  14630221.82442  20959882.614    20959881.028
        55.000          49.000
  22708200.937    14060258.79643  10966831.54042  22708201.880    22708200.360
        49.000          43.000
 03  6 25 16 10 20.0000000  0  9G 6G16G26G18G23G21G29G17G15
  20476260.435      735841.60744    576575.31142  20476262.047    20476259.705
        57.000          50.000
  23370366.159    -2848183.05943  -2214578.92742  23370366.531    23370364.052
        48.000          41.000
  21564525.073    -1754943.24443  -1354622.97342  21564526.727    21564525.546
        52.000          46.000
  21275512.646    -4765263.24743  -3699996.05742  21275513.564    21275511.324
        56.000          48.000
  23194664.208    -5459311.38743  -4236351.42742  23194664.832    23194664.759
        48.000          41.000
  20767805.356    -1557577.15743  -1205368.78242  20767806.573    20767802.798
        56.000          49.000
  22917949.430      265962.17643    208933.29242  22917951.222    22917949.287
        49.000          43.000
  20961379.665    18778967.41643  14636355.76442  20961380.648    20961379.007
        55.000          49.000
  22699868.706    14016474.01143  10932713.53842  22699870.124    22699870.618
        49.000          43.000
 03  6 25 16 10 40.0000000  0  9G 6G16G26G18G23G21G29G17G15
  20480492.866      758083.08544    593906.31742  20480494.429    20480491.825
        57.000          50.000
  23367773.542    -2861804.30943  -2225192.90042  23367775.976    23367773.126
        48.000          41.000
  21561815.655    -1769181.23943  -1365717.49742  21561817.432    21561815.985
        53.000          46.000
  21267822.593    -4805674.65543  -3731485.44642  21267823.879    21267820.687
        56.000          48.000
  23183933.722    -5515700.98143  -4280291.31442  23183935.503    23183936.609
        48.000          41.000
  20765720.029    -1568535.80443  -1213908.00342  20765720.978    20765717.395
        56.000          49.000
  22921280.410      283468.74943    222574.78242  22921282.765    22921281.052
        49.000          43.000
  20962889.090    18786898.44943  14642535.77342  20962889.695    20962888.143
        55.000          49.000
  22691541.861    13972715.87943  10898616.29542  22691542.354    22691543.102
        49.000          43.000
 03  6 25 16 11  0.0000000  0  9G 6G16G26G18G23G21G29G17G15
  20484766.227      780539.96844    611405.17342  20484767.774    20484765.050
        57.000          50.000
  23365226.823    -2875187.98143  -2235621.75042  23365227.938    23365225.293
        47.000          41.000
  21559159.118    -1783141.75643  -1376595.79642  21559161.221    21559159.293
        52.000          46.000
  21260166.217    -4845908.88943  -3762836.78142  21260167.763    21260164.537
        56.000          48.000
  23173226.784    -5571967.33743  -4324135.17242  23173228.931    23173226.817
        48.000          41.000
  20763649.935    -1579414.33443  -1222384.79642  20763651.013    20763647.043
        56.000          49.000
  22924657.250      301211.49643    236400.30642  22924658.320    22924657.723
        49.000          43.000
  20964411.918    18794900.87043  14648771.40742  20964412.301    20964410.713
        55.000          49.000
  22683222.633    13928996.65243  10864549.39142  22683223.432    22683222.250
        49.000          43.000
 03  6 25 16 11 20.0000000  0  9G 6G16G26G18G23G21G29G17G15
  20489081.002      803214.16044    629073.36142  20489082.304    20489079.940
        57.000          50.000
  23362727.286    -2888332.27043  -2245864.07142  23362727.645    23362724.335
        48.000          40.000
  21556555.414    -1796822.28343  -1387255.92742  21556557.393    21556555.947
        52.000          46.000
  21252544.080    -4885963.75643  -3794048.34642  21252545.111    21252542.406
        56.000          48.000
  23162543.431    -5628108.11743  -4367881.17742  23162544.071    23162545.083
        48.000          41.000
  20761595.393    -1590210.96443  -1230797.77042  20761596.341    20761592.719
        56.000          49.000
  22928078.986      319192.30743    250411.32942  22928081.248    22928079.510
        50.000          43.000
  20965948.644    18802976.61143  14655064.17242  20965949.280    20965947.494
        55.000          49.000
  22674911.020    13885318.10843  10830514.16442  22674910.898    22674911.019
        49.000          43.000
 03  6 25 16 11 40.0000000  0  9G 6G16G26G18G23G21G29G17G15
  20493437.325      826106.69244    646911.68442  20493438.997    20493436.501
        57.000          50.000
  23360270.654    -2901235.93343  -2255918.89542  23360271.297    23360270.910
        48.000          41.000
  21554006.095    -1810221.30243  -1397696.70242  21554008.022    21554006.499
        53.000          46.000
  21244956.185    -4925838.05143  -3825119.20842  21244957.896    21244954.579
        56.000          48.000
  23151884.184    -5684121.88643  -4411528.21142  23151884.772    23151885.946
        48.000          41.000
  20759556.747    -1600924.31943  -1239145.85842  20759557.815    20759553.898
        56.000          49.000
  22931545.633      337412.07843    264608.55942  22931547.563    22931546.726
        50.000          43.000
  20967499.590    18811126.59343  14661414.78942  20967500.292    20967498.357
        55.000          49.000
  22666607.086    13841681.37543  10796511.52842  22666606.892    22666605.990
        50.000          43.000
 03  6 25 16 12  0.0000000  0  9G 6G16G26G18G23G21G29G17G15
  20497834.171      849211.97044    664915.78442  20497835.841    20497833.121
        57.000          50.000
  23357859.496    -2913904.51943  -2265790.53742  23357860.635    23357859.746
        47.000          41.000
  21551508.784    -1823344.08743  -1407922.22742  21551510.332    21551509.128
        52.000          46.000
  21237401.744    -4965537.11543  -3856053.52342  21237403.340    21237399.818
        56.000          48.000
  23141248.159    -5740013.83343  -4455080.31842  23141248.256    23141249.505
        48.000          41.000
  20757532.881    -1611560.02843  -1247433.44042  20757534.057    20757530.343
        56.000          49.000
  22935056.731      355864.93443    278987.39642  22935058.724    22935058.993
        50.000          43.000
  20969063.381    18819345.41643  14667819.04842  20969064.350    20969062.196
        55.000          49.000
  22658310.207    13798080.83443  10762537.10542  22658311.412    22658310.780
        49.000          43.000
 03  6 25 16 12 20.0000000  0  9G 6G16G26G18G23G21G29G17G15
  20502272.841      872537.03644    683091.14842  20502274.355    20502271.754
        57.000          50.000
  23355495.153    -2926330.91043  -2275473.45142  23355496.655    23355494.343
        48.000          40.000
  21549065.616    -1836183.17443  -1417926.68642  21549067.642    21549065.728
        53.000          46.000
  21229881.991    -5005053.56843  -3886845.54142  21229883.412    21229880.486
        56.000          48.000
  23130636.770    -5795776.55743  -4498531.74142  23130636.387    23130638.450
        48.000          41.000
  20755524.985    -1622110.91843  -1255654.92742  20755526.312    20755522.207
        56.000          49.000
  22938614.663      374557.81943    293553.28942  22938615.985    22938614.805
        50.000          43.000
  20970642.038    18827640.31843  14674282.58942  20970642.918    20970640.994
        55.000          49.000
  22650021.381    13754523.69743  10728596.48642  22650022.645    22650021.187
        49.000          43.000
 03  6 25 16 12 40.0000000  0  9G 6G16G26G18G23G21G29G17G15
  20506752.339      896077.86644    701434.64042  20506753.773    20506751.512
        57.000          50.000
  23353175.376    -2938519.06543  -2284970.73642  23353176.647    23353176.652
        48.000          41.000
  21546675.675    -1848742.09443  -1427712.83342  21546677.630    21546675.985
        53.000          46.000
  21222396.199    -5044391.30343  -3917498.30142  21222397.551    21222394.523
        56.000          48.000
  23120049.704    -5851413.72243  -4541885.30942  23120050.085    23120051.187
        48.000          41.000
  20753532.800    -1632580.85843  -1263813.34142  20753533.703    20753530.424
        56.000          49.000
  22942216.308      393486.56743    308302.95842  22942217.982    22942217.693
        50.000          43.000
  20972234.058    18836006.93843  14680802.01642  20972234.663    20972233.200
        55.000          49.000
  22641740.577    13711005.91343  10694686.53542  22641741.736    22641740.820
        50.000          43.000
 03  6 25 16 13  0.0000000  0  9G 6G16G26G18G23G21G29G17G15
  20511273.339      919834.76744    719946.50142  20511274.830    20511272.467
        57.000          50.000
  23350901.509    -2950468.50443  -2294282.00542  23350902.715    23350900.149
        48.000          41.000
  21544339.295    -1861019.87143  -1437279.91642  21544340.690    21544339.727
        52.000          46.000
  21214944.545    -5083549.54243  -3948011.19242  21214945.772    21214942.616
        56.000          48.000
  23109486.160    -5906924.37443  -4585140.30642  23109487.791    23109485.653
        48.000          41.000
  20751555.780    -1642969.38743  -1271908.31542  20751556.963    20751553.415
        56.000          49.000
  22945863.213      412651.46943    323236.63542  22945865.214    22945863.448
        49.000          43.000
  20973839.859    18844445.83343  14687377.75742  20973840.725    20973839.345
        55.000          49.000
  22633467.218    13667528.15343  10660807.76742  22633467.315    22633467.048
        50.000          43.000
 03  6 25 16 13 20.0000000  0  9G 6G16G26G18G23G21G29G17G15
  20515835.014      943807.38644    738626.45842  20515836.473    20515834.019
        57.000          50.000
  23348673.163    -2962179.53943  -2303407.50142  23348674.285    23348672.480
        48.000          41.000
  21542056.574    -1873016.45543  -1446627.87842  21542058.811    21542056.367
        52.000          46.000
  21207527.145    -5122528.54143  -3978384.41642  21207528.099    21207525.186
        56.000          48.000
  23098946.902    -5962308.53643  -4628296.74142  23098948.312    23098947.414
        48.000          41.000
  20749594.452    -1653276.62643  -1279939.94442  20749595.725    20749591.734
        56.000          49.000
  22949555.394      432051.90743    338353.85142  22949558.316    22949555.723
        49.000          43.000
  20975459.682    18852956.95243  14694009.77842  20975460.295    20975458.705
        56.000          49.000
  22625200.893    13624090.00643  10626959.86942  22625201.461    22625200.015
        49.000          43.000
 03  6 25 16 13 40.0000000  0  9G 6G16G26G18G23G21G29G17G15
  20520438.631      967999.34744    757477.32242  20520440.219    20520437.546
        57.000          50.000
  23346490.316    -2973648.33943  -2312344.24542  23346491.327    23346492.219
        48.000          41.000
  21539827.855    -1884727.94543  -1455753.69842  21539829.055    21539828.341
        53.000          46.000
  21200144.559    -5161324.26243  -4008614.82442  21200145.915    21200142.896
        56.000          49.000
  23088432.334    -6017562.12843  -4671351.43242  23088433.670    23088433.514
        48.000          41.000
  20747649.339    -1663498.84143  -1287905.32042  20747650.424    20747646.667
        56.000          49.000
  22953292.485      451691.40443    353657.35442  22953293.257    22953292.801
        49.000          43.000
  20977093.604    18861544.13443  14700701.06442  20977094.528    20977092.894
        55.000          49.000
  22616942.519    13580695.20643  10593145.75042  22616943.408    22616943.510
        49.000          43.000
 03  6 25 16 14  0.0000000  0  9G 6G16G26G18G23G21G29G17G15
  20525082.336      992401.90944    776492.29242  20525083.843    20525081.101
        57.000          50.000
  23344352.771    -2984883.59343  -2321099.01042  23344353.644    23344350.386
        48.000          41.000
  21537652.060    -1896162.44943  -1464663.68442  21537653.947    21537652.212
        53.000          46.000
  21192795.167    -5199945.31343  -4038709.12542  21192796.453    21192793.724
        56.000          49.000
  23077941.110    -6072693.50843  -4714310.89542  23077942.523    23077941.549
        48.000          41.000
  20745718.635    -1673644.66543  -1295811.17442  20745719.686    20745715.863
        56.000          49.000
  22957073.436      471561.17243    369140.29142  22957074.803    22957074.206
        50.000          43.000
  20978740.626    18870198.76743  14707444.91442  20978740.814    20978739.396
        55.000          49.000
  22608691.645    13537335.11443  10559358.68642  22608692.735    22608690.985
        50.000          43.000
 03  6 25 16 14 20.0000000  0  9G 6G16G26G18G23G21G29G17G15
  20529768.071     1017025.35144    795679.37442  20529769.647    20529767.064
        57.000          50.000
  23342261.825    -2995874.89243  -2329663.68342  23342262.785    23342260.032
        48.000          41.000
  21535531.038    -1907309.21543  -1473349.45742  21535532.768    21535531.073
        53.000          46.000
  21185481.088    -5238381.09043  -4068659.05942  21185482.401    21185479.148
        56.000          49.000
  23067475.121    -6127692.01243  -4757166.80342  23067476.533    23067476.630
        48.000          41.000
  20743804.410    -1683703.65243  -1303649.35742  20743805.514    20743802.078
        56.000          49.000
  22960899.867      491671.21943    384810.45542  22960901.167    22960901.149
        49.000          43.000
  20980402.532    18878931.24543  14714249.41942  20980403.178    20980401.412
        55.000          49.000
  22600448.838    13494020.10343  10525606.72942  22600450.760    22600449.682
        50.000          43.000
 03  6 25 16 14 40.0000000  0  9G 6G16G26G18G23G21G29G17G15
  20534494.495     1041863.30644    815033.61242  20534496.003    20534493.617
        57.000          50.000
  23340215.237    -3006628.64343  -2338043.25242  23340217.413    23340213.952
        48.000          41.000
  21533462.849    -1918174.37343  -1481815.79942  21533464.954    21533463.439
        53.000          46.000
  21178201.168    -5276637.72043  -4098469.39542  21178202.700    21178199.263
        56.000          49.000
  23057033.298    -6182563.52043  -4799923.77342  23057035.142    23057034.282
        49.000          41.000
  20741905.632    -1693681.99343  -1311424.70242  20741906.907    20741903.148
        56.000          49.000
  22964771.353      512015.06643    400662.79442  22964773.974    22964772.505
        49.000          42.000
  20982077.709    18887735.21743  14721109.63642  20982078.713    20982077.153
        55.000          49.000
  22592213.815    13450743.88543  10491885.00642  22592215.343    22592214.709
        49.000          43.000
 03  6 25 16 15  0.0000000  0  9G 6G16G26G18G23G21G29G17G15
  20539262.060     1066917.50644    834556.35042  20539263.820    20539261.529
        57.000          50.000
  23338214.402    -3017143.05843  -2346236.32742  23338214.850    23338211.807
        48.000          40.000
  21531449.752    -1928755.61443  -1490060.90042  21531451.730    21531450.258
        53.000          46.000
  21170955.564    -5314713.31343  -4128138.66542  21170956.670    21170953.803
        56.000          49.000
  23046616.152    -6237306.00043  -4842580.19842  23046617.936    23046618.855
        49.000          41.000
  20740022.577    -1703578.40943  -1319136.21142  20740023.557    20740020.052
        56.000          49.000
  22968687.997      532594.25443    416698.52542  22968690.401    22968688.108
        49.000          43.000
  20983767.119    18896612.24443  14728026.77842  20983767.567    20983766.332
        55.000          49.000
  22583986.423    13407508.24343  10458194.90442  22583986.400    22583987.338
        50.000          43.000
 03  6 25 16 15 20.0000000  0  9G 6G16G26G18G23G21G29G17G15
  20544071.033     1092187.70544    854247.39442  20544072.598    20544070.046
        57.000          50.000
  23336258.703    -3027418.31143  -2354243.06542  23336260.114    23336256.850
        48.000          41.000
  21529490.346    -1939052.80943  -1498084.67742  21529492.388    21529491.258
        53.000          46.000
  21163744.350    -5352607.76043  -4157666.78342  21163746.003    21163742.649
        56.000          49.000
  23036223.667    -6291919.24143  -4885135.90942  23036225.123    23036226.412
        48.000          41.000
  20738155.059    -1713392.57243  -1326783.62142  20738155.956    20738152.218
        56.000          49.000
  22972648.476      553408.29443    432917.24742  22972650.041    22972649.215
        49.000          42.000
  20985470.157    18905562.21943  14735000.76742  20985471.006    20985469.399
        55.000          49.000
  22575766.357    13364313.24243  10424536.47042  22575768.662    22575767.435
        50.000          43.000
 03  6 25 16 15 40.0000000  0  9G 6G16G26G18G23G21G29G17G15
  20548920.892     1117674.66844    874107.34642  20548922.400    20548920.108
        57.000          50.000
  23334348.745    -3037453.41243  -2362062.61842  23334350.083    23334348.316
        47.000          41.000
  21527584.998    -1949064.70043  -1505886.13642  21527586.662    21527585.295
        54.000          46.000
  21156568.029    -5390319.98643  -4187052.91642  21156569.289    21156566.051
        56.000          49.000
  23025856.042    -6346401.98943  -4927589.92742  23025857.723    23025859.206
        48.000          41.000
  20736303.261    -1723123.46243  -1334366.14342  20736304.463    20736300.427
        56.000          49.000
  22976653.595      574458.00343    449319.61742  22976656.782    22976656.186
        49.000          42.000
  20987187.467    18914586.53543  14742032.68742  20987188.047    20987186.784
        55.000          49.000
  22567554.879    13321159.72543  10390910.36442  22567555.497    22567554.480
        50.000          43.000
 03  6 25 16 16  0.0000000  0  9G 6G16G26G18G23G21G29G17G15
  20553811.754     1143375.72844    894134.12442  20553813.321    20553811.152
        57.000          50.000
  23332484.797    -3047250.87743  -2369697.02742  23332486.305    23332484.972
        48.000          41.000
  21525733.137    -1958793.44943  -1513466.95842  21525735.117    21525733.033
        53.000          46.000
  21149425.934    -5427852.22343  -4216298.80542  21149427.683    21149424.158
        56.000          49.000
  23015512.555    -6400756.47243  -4969944.00742  23015514.147    23015513.899
        48.000          41.000
  20734467.004    -1732773.57344  -1341885.72242  20734467.774    20734464.525
        57.000          49.000
  22980703.829      595740.47543    465903.34942  22980708.003    22980704.141
        49.000          42.000
  20988918.541    18923682.54343  14749120.46242  20988918.850    20988917.549
        55.000          49.000
  22559350.612    13278045.07843  10357314.54942  22559349.956    22559350.687
        50.000          43.000
 03  6 25 16 16 20.0000000  0  9G 6G16G26G18G23G21G29G17G15
  20558743.336     1169292.15844    914328.72542  20558744.958    20558742.432
        57.000          50.000
  23330666.208    -3056809.45143  -2377145.30042  23330666.046    23330666.408
        48.000          41.000
  21523936.375    -1968237.38343  -1520825.86242  21523938.744    21523936.714
        53.000          46.000
  21142318.320    -5465203.08443  -4245403.36442  21142319.548    21142316.527
        56.000          49.000
  23005193.841    -6454980.92943  -5012196.76842  23005195.282    23005195.456
        48.000          42.000
  20732646.224    -1742341.19443  -1349341.02342  20732647.436    20732643.726
        56.000          49.000
  22984798.407      617256.89943    482669.38842  22984801.687    22984798.983
        49.000          43.000
  20990663.381    18932851.64743  14756265.19842  20990663.972    20990662.526
        55.000          49.000
  22551153.511    13234970.76743  10323750.15742  22551155.207    22551155.383
        50.000          43.000
 03  6 25 16 16 40.0000000  0  9G 6G16G26G18G23G21G29G17G15
  20563716.445     1195424.88144    934691.86542  20563718.368    20563715.429
        57.000          50.000
  23328892.333    -3066128.31243  -2384406.76242  23328895.897    23328892.609
        48.000          41.000
  21522193.967    -1977395.22843  -1527961.84142  21522195.901    21522194.036
        53.000          46.000
  21135245.430    -5502371.35643  -4274365.63942  21135246.659    21135243.613
        56.000          49.000
  22994900.438    -6509074.07543  -5054347.21742  22994902.105    22994901.580
        48.000          42.000
  20730841.460    -1751825.62443  -1356731.49442  20730842.502    20730838.751
        56.000          49.000
  22988938.114      639008.03443    499618.31542  22988939.006    22988938.579
        49.000          43.000
  20992422.289    18942094.79043  14763467.62542  20992423.273    20992421.449
        55.000          49.000
  22542965.013    13191937.84443  10290218.02142  22542964.761    22542965.466
        50.000          43.000
 03  6 25 16 17  0.0000000  0  9G 6G16G26G18G23G21G29G17G15
  20568729.854     1221770.44244    955220.84842  20568731.383    20568729.068
        57.000          50.000
  23327164.391    -3075210.85043  -2391484.09742  23327165.023    23327164.297
        47.000          41.000
  21520505.080    -1986269.89343  -1534877.14442  21520506.853    21520505.559
        53.000          46.000
  21128206.519    -5539360.33143  -4303188.19942  21128208.038    21128204.882
        56.000          49.000
  22984631.083    -6563039.05143  -5096397.78042  22984632.708    22984632.362
        49.000          42.000
  20729051.823    -1761230.08443  -1364059.65742  20729052.625    20729049.364
        56.000          49.000
  22993120.731      660990.20343    516747.27142  22993122.087    22993120.467
        49.000          43.000
  20994194.522    18951408.79643  14770725.27242  20994195.396    20994193.849
        55.000          49.000
  22534783.266    13148942.87843  10256715.46242  22534783.898    22534782.636
        50.000          43.000
 03  6 25 16 17 20.0000000  0  9G 6G16G26G18G23G21G29G17G15
  20573785.452     1248337.69944    975922.58342  20573786.799    20573784.619
        57.000          50.000
  23325482.515    -3084047.89443  -2398370.12642  23325483.932    23325483.412
        47.000          41.000
  21518871.947    -1994852.18043  -1541564.62542  21518874.425    21518872.586
        53.000          46.000
  21121203.696    -5576160.90643  -4331863.95542  21121205.031    21121201.713
        56.000          49.000
  22974388.479    -6616866.39343  -5138341.10842  22974389.352    22974386.369
        49.000          42.000
  20727279.159    -1770545.56343  -1371318.48142  20727280.116    20727276.657
        56.000          49.000
  22997349.234      683212.16443    534063.08442  22997350.456    22997349.645
        49.000          42.000
  20995982.182    18960802.62943  14778045.12242  20995982.905    20995981.502
        55.000          49.000
  22526610.247    13105994.98343  10223249.58042  22526612.583    22526611.745
        50.000          43.000
 03  6 25 16 17 40.0000000  0  9G 6G16G26G18G23G21G29G17G15
  20578880.983     1275114.51944    996787.61742  20578882.440    20578880.374
        57.000          50.000
  23323846.015    -3092651.51543  -2405074.26742  23323846.299    23323845.691
        47.000          41.000
  21517292.147    -2003153.93843  -1548033.51642  21517293.589    21517291.577
        53.000          46.000
  21114234.400    -5612784.73343  -4360401.98542  21114235.516    21114232.455
        56.000          49.000
  22964169.235    -6670567.86643  -5180186.35942  22964171.175    22964168.680
        49.000          42.000
  20725521.122    -1779784.13543  -1378517.38342  20725522.481    20725518.759
        56.000          49.000
  23001621.143      705661.47343    551556.04242  23001622.593    23001623.464
        49.000          42.000
  20997782.520    18970263.91043  14785417.53442  20997783.604    20997781.918
        55.000          49.000
  22518444.283    13063082.16543  10189811.03942  22518445.162    22518443.995
        50.000          43.000
 03  6 25 16 18  0.0000000  0  9G 6G16G26G18G23G21G29G17G15
  20584017.711     1302108.53844   1017821.89042  20584019.219    20584016.788
        57.000          50.000
  23322254.776    -3101013.98743  -2411590.50842  23322254.154    23322253.691
        48.000          41.000
  21515767.501    -2011166.89443  -1554277.36542  21515769.062    21515767.093
        53.000          46.000
  21107300.243    -5649224.01143  -4388796.21242  21107301.494    21107298.818
        56.000          49.000
  22953975.629    -6724135.37543  -5221927.22342  22953976.836    22953976.448
        49.000          42.000
  20723779.226    -1788937.68243  -1385650.03042  20723780.296    20723776.780
        56.000          49.000
  23005937.502      728345.78443    569232.12742  23005938.702    23005939.233
        48.000          42.000
  20999597.486    18979801.01143  14792849.02042  20999598.328    20999596.625
        55.000          49.000
  22510286.663    13020212.25243  10156405.92042  22510286.825    22510284.917
        50.000          43.000
 03  6 25 16 18 20.0000000  0  9G 6G16G26G18G23G21G29G17G15
  20589195.347     1329316.57644   1039022.93542  20589196.845    20589194.462
        57.000          50.000
  23320708.306    -3109138.53143  -2417921.34242  23320708.794    23320706.231
        48.000          41.000
  21514296.869    -2018893.85243  -1560298.36442  21514299.006    21514296.732
        53.000          46.000
  21100400.670    -5685481.50543  -4417048.78942  21100401.960    21100398.845
        56.000          49.000
  22943806.608    -6777571.68043  -5263565.84242  22943807.483    22943808.173
        49.000          42.000
  20722052.957    -1798009.34743  -1392718.87542  20722053.975    20722050.469
        56.000          49.000
  23010298.326      751261.80143    587088.76042  23010301.218    23010298.796
        48.000          42.000
  21001426.360    18989410.80043  14800337.14442  21001426.954    21001425.509
        55.000          49.000
  22502136.235    12977382.24043  10123031.89742  22502136.822    22502136.951
        50.000          43.000
 03  6 25 16 18 40.0000000  0  9G 6G16G26G18G23G21G29G17G15
  20594414.120     1356741.80744   1060393.22142  20594415.738    20594413.174
        57.000          50.000
  23319207.840    -3117021.84943  -2424064.21342  23319209.260    23319208.518
        48.000          41.000
  21512881.408    -2026331.16843  -1566093.66242  21512883.239    21512882.152
        53.000          46.000
  21093536.288    -5721553.86843  -4445157.10842  21093537.685    21093534.557
        56.000          49.000
  22933663.793    -6830873.05443  -5305099.33142  22933665.921    22933665.278
        49.000          42.000
  20720342.956    -1806995.69543  -1399721.24142  20720343.916    20720340.092
        56.000          49.000
  23014704.441      774412.50343    605128.25442  23014705.935    23014704.391
        49.000          42.000
  21003269.385    18999096.38843  14807884.33342  21003270.272    21003268.768
        55.000          49.000
  22493994.144    12934595.43243  10089691.54142  22493994.904    22493994.050
        50.000          43.000
 03  6 25 16 19  0.0000000  0  9G 6G16G26G18G23G21G29G17G15
  20599673.347     1384378.25644   1081928.09342  20599674.951    20599672.382
        57.000          50.000
  23317752.539    -3124669.84843  -2430023.71542  23317754.105    23317751.999
        47.000          40.000
  21511520.466    -2033484.39943  -1571667.60042  21511522.003    21511520.695
        53.000          46.000
  21086706.096    -5757446.85543  -4473125.66042  21086707.345    21086704.088
        56.000          49.000
  22923545.556    -6884045.08843  -5346532.04042  22923548.209    22923546.728
        49.000          42.000
  20718647.863    -1815902.44743  -1406661.57842  20718649.025    20718645.697
        56.000          49.000
  23019153.221      797791.73443    623345.84042  23019154.788    23019154.099
        49.000          42.000
  21005125.790    19008852.35743  14815486.36642  21005126.653    21005125.055
        55.000          49.000
  22485859.103    12891846.06343  10056380.35542  22485860.397    22485859.373
        50.000          43.000
 03  6 25 16 19 20.0000000  0  9G 6G16G26G18G23G21G29G17G15
  20604973.635     1412232.06444   1103632.33742  20604975.237    20604972.987
        57.000          50.000
  23316343.146    -3132076.38243  -2435795.07042  23316343.641    23316341.528
        47.000          41.000
  21510214.595    -2040347.04243  -1577015.09342  21510216.300    21510214.888
        53.000          46.000
  21079911.170    -5793154.03643  -4500949.41942  21079912.450    21079909.188
        56.000          49.000
  22913452.960    -6937081.25943  -5387858.87842  22913455.529    22913452.825
        49.000          42.000
  20716969.536    -1824723.33143  -1413535.00642  20716970.546    20716966.843
        56.000          49.000
  23023646.828      821405.49443    641746.16242  23023648.065    23023648.254
        49.000          43.000
  21006996.934    19018684.92143  14823148.08342  21006997.843    21006995.796
        55.000          49.000
  22477732.981    12849140.31843  10023103.16442  22477732.325    22477731.949
        50.000          43.000
 03  6 25 16 19 40.0000000  0  9G 6G16G26G18G23G21G29G17G15
  20610314.541     1440299.04143   1125502.68342  20610316.397    20610313.653
        56.000          50.000
  23314979.212    -3139245.58943  -2441381.49542  23314981.171    23314979.070
        47.000          41.000
  21508963.389    -2046922.89243  -1582139.12342  21508964.598    21508963.572
        53.000          46.000
  21073150.884    -5828679.30543  -4528631.44142  21073152.405    21073149.098
        56.000          49.000
  22903385.570    -6989985.27043  -5429082.73842  22903387.532    22903386.990
        49.000          42.000
  20715306.670    -1833462.29243  -1420344.59842  20715307.651    20715304.030
        56.000          49.000
  23028183.974      845249.40443    660325.83342  23028186.238    23028184.484
        49.000          43.000
  21008881.866    19028590.09643  14830866.38142  21008882.692    21008881.138
        55.000          49.000
  22469613.814    12806474.22143   9989856.87142  22469614.888    22469614.027
        50.000          43.000
 03  6 25 16 20  0.0000000  0  9G 6G16G26G18G23G21G29G17G15
  20615696.624     1468581.24044   1147540.73542  20615698.124    20615695.714
        57.000          50.000
  23313660.777    -3146175.24343  -2446781.25142  23313661.415    23313660.829
        47.000          41.000
  21507766.881    -2053209.39643  -1587037.68742  21507768.045    21507767.174
        53.000          46.000
  21066425.884    -5864020.26943  -4556169.84342  21066427.138    21066423.920
        56.000          49.000
  22893343.829    -7042754.54143  -5470201.60942  22893344.233    22893343.975
        49.000          42.000
  20713659.645    -1842116.96843  -1427088.51642  20713660.756    20713657.035
        56.000          49.000
  23032765.367      869325.32443    679086.28042  23032766.796    23032766.300
        49.000          43.000
  21010780.948    19038569.90543  14838642.83442  21010781.472    21010780.111
        55.000          49.000
  22461502.777    12763850.08843   9956643.26142  22461503.323    22461502.625
        50.000          43.000
 03  6 25 16 20 20.0000000  0  9G 6G16G26G18G23G21G29G17G15
  20621119.072     1497076.49444   1169744.80242  20621120.696    20621118.533
        57.000          50.000
  23312386.848    -3152867.40743  -2451995.96342  23312387.081    23312386.162
        48.000          41.000
  21506625.334    -2059208.30143  -1591712.15042  21506626.861    21506625.504
        53.000          46.000
  21059735.246    -5899178.88943  -4583566.15642  21059736.621    21059733.568
        56.000          49.000
  22883327.852    -7095390.89543  -5511216.89742  22883328.214    22883327.725
        49.000          42.000
  20712028.419    -1850689.41843  -1433768.35642  20712029.421    20712025.520
        56.000          49.000
  23037390.235      893631.03943    698025.78242  23037392.649    23037391.322
        49.000          43.000
  21012694.156    19048622.47343  14846475.99142  21012694.741    21012693.203
        55.000          48.000
  22453398.810    12721265.73543   9923460.66242  22453399.219    22453398.442
        50.000          43.000
 03  6 25 16 20 40.0000000  0  9G 6G16G26G18G23G21G29G17G15
  20626582.382     1525786.31644   1192116.06042  20626583.845    20626581.437
        57.000          50.000
  23311159.181    -3159320.57043  -2457024.42742  23311159.957    23311157.501
        48.000          41.000
  21505538.591    -2064917.80943  -1596161.10242  21505540.370    21505538.901
        53.000          46.000
  21053079.851    -5934153.37643  -4610818.99542  21053081.415    21053078.132
        56.000          49.000
  22873336.664    -7147892.35043  -5552127.08042  22873337.913    22873337.053
        49.000          42.000
  20710413.094    -1859177.86643  -1440382.74142  20710414.111    20710410.429
        56.000          49.000
  23042060.111      918167.80743    717145.34242  23042062.004    23042061.616
        49.000          42.000
  21014620.922    19058749.54143  14854367.19842  21014621.702    21014620.379
        55.000          49.000
  22445303.349    12678723.09643   9890310.56542  22445304.864    22445304.484
        50.000          43.000
 03  6 25 16 21  0.0000000  0  9G 6G16G26G18G23G21G29G17G15
  20632086.183     1554709.44344   1214653.53142  20632087.802    20632085.487
        57.000          50.000
  23309976.564    -3165535.79643  -2461867.48942  23309977.485    23309975.091
        48.000          41.000
  21504507.133    -2070338.77743  -1600385.22142  21504508.670    21504506.956
        53.000          46.000
  21046459.366    -5968944.65343  -4637929.07642  21046460.600    21046457.408
        56.000          49.000
  22863371.414    -7200259.66743  -5592932.73542  22863373.179    22863371.498
        49.000          42.000
  20708813.531    -1867583.37243  -1446932.49442  20708814.626    20708811.108
        56.000          50.000
  23046772.920      942934.41343    736443.98942  23046774.789    23046774.882
        49.000          42.000
  21016562.432    19068950.13143  14862315.69542  21016562.874    21016561.717
        55.000          48.000
  22437215.405    12636221.11343   9857192.14342  22437216.350    22437215.973
        50.000          43.000
 03  6 25 16 21 20.0000000  0  9G 6G16G26G18G23G21G29G17G15
  20637630.859     1583846.49544   1237357.69942  20637632.577    20637630.074
        57.000          50.000
  23308838.615    -3171512.58243  -2466524.74342  23308839.818    23308838.877
        47.000          41.000
  21503530.624    -2075470.09643  -1604383.64142  21503533.321    21503530.766
        53.000          46.000
  21039873.771    -6003551.68243  -4664895.58542  21039875.189    21039872.152
        56.000          49.000
  22853431.967    -7252491.69743  -5633632.97742  22853433.364    22853431.759
        49.000          42.000
  20707230.107    -1875904.90843  -1453416.81842  20707231.104    20707227.860
        56.000          49.000
  23051529.806      967931.16443    755921.97242  23051530.959    23051531.022
        49.000          42.000
  21018517.476    19079225.14243  14870322.18142  21018518.056    21018516.624
        55.000          48.000
  22429135.474    12593760.72543   9824106.13242  22429137.069    22429136.025
        50.000          43.000
 03  6 25 16 21 40.0000000  0  9G 6G16G26G18G23G21G29G17G15
  20643216.402     1613198.34443   1260229.23942  20643218.194    20643215.587
        56.000          50.000
  23307747.801    -3177249.89843  -2470995.41142  23307750.777    23307745.283
        48.000          41.000
  21502609.474    -2080310.49543  -1608155.37542  21502611.289    21502609.785
        53.000          46.000
  21033323.624    -6037973.38743  -4691717.68242  21033324.789    21033321.762
        56.000          49.000
  22843518.642    -7304587.21343  -5674226.84442  22843519.418    22843519.532
        49.000          42.000
  20705662.763    -1884141.45843  -1459834.91842  20705664.253    20705660.216
        56.000          49.000
  23056330.437      993158.68443    775579.77442  23056332.108    23056330.769
        49.000          42.000
  21020486.997    19089575.54243  14878387.40742  21020487.833    21020486.301
        55.000          49.000
  22421063.421    12551342.79043   9791053.21142  22421065.468    22421063.687
        50.000          44.000
 03  6 25 16 22  0.0000000  0  9G 6G16G26G18G23G21G29G17G15
  20648842.581     1642764.33344   1283267.64742  20648844.208    20648842.114
        57.000          50.000
  23306700.611    -3182748.39943  -2475279.99042  23306702.148    23306699.476
        48.000          41.000
  21501743.825    -2084860.30243  -1611700.67342  21501745.363    21501743.881
        53.000          46.000
  21026808.482    -6072210.27343  -4718395.77142  21026809.823    21026807.116
        56.000          49.000
  22833631.239    -7356546.39143  -5714714.47142  22833632.091    22833632.751
        49.000          42.000
  20704111.451    -1892293.50443  -1466187.17442  20704112.424    20704108.909
        56.000          50.000
  23061174.838     1018616.47043    795417.02242  23061174.699    23061175.647
        49.000          42.000
  21022471.051    19100000.85943  14886511.01242  21022471.694    21022470.159
        55.000          49.000
  22413000.019    12508966.86643   9758033.01442  22413001.273    22412999.525
        50.000          44.000
 03  6 25 16 22 20.0000000  0  9G 6G16G26G18G23G21G29G17G15
  20654508.934     1672540.29044   1306469.66342  20654510.399    20654508.060
        57.000          50.000
  23305699.632    -3188012.15243  -2479381.64442  23305701.456    23305698.468
        48.000          41.000
  21500932.900    -2089123.25743  -1615022.44942  21500934.604    21500932.684
        53.000          46.000
  21020327.913    -6106266.25743  -4744932.89842  21020329.454    21020326.279
        56.000          49.000
  22823768.669    -7408373.02343  -5755098.81442  22823770.574    22823771.616
        49.000          42.000
  20702575.639    -1900364.91843  -1472476.60142  20702576.661    20702573.046
        56.000          50.000
  23066062.065     1044299.79543    815429.99542  23066065.880    23066062.097
        49.000          42.000
  21024468.357    19110497.18043  14894689.94442  21024468.898    21024467.769
        55.000          48.000
  22404942.936    12466628.97243   9725042.45442  22404943.711    22404942.719
        50.000          43.000
 03  6 25 16 22 40.0000000  0  9G 6G16G26G18G23G21G29G17G15
  20660215.921     1702531.51244   1329839.42142  20660217.387    20660215.365
        57.000          50.000
  23304743.772    -3193035.83643  -2483296.21742  23304743.449    23304742.493
        48.000          41.000
  21500176.895    -2093093.61543  -1618116.22742  21500179.077    21500177.187
        53.000          46.000
  21013882.736    -6140135.50943  -4771324.51442  21013884.272    21013881.031
        56.000          49.000
  22813932.715    -7460061.29743  -5795375.35542  22813934.768    22813932.460
        49.000          42.000
  20701056.257    -1908350.14543  -1478698.86942  20701057.330    20701053.519
        56.000          50.000
  23070993.258     1070214.02343    835622.89542  23070995.429    23070994.819
        49.000          42.000
  21026480.280    19121070.00943  14902928.49342  21026480.547    21026479.753
        55.000          48.000
  22396894.887    12424334.70143   9692085.88842  22396894.926    22396895.018
        50.000          44.000
 03  6 25 16 23  0.0000000  0  9G 6G16G26G18G23G21G29G17G15
  20665963.742     1732736.06043   1353375.39742  20665965.411    20665962.972
        56.000          50.000
  23303832.586    -3197821.42443  -2487025.27842  23303836.994    23303830.945
        47.000          41.000
  21499477.187    -2096773.15943  -1620983.40442  21499479.230    21499477.641
        53.000          46.000
  21007472.841    -6173819.82043  -4797572.02342  21007474.147    21007471.058
        56.000          49.000
  22804122.917    -7511612.84543  -5835545.35942  22804125.291    22804123.480
        49.000          42.000
  20699552.642    -1916251.01643  -1484855.40742  20699553.661    20699549.701
        56.000          50.000
  23075968.127     1096356.96843    855994.01942  23075970.766    23075967.677
        49.000          43.000
  21028506.584    19131717.70343  14911225.37442  21028507.457    21028506.257
        55.000          48.000
  22388854.607    12382082.24643   9659161.90442  22388855.769    22388855.822
        50.000          44.000
 03  6 25 16 23 20.0000000  0  9G 6G16G26G18G23G21G29G17G15
  20671751.985     1763153.09443   1377076.94542  20671753.698    20671751.232
        56.000          50.000
  23302967.098    -3202369.39843  -2490569.19042  23302968.734    23302967.812
        47.000          40.000
  21498832.230    -2100162.12143  -1623624.14542  21498833.881    21498832.310
        53.000          46.000
  21001098.004    -6207319.65043  -4823675.78442  21001099.394    21001095.897
        56.000          49.000
  22794338.905    -7563027.95543  -5875609.03942  22794340.329    22794340.122
        49.000          42.000
  20698065.034    -1924067.89043  -1490946.49342  20698066.211    20698062.482
        56.000          49.000
  23080986.507     1122727.74843    876542.66842  23080989.015    23080987.125
        49.000          42.000
  21030546.857    19142439.46543  14919579.97642  21030547.476    21030546.471
        55.000          48.000
  22380821.631    12339870.94243   9626269.98142  22380822.871    22380822.500
        51.000          44.000
 03  6 25 16 23 40.0000000  0  9G 6G16G26G18G23G21G29G17G15
  20677580.187     1793779.99644   1400942.03042  20677581.752    20677579.474
        57.000          50.000
  23302146.238    -3206682.43643  -2493930.03042  23302146.521    23302145.771
        48.000          41.000
  21498241.914    -2103262.74643  -1626040.21342  21498243.874    21498242.635
        53.000          46.000
  20994757.854    -6240637.42743  -4849637.68642  20994759.149    20994755.895
        56.000          49.000
  22784580.557    -7614308.70943  -5915568.03642  22784579.464    22784582.339
        49.000          42.000
  20696593.080    -1931803.14343  -1496973.97642  20696594.132    20696590.599
        56.000          49.000
  23086047.630     1149323.54143    897266.65342  23086049.678    23086048.261
        49.000          42.000
  21032600.805    19153233.33943  14927990.76742  21032601.610    21032600.147
        55.000          48.000
  22372796.466    12297698.52043   9593408.36942  22372797.888    22372796.706
        51.000          44.000
 03  6 25 16 24  0.0000000  0  9G 6G16G26G18G23G21G29G17G15
  20683449.401     1824623.50744   1424975.90042  20683450.805    20683448.685
        57.000          50.000
  23301371.806    -3210753.79843  -2497102.55242  23301372.469    23301371.484
        48.000          41.000
  21497707.973    -2106067.94743  -1628226.08442  21497710.043    21497709.016
        53.000          46.000
  20988453.629    -6273766.12743  -4875452.25542  20988454.877    20988452.099
        56.000          49.000
  22774849.052    -7665447.91143  -5955416.73542  22774850.103    22774849.658
        49.000          43.000
  20695137.991    -1939449.73343  -1502932.37442  20695139.123    20695135.486
        56.000          50.000
  23091152.640     1176150.88743    918171.08142  23091153.850    23091153.169
        49.000          42.000
  21034669.932    19164106.23443  14936463.13042  21034670.270    21034669.382
        55.000          48.000
  22364780.240    12255571.99943   9560582.51242  22364781.183    22364779.458
        51.000          44.000
 03  6 25 16 24 20.0000000  0  9G 6G16G26G18G23G21G29G17G15
  20689359.116     1855679.47044   1449175.31442  20689360.745    20689358.537
        57.000          50.000
  23300642.284    -3214587.60743  -2500089.96542  23300644.427    23300642.254
        47.000          41.000
  21497229.902    -2108581.60143  -1630184.78142  21497231.531    21497230.075
        53.000          46.000
  20982184.704    -6306709.65043  -4901122.53142  20982186.170    20982182.795
        56.000          49.000
  22765143.788    -7716449.33643  -5995158.07442  22765144.606    22765145.842
        50.000          42.000
  20693699.057    -1947011.69943  -1508824.82442  20693700.301    20693696.318
        56.000          49.000
  23096301.363     1203205.38443    939252.49742  23096302.576    23096302.015
        49.000          42.000
  21036753.188    19175054.05243  14944993.87142  21036754.023    21036752.404
        55.000          48.000
  22356771.894    12213487.39643   9527789.32842  22356773.071    22356771.564
        51.000          44.000
 03  6 25 16 24 40.0000000  0  9G 6G16G26G18G23G21G29G17G15
  20695308.981     1886945.62043   1473538.50542  20695310.181    20695308.075
        56.000          50.000
  23299957.961    -3218186.16043  -2502894.06742  23299958.076    23299956.368
        48.000          41.000
  21496806.585    -2110805.51343  -1631917.70142  21496808.460    21496806.878
        53.000          46.000
  20975950.825    -6339469.90443  -4926650.00342  20975952.077    20975948.673
        56.000          49.000
  22755464.622    -7767314.78443  -6034793.45742  22755465.397    22755465.218
        49.000          42.000
  20692275.825    -1954490.80343  -1514652.70942  20692276.676    20692273.226
        56.000          49.000
  23101491.502     1230484.78343    960509.16642  23101494.905    23101491.938
        49.000          42.000
  21038850.493    19186075.02343  14953581.61842  21038851.077    21038849.500
        55.000          48.000
  22348771.378    12171442.79843   9495027.31242  22348772.227    22348770.586
        51.000          44.000
 03  6 25 16 25  0.0000000  0  9G 6G16G26G18G23G21G29G17G15
  20701298.627     1918421.41843   1498065.05642  20701300.034    20701297.940
        56.000          50.000
  23299317.417    -3221549.83143  -2505515.14442  23299317.746    23299318.708
        48.000          41.000
  21496438.619    -2112739.87243  -1633424.99142  21496440.436    21496439.433
        53.000          46.000
  20969751.604    -6372047.14643  -4952034.86942  20969752.825    20969750.116
        56.000          49.000
  22745810.794    -7818044.27843  -6074322.90542  22745813.388    22745811.315
        50.000          42.000
  20690868.233    -1961887.35043  -1520416.26442  20690869.147    20690865.638
        56.000          49.000
  23106725.666     1257988.27443    981940.45242  23106726.470    23106725.479
        49.000          42.000
  21040961.797    19197168.84643  14962226.12942  21040962.461    21040960.861
        55.000          48.000
  22340777.854    12129437.84743   9462296.18242  22340779.137    22340777.211
        51.000          44.000
 03  6 25 16 25 20.0000000  0  9G 6G16G26G18G23G21G29G17G15
  20707329.358     1950112.46443   1522759.33442  20707330.792    20707329.023
        56.000          50.000
  23298722.804    -3224672.86243  -2507948.70942  23298724.611    23298722.973
        47.000          41.000
  21496126.657    -2114378.66843  -1634701.98542  21496128.470    21496126.721
        53.000          46.000
  20963588.226    -6404435.53043  -4977272.56942  20963589.456    20963586.502
        56.000          49.000
  22736184.525    -7868631.76443  -6113741.69342  22736185.792    22736185.728
        49.000          42.000
  20689477.498    -1969195.45643  -1526110.90442  20689478.773    20689475.109
        56.000          49.000
  23112003.283     1285721.34543   1003550.63442  23112005.372    23112004.370
        49.000          42.000
  21043087.778    19208341.37443  14970931.97142  21043088.658    21043086.875
        55.000          48.000
  22332793.021    12087478.52343   9429600.62742  22332792.842    22332793.473
        51.000          44.000
 03  6 25 16 25 40.0000000  0  9G 6G16G26G18G23G21G29G17G15
  20713400.148     1982014.38143   1547617.92542  20713401.618    20713399.593
        56.000          50.000
  23298174.094    -3227559.62443  -2510198.17842  23298174.517    23298174.466
        47.000          41.000
  21495870.237    -2115725.81743  -1635751.71342  21495872.286    21495870.483
        53.000          46.000
  20957460.038    -6436638.91143  -5002366.11142  20957461.445    20957458.345
        56.000          49.000
  22726584.067    -7919081.03743  -6153052.78642  22726585.697    22726586.311
        49.000          42.000
  20688102.951    -1976419.30443  -1531739.89242  20688104.172    20688100.442
        56.000          49.000
  23117323.504     1313679.56043   1025336.25542  23117324.326    23117323.617
        49.000          42.000
  21045227.886    19219588.38743  14979695.85342  21045228.416    21045227.148
        55.000          48.000
  22324816.236    12045560.67943   9396937.37842  22324817.796    22324816.410
        51.000          44.000
 03  6 25 16 26  0.0000000  0  9G 6G16G26G18G23G21G29G17G15
  20719510.995     2014127.71043   1572641.26042  20719512.632    20719510.532
        56.000          50.000
  23297669.613    -3230209.69443  -2512263.19242  23297670.835    23297668.850
        48.000          41.000
  21495669.764    -2116780.64543  -1636573.66242  21495671.142    21495669.862
        53.000          46.000
  20951367.186    -6468656.72743  -5027315.05942  20951368.601    20951365.605
        56.000          49.000
  22717010.393    -7969391.32043  -6192255.57742  22717012.741    22717012.135
        50.000          43.000
  20686744.491    -1983557.95543  -1537302.48642  20686745.730    20686742.319
        56.000          50.000
  23122686.561     1341863.10243   1047297.44942  23122687.769    23122687.108
        49.000          42.000
  21047382.453    19230910.59843  14988518.32942  21047383.179    21047381.782
        55.000          48.000
  22316847.574    12003684.94943   9364306.95842  22316848.745    22316846.248
        51.000          44.000
 03  6 25 16 26 20.0000000  0  9G 6G16G26G18G23G21G29G17G15
  20725661.815     2046449.94244   1597827.37742  20725663.332    20725661.216
        57.000          50.000
  23297209.942    -3232625.50543  -2514145.67242  23297212.511    23297208.330
        48.000          41.000
  21495523.717    -2117545.20143  -1637169.42742  21495525.565    21495524.394
        53.000          46.000
  20945309.309    -6500491.17243  -5052121.11542  20945310.871    20945307.507
        56.000          49.000
  22707462.602    -8019564.50143  -6231351.53342  22707463.855    22707462.743
        50.000          43.000
  20685401.874    -1990613.67943  -1542800.46142  20685403.128    20685399.386
        56.000          50.000
  23128092.219     1370269.25143   1069432.09942  23128094.130    23128093.447
        49.000          42.000
  21049551.057    19242305.99943  14997397.83742  21049551.769    21049550.328
        55.000          48.000
  22308886.489    11961849.11343   9331707.61342  22308887.773    22308887.865
        51.000          44.000
 03  6 25 16 26 40.0000000  0  9G 6G16G26G18G23G21G29G17G15
  20731852.950     2078984.63643   1623179.05342  20731854.572    20731852.308
        56.000          50.000
  23296795.715    -3234803.23843  -2515842.63142  23296797.947    23296796.042
        47.000          41.000
  21495434.767    -2118015.52243  -1637535.91742  21495436.587    21495434.598
        53.000          46.000
  20939287.168    -6532138.26143  -5076781.18442  20939288.385    20939285.544
        56.000          49.000
  22697942.065    -8069596.53643  -6270337.50042  22697942.598    22697944.127
        49.000          43.000
  20684075.880    -1997582.46543  -1548230.69242  20684077.004    20684073.532
        56.000          49.000
  23133540.682     1398901.71343   1091743.09442  23133541.853    23133540.841
        49.000          42.000
  21051734.330    19253778.46443  15006337.39642  21051734.664    21051733.365
        55.000          48.000
  22300933.704    11920057.14443   9299142.45542  22300935.859    22300932.792
        51.000          44.000
 03  6 25 16 27  0.0000000  0  9G 6G16G26G18G23G21G29G17G15
  20738084.336     2111730.14443   1648695.00442  20738086.098    20738083.833
        56.000          50.000
  23296426.065    -3236744.63543  -2517355.45442  23296426.856    23296425.268
        48.000          41.000
  21495400.752    -2118192.92343  -1637674.16042  21495403.194    21495401.274
        53.000          46.000
  20933300.296    -6563599.25343  -5101296.24242  20933301.742    20933298.350
        56.000          49.000
  22688447.633    -8119488.63543  -6309214.43342  22688448.841    22688448.998
        49.000          43.000
  20682765.930    -2004465.76643  -1553594.31242  20682767.178    20682763.502
        56.000          50.000
  23139031.568     1427758.33043   1114228.75542  23139033.229    23139033.407
        48.000          42.000
  21053931.690    19265326.62143  15015335.93342  21053932.487    21053931.124
        55.000          48.000
  22292988.879    11878307.61643   9266610.36642  22292990.323    22292989.310
        51.000          44.000
 03  6 25 16 27 20.0000000  0  9G 6G16G26G18G23G21G29G17G15
  20744355.651     2144686.03344   1674374.88842  20744357.296    20744355.025
        57.000          50.000
  23296101.661    -3238450.13643  -2518684.46542  23296102.149    23296101.505
        48.000          41.000
  21495422.784    -2118077.50943  -1637584.22842  21495424.699    21495423.384
        53.000          46.000
  20927348.721    -6594874.55643  -5125666.60642  20927350.165    20927347.363
        56.000          49.000
  22678980.390    -8169240.78243  -6347982.31542  22678980.905    22678981.171
        50.000          43.000
  20681472.463    -2011263.73244  -1558891.43442  20681473.612    20681469.998
        57.000          50.000
  23144565.855     1456838.69743   1136888.77142  23144566.926    23144566.123
        49.000          42.000
  21056143.574    19276950.14743  15024393.20342  21056144.537    21056143.041
        55.000          48.000
  22285052.655    11836600.34543   9234111.21042  22285053.755    22285051.716
        51.000          44.000
 03  6 25 16 27 40.0000000  0  9G 6G16G26G18G23G21G29G17G15
  20750666.932     2177852.06143   1700218.51542  20750668.707    20750666.089
        56.000          50.000
  23295821.755    -3239919.89643  -2519829.75842  23295822.369    23295822.581
        48.000          41.000
  21495500.406    -2117669.12143  -1637266.01142  21495502.260    21495500.535
        53.000          46.000
  20921432.746    -6625963.93443  -5149892.09142  20921434.241    20921430.805
        56.000          49.000
  22669539.071    -8218852.62443  -6386640.86242  22669540.013    22669540.500
        50.000          43.000
  20680195.019    -2017976.06543  -1564121.83642  20680196.132    20680192.439
        56.000          50.000
  23150142.251     1486142.41543   1159722.82442  23150143.998    23150142.682
        48.000          42.000
  21058370.039    19288649.47343  15033509.54042  21058370.807    21058369.295
        55.000          48.000
  22277124.274    11794935.51743   9201645.12142  22277126.198    22277123.746
        51.000          44.000
 03  6 25 16 28  0.0000000  0  9G 6G16G26G18G23G21G29G17G15
  20757018.357     2211229.17843   1726226.62442  20757019.963    20757017.877
        56.000          50.000
  23295587.409    -3241152.79043  -2520790.47742  23295589.854    23295586.548
        48.000          41.000
  21495634.398    -2116966.46543  -1636718.48742  21495636.611    21495634.107
        53.000          46.000
  20915552.218    -6656865.98943  -5173971.61342  20915553.687    20915550.553
        56.000          49.000
  22660125.530    -8268322.83843  -6425189.04842  22660127.218    22660124.807
        50.000          43.000
  20678934.431    -2024601.56843  -1569284.57742  20678935.274    20678932.002
        56.000          50.000
  23155761.158     1515670.24943   1182731.51642  23155763.120    23155762.280
        48.000          42.000
  21060610.785    19300425.57243  15042685.70042  21060611.283    21060610.443
        55.000          48.000
  22269203.814    11753314.25443   9169212.98242  22269205.011    22269203.518
        51.000          44.000
 03  6 25 16 28 20.0000000  0  9G 6G16G26G18G23G21G29G17G15
  20763409.483     2244814.10043   1752396.66242  20763410.877    20763408.749
        56.000          50.000
  23295397.640    -3242152.22143  -2521569.28842  23295397.795    23295395.642
        48.000          41.000
  21495823.745    -2115972.60143  -1635944.05642  21495824.396    21495823.853
        53.000          46.000
  20909706.766    -6687584.04543  -5197907.75842  20909707.888    20909704.991
        56.000          49.000
  22650738.102    -8317654.19843  -6463629.04042  22650739.230    22650738.300
        50.000          43.000
  20677689.415    -2031143.40243  -1574382.11742  20677690.477    20677687.412
        56.000          49.000
  23161421.934     1545418.62843   1205912.05842  23161423.993    23161422.035
        49.000          42.000
  21062865.891    19312275.37343  15051919.28942  21062866.718    21062865.268
        55.000          48.000
  22261290.725    11711733.54243   9136812.43942  22261291.050    22261291.497
        51.000          44.000
 03  6 25 16 28 40.0000000  0  9G 6G16G26G18G23G21G29G17G15
  20769840.443     2278609.53043   1778730.73142  20769842.240    20769840.231
        56.000          50.000
  23295252.107    -3242915.41743  -2522164.02342  23295253.617    23295250.691
        48.000          41.000
  21496068.412    -2114684.29543  -1634940.18542  21496070.770    21496069.066
        53.000          46.000
  20903896.917    -6718115.02943  -5221698.13542  20903898.169    20903895.238
        56.000          49.000
  22641377.473    -8366843.50543  -6501958.32742  22641378.939    22641378.122
        50.000          43.000
  20676461.077    -2037598.28043  -1579411.90242  20676462.145    20676458.514
        56.000          49.000
  23167125.827     1575390.34043   1229266.62742  23167127.380    23167126.735
        49.000          42.000
  21065135.518    19324202.36543  15061213.03342  21065136.210    21065134.854
        55.000          48.000
  22253387.168    11670196.44043   9104445.87842  22253387.717    22253387.046
        51.000          44.000
 03  6 25 16 29  0.0000000  0  9G 6G16G26G18G23G21G29G17G15
  20776311.881     2312616.52043   1805229.64542  20776313.460    20776311.252
        56.000          50.000
  23295151.608    -3243441.31543  -2522573.84642  23295152.718    23295151.980
        48.000          41.000
  21496369.824    -2113100.30243  -1633705.91942  21496371.974    21496370.192
        53.000          46.000
  20898122.980    -6748457.58543  -5245341.68442  20898124.198    20898121.045
        56.000          49.000
  22632044.573    -8415889.29143  -6540175.78842  22632045.253    22632046.043
        50.000          43.000
  20675249.583    -2043964.89443  -1584372.91142  20675250.669    20675247.187
        56.000          49.000
  23172871.341     1605586.04243   1252795.72742  23172873.371    23172872.664
        49.000          42.000
  21067419.788    19336207.33343  15070567.53242  21067420.521    21067419.211
        55.000          48.000
  22245491.151    11628704.35943   9072114.40042  22245491.901    22245490.673
        51.000          44.000
 03  6 25 16 29 20.0000000  0  9G 6G16G26G18G23G21G29G17G15
  20782822.211     2346828.54443   1831888.32542  20782823.886    20782821.662
        56.000          49.000
  23295095.620    -3243736.24643  -2522803.70142  23295095.401    23295094.957
        48.000          41.000
  21496726.876    -2111226.72843  -1632245.99442  21496728.754    21496727.258
        53.000          46.000
  20892383.620    -6778617.90343  -5268843.22842  20892384.925    20892381.940
        56.000          49.000
  22622737.877    -8464797.45243  -6578286.01742  22622740.327    22622739.650
        50.000          43.000
  20674053.686    -2050249.41743  -1589269.95342  20674054.840    20674051.148
        56.000          49.000
  23178658.662     1635999.21943   1276494.29242  23178661.607    23178659.880
        48.000          42.000
  21069718.304    19348284.50143  15079978.29442  21069718.860    21069717.615
        55.000          48.000
  22237602.841    11587250.94143   9039813.04042  22237604.663    22237602.847
        51.000          44.000
 03  6 25 16 29 40.0000000  0 10G 6G16G26G18G23G21G29G17G15G 2
  20789372.057     2381247.60243   1858708.33242  20789373.315    20789371.327
        56.000          50.000
  23295084.329    -3243798.28143  -2522852.07042  23295085.814    23295083.541
        47.000          41.000
  21497138.547    -2109061.25343  -1630558.62242  21497140.026    21497139.196
        53.000          46.000
  20886679.466    -6808593.34943  -5292200.71942  20886681.030    20886677.662
        56.000          49.000
  22613457.208    -8513565.64543  -6616287.16342  22613457.878    22613457.097
        50.000          43.000
  20672873.839    -2056449.57343  -1594101.25642  20672874.826    20672871.500
        56.000          50.000
  23184488.121     1666631.54043   1300363.61542  23184489.810    23184488.705
        48.000          42.000
  21072030.606    19360436.08543  15089447.03842  21072031.414    21072030.107
        55.000          48.000
  22229722.674    11545838.54243   9007543.64842  22229724.157    22229721.818
        51.000          44.000
  25201789.478    -5566290.53353  -4328112.42352  25201790.064    25201789.407
        44.000          37.000
 03  6 25 16 30  0.0000000  0 10G 6G16G26G18G23G21G29G17G15G 2
  20795962.400     2415880.45743   1885694.93942  20795963.902    20795961.760
        56.000          49.000
  23295118.073    -3243620.54543  -2522713.60342  23295119.478    23295118.188
        48.000          41.000
  21497607.307    -2106596.87643  -1628638.33442  21497609.563    21497608.170
        53.000          46.000
  20881011.847    -6838377.17143  -5315408.88742  20881013.414    20881009.966
        56.000          49.000
  22604205.062    -8562186.55743  -6654173.54642  22604205.039    22604205.731
        50.000          43.000
  20671711.489    -2062557.97243  -1598861.05842  20671712.366    20671708.958
        56.000          50.000
  23190359.694     1697489.66643   1324408.89642  23190361.659    23190360.303
        49.000          42.000
  21074358.624    19372669.09743  15098979.23342  21074359.762    21074357.983
        55.000          48.000
  22221851.072    11504474.21243   8975311.71342  22221852.050    22221850.816
        51.000          44.000
  25197383.057    -5589440.56343  -4346151.43442  25197386.226    25197385.315
        43.000          37.000
 03  6 25 16 30 20.0000000  0 10G 6G16G26G18G23G21G29G17G15G 2
  20802592.787     2450723.18743   1912845.08742  20802594.455    20802592.431
        56.000          49.000
  23295196.978    -3243207.10643  -2522391.46742  23295198.049    23295195.256
        48.000          41.000
  21498132.750    -2103837.14943  -1626487.90642  21498134.337    21498133.447
        53.000          46.000
  20875379.954    -6867973.10643  -5338470.65342  20875381.226    20875378.092
        56.000          49.000
  22594980.154    -8610663.67943  -6691947.89242  22594981.768    22594983.053
        50.000          43.000
  20670565.781    -2068578.42343  -1603552.33042  20670566.941    20670563.469
        56.000          49.000
  23196274.657     1728569.52443   1348626.94742  23196275.276    23196275.146
        48.000          42.000
  21076701.282    19384980.17643  15108572.25842  21076701.705    21076700.388
        55.000          48.000
  22213988.282    11463154.37843   8943114.44542  22213988.920    22213988.285
        51.000          44.000
  25193014.357    -5612408.60543  -4364048.63442  25193015.549    25193015.531
        44.000          37.000
 03  6 25 16 30 40.0000000  0 10G 6G16G26G18G23G21G29G17G15G 2
  20809261.871     2485769.36343   1940153.76342  20809263.664    20809261.204
        56.000          49.000
  23295319.169    -3242564.30743  -2521890.62242  23295320.058    23295318.444
        48.000          41.000
  21498712.993    -2100788.11943  -1624112.04442  21498714.611    21498712.856
        53.000          46.000
  20869782.695    -6897387.31843  -5361390.81542  20869783.799    20869781.032
        56.000          49.000
  22585781.501    -8659002.98243  -6729614.84342  22585781.804    22585780.940
        50.000          43.000
  20669435.765    -2074516.88643  -1608179.71542  20669437.111    20669433.421
        56.000          50.000
  23202229.649     1759864.47343   1373012.60342  23202232.196    23202230.772
        49.000          42.000
  21079057.687    19397363.03243  15118221.21542  21079058.480    21079057.056
        55.000          48.000
  22206132.605    11421873.05643   8910947.19242  22206133.471    22206131.421
        51.000          44.000
  25188676.751    -5635200.45843  -4381808.53242  25188678.095    25188678.267
        44.000          37.000
 03  6 25 16 31  0.0000000  0 10G 6G16G26G18G23G21G29G17G15G 2
  20815970.913     2521025.75143   1967626.24942  20815972.576    20815970.327
        56.000          49.000
  23295486.281    -3241685.24943  -2521205.68042  23295487.189    23295486.551
        48.000          41.000
  21499349.717    -2097442.64843  -1621505.19342  21499351.245    21499350.080
        53.000          46.000
  20864221.188    -6926612.44243  -5384163.63642  20864222.679    20864219.373
        56.000          49.000
  22576610.453    -8707197.09943  -6767168.66042  22576611.348    22576610.490
        51.000          43.000
  20668322.744    -2080366.13543  -1612737.58242  20668323.961    20668320.262
        56.000          49.000
  23208227.363     1791381.23343   1397571.10042  23208229.682    23208228.295
        49.000          42.000
  21081429.204    19409825.10943  15127931.90142  21081429.713    21081428.568
        55.000          48.000
  22198285.617    11380637.33543   8878815.46642  22198286.202    22198286.266
        51.000          44.000
  25184373.641    -5657808.96043  -4399425.57242  25184376.107    25184376.301
        44.000          37.000
 03  6 25 16 31 20.0000000  0 10G 6G16G26G18G23G21G29G17G15G 2
  20822719.244     2556487.71043   1995258.91542  20822720.737    20822718.723
        56.000          49.000
  23295697.852    -3240574.48943  -2520340.18542  23295699.520    23295696.960
        48.000          41.000
  21500041.870    -2093805.09043  -1618670.74142  21500044.013    21500042.368
        53.000          46.000
  20858694.995    -6955652.75643  -5406792.44742  20858696.499    20858693.030
        56.000          49.000
  22567466.059    -8755250.13543  -6804612.55142  22567467.173    22567467.156
        51.000          43.000
  20667225.816    -2086130.38943  -1617229.22142  20667227.141    20667222.987
        56.000          49.000
  23214265.995     1823115.05343   1422298.73842  23214268.003    23214266.711
        49.000          42.000
  21083814.773    19422361.77543  15137700.70742  21083815.653    21083813.601
        55.000          48.000
  22190446.825    11339442.93343   8846715.93242  22190447.033    22190446.368
        51.000          44.000
  25180106.372    -5680238.37143  -4416903.05142  25180108.430    25180108.035
        44.000          37.000
 03  6 25 16 31 40.0000000  0 10G 6G16G26G18G23G21G29G17G15G 2
  20829507.340     2592159.61543   2023055.17142  20829508.682    20829506.826
        56.000          49.000
  23295954.815    -3239227.50743  -2519290.61742  23295954.898    23295953.700
        48.000          41.000
  21500790.435    -2089870.65643  -1615604.95742  21500792.444    21500791.127
        53.000          46.000
  20853205.005    -6984503.60743  -5429273.61942  20853206.390    20853203.152
        56.000          49.000
  22558349.386    -8803157.27843  -6841942.75142  22558351.488    22558348.912
        50.000          43.000
  20666146.127    -2091804.92343  -1621650.94942  20666147.143    20666143.554
        56.000          49.000
  23220346.579     1855070.16543   1447198.81942  23220347.439    23220346.467
        49.000          42.000
  21086215.529    19434977.92543  15147531.45642  21086216.721    21086214.362
        55.000          48.000
  22182616.175    11298294.63443   8814652.33342  22182617.445    22182615.861
        51.000          44.000
  25175873.598    -5702483.80643  -4434237.16242  25175874.285    25175874.827
        44.000          37.000
 03  6 25 16 32  0.0000000  0 10G 6G16G26G18G23G21G29G17G15G 2
  20836334.907     2628038.81643   2051012.96642  20836336.591    20836334.508
        56.000          49.000
  23296254.938    -3237647.24243  -2518059.28442  23296255.642    23296254.736
        48.000          41.000
  21501595.386    -2085641.89143  -1612309.82442  21501597.102    21501595.446
        53.000          46.000
  20847750.357    -7013167.42243  -5451609.04842  20847751.855    20847748.363
        56.000          49.000
  22549260.434    -8850920.79943  -6879161.04342  22549262.440    22549260.786
        51.000          43.000
  20665082.663    -2097392.21643  -1626004.69742  20665083.782    20665080.258
        56.000          49.000
  23226469.275     1887243.53243   1472268.95742  23226469.539    23226469.023
        48.000          42.000
  21088630.925    19447671.27443  15157422.35842  21088631.597    21088630.660
        55.000          48.000
  22174794.609    11257189.95843   8782622.71242  22174796.038    22174794.712
        51.000          44.000
  25171674.017    -5724547.63943  -4451429.78342  25171676.665    25171676.921
        43.000          37.000
 03  6 25 16 32 20.0000000  0 10G 6G16G26G18G23G21G29G17G15G 2
  20843202.074     2664125.04143   2079132.07442  20843203.530    20843201.559
        56.000          49.000
  23296599.568    -3235833.83543  -2516646.26842  23296600.675    23296600.053
        48.000          41.000
  21502456.012    -2081118.66143  -1608785.23742  21502457.510    21502456.714
        53.000          46.000
  20842331.302    -7041644.43343  -5473798.91942  20842332.735    20842329.494
        56.000          49.000
  22540198.824    -8898540.46443  -6916267.24442  22540199.975    22540199.332
        50.000          43.000
  20664036.191    -2102891.99743  -1630290.25342  20664037.232    20664033.584
        56.000          49.000
  23232632.819     1919634.69043   1497508.81342  23232635.527    23232633.427
        48.000          42.000
  21091061.195    19460441.88943  15167373.46542  21091061.739    21091060.744
        55.000          48.000
  22166981.085    11216129.05043   8750627.20142  22166981.556    22166980.340
        51.000          44.000
  25167510.696    -5746429.68543  -4468480.74842  25167513.227    25167512.078
        43.000          37.000
 03  6 25 16 32 40.0000000  0 10G 6G16G26G18G23G21G29G17G15G 2
  20850107.856     2700416.07043   2107410.77442  20850109.327    20850107.693
        56.000          49.000
  23296988.856    -3233789.43643  -2515053.26942  23296990.981    23296988.007
        48.000          41.000
  21503372.188    -2076302.89843  -1605032.70742  21503374.009    21503372.739
        53.000          46.000
  20836947.619    -7069936.13643  -5495844.39342  20836948.864    20836945.990
        56.000          49.000
  22531164.015    -8946017.90943  -6953262.61542  22531165.558    22531164.858
        51.000          43.000
  20663005.919    -2108306.10343  -1634509.04842  20663007.072    20663003.349
        56.000          49.000
  23238838.009     1952241.43843   1522916.64442  23238839.361    23238839.746
        48.000          42.000
  21093505.746    19473287.89743  15177383.32642  21093506.149    21093505.100
        55.000          48.000
  22159175.458    11175110.15343   8718664.44242  22159176.124    22159175.411
        52.000          45.000
  25163380.207    -5768131.76843  -4485391.47342  25163381.191    25163381.910
        44.000          37.000
 03  6 25 16 33  0.0000000  0 10G 6G16G26G18G23G21G29G17G15G 2
  20857053.101     2736912.89343   2135849.82842  20857054.663    20857052.793
        56.000          49.000
  23297422.567    -3231512.97943  -2513279.43942  23297423.650    23297421.892
        48.000          41.000
  21504344.620    -2071193.34843  -1601051.25542  21504346.929    21504344.594
        53.000          46.000
  20831599.489    -7098041.51343  -5517744.68242  20831600.930    20831597.903
        56.000          49.000
  22522156.748    -8993351.74943  -6990146.09042  22522158.165    22522158.125
        50.000          43.000
  20661992.347    -2113633.28143  -1638660.10942  20661993.229    20661989.899
        56.000          49.000
  23245084.183     1985064.47143   1548493.00642  23245086.814    23245084.266
        48.000          42.000
  21095964.914    19486210.58043  15187452.92342  21095965.717    21095964.223
        55.000          48.000
  22151377.708    11134134.56843   8686735.41342  22151378.816    22151378.126
        52.000          44.000
  25159285.364    -5789652.43743  -4502160.84142  25159285.662    25159288.523
        44.000          37.000
 03  6 25 16 33 20.0000000  0 10G 6G16G26G18G23G21G29G17G15G 2
  20864037.810     2773617.32043   2164450.64642  20864039.379    20864037.284
        56.000          49.000
  23297899.867    -3229002.68443  -2511323.38942  23297902.448    23297899.995
        48.000          41.000
  21505373.475    -2065787.78243  -1596839.13242  21505375.299    21505374.193
        53.000          46.000
  20826286.818    -7125958.27743  -5539497.99642  20826288.312    20826285.190
        56.000          49.000
  22513177.181    -9040539.63343  -7026915.82942  22513178.501    22513177.662
        51.000          43.000
  20660995.484    -2118871.06543  -1642741.51142  20660996.561    20660993.139
        56.000          49.000
  23251371.660     2018105.52943   1574239.25642  23251374.159    23251371.392
        48.000          42.000
  21098439.084    19499212.31643  15197584.12842  21098439.623    21098438.115
        55.000          48.000
  22143588.924    11093204.47443   8654841.84042  22143590.816    22143589.472
        51.000          44.000
  25155225.742    -5810989.49143  -4518787.13442  25155224.459    25155226.475
        44.000          37.000
 03  6 25 16 33 40.0000000  0 10G 6G16G26G18G23G21G29G17G15G 2
  20871061.498     2810527.31143   2193211.64542  20871063.009    20871061.044
        56.000          49.000
  23298422.101    -3226260.41543  -2509186.59242  23298424.154    23298419.837
        48.000          41.000
  21506458.055    -2060087.91743  -1592397.68942  21506459.615    21506458.357
        53.000          46.000
  20821009.860    -7153688.27943  -5561105.78342  20821011.444    20821008.322
        56.000          49.000
  22504225.200    -9087583.01543  -7063572.97642  22504225.697    22504225.697
        50.000          44.000
  20660015.455    -2124021.09843  -1646754.53442  20660016.475    20660013.327
        56.000          49.000
  23257700.353     2051362.48543   1600153.75442  23257701.912    23257701.357
        48.000          42.000
  21100928.055    19512291.45643  15207775.64342  21100928.612    21100927.225
        55.000          48.000
  22135808.436    11052318.27243   8622982.47242  22135809.048    22135808.846
        52.000          44.000
  25151199.078    -5832144.47143  -4535271.55042  25151201.279    25151199.952
        44.000          37.000
 03  6 25 16 34  0.0000000  0 10G 6G16G26G18G23G21G29G17G15G 2
  20878123.888     2847640.41043   2222130.91242  20878125.351    20878123.731
        56.000          49.000
  23298987.125    -3223288.65943  -2506870.97942  23298990.007    23298985.573
        48.000          41.000
  21507598.382    -2054095.86043  -1587728.56342  21507600.329    21507598.685
        53.000          46.000
  20815768.426    -7181233.58943  -5582569.65642  20815769.679    20815766.655
        56.000          49.000
  22495299.976    -9134483.97843  -7100119.14042  22495301.364    22495301.448
        51.000          44.000
  20659051.964    -2129085.44543  -1650700.79042  20659052.790    20659049.510
        56.000          49.000
  23264069.767     2084832.57843   1626234.34042  23264072.242    23264069.449
        49.000          42.000
  21103431.194    19525445.78643  15218025.75042  21103431.555    21103430.865
        55.000          48.000
  22128036.503    11011473.90343   8591155.69842  22128036.504    22128036.338
        52.000          45.000
  25147207.363    -5853119.41043  -4551615.67542  25147207.575    25147208.997
        44.000          37.000
 03  6 25 16 34 20.0000000  0 10G 6G16G26G18G23G21G29G17G15G 2
  20885226.075     2884962.62543   2251213.12342  20885227.807    20885226.167
        56.000          49.000
  23299597.563    -3220081.53843  -2504371.95942  23299598.512    23299597.425
        48.000          41.000
  21508795.513    -2047805.55343  -1582827.03942  21508796.893    21508795.501
        53.000          46.000
  20810563.073    -7208587.96043  -5603884.74642  20810564.475    20810561.255
        56.000          50.000
  22486403.482    -9181235.95843  -7136549.21242  22486404.446    22486404.567
        51.000          44.000
  20658105.582    -2134057.82043  -1654575.38442  20658106.501    20658102.880
        56.000          49.000
  23270479.891     2118521.78243   1652485.65442  23270481.359    23270480.560
        48.000          42.000
  21105949.929    19538681.82443  15228339.52342  21105950.528    21105949.337
        55.000          48.000
  22120272.936    10970677.65243   8559366.41142  22120274.479    22120273.273
        52.000          44.000
  25143251.936    -5873907.82443  -4567814.46142  25143252.315    25143253.996
        44.000          37.000
 03  6 25 16 34 40.0000000  0 10G 6G16G26G18G23G21G29G17G15G 2
  20892366.993     2922488.05243   2280453.68342  20892368.180    20892366.640
        56.000          49.000
  23300251.411    -3216644.91743  -2501694.09842  23300254.668    23300249.661
        48.000          41.000
  21510048.098    -2041222.39143  -1577697.30942  21510050.200    21510047.946
        53.000          46.000
  20805392.980    -7235756.75843  -5625055.22942  20805394.572    20805391.047
        56.000          49.000
  22477534.368    -9227844.34143  -7172867.40842  22477535.345    22477535.447
        50.000          44.000
  20657175.988    -2138943.53443  -1658382.44942  20657177.262    20657173.018
        56.000          49.000
  23276931.283     2152423.92943   1678902.89042  23276933.406    23276931.809
        48.000          42.000
  21108483.127    19551994.28843  15238712.85442  21108484.307    21108482.574
        55.000          48.000
  22112517.898    10929924.10443   8527610.40942  22112519.037    22112517.186
        52.000          44.000
  25139329.912    -5894515.16443  -4583872.13842  25139332.067    25139332.106
        44.000          37.000
 03  6 25 16 35  0.0000000  0 10G 6G16G26G18G23G21G29G17G15G 2
  20899546.574     2960217.21143   2309852.99942  20899548.221    20899546.303
        56.000          49.000
  23300949.532    -3212978.24143  -2498836.99242  23300951.264    23300948.762
        48.000          41.000
  21511356.755    -2034345.70843  -1572338.85642  21511358.023    21511357.356
        53.000          46.000
  20800258.326    -7262739.31543  -5646080.58842  20800259.846    20800256.298
        56.000          49.000
  22468692.433    -9274308.19843  -7209072.95842  22468693.839    22468693.188
        51.000          44.000
  20656262.713    -2143741.52343  -1662121.15242  20656264.041    20656260.380
        56.000          49.000
  23283423.432     2186539.39343   1705486.34142  23283426.031    23283424.450
        48.000          42.000
  21111031.304    19565383.68043  15249146.13342  21111032.075    21111030.883
        55.000          48.000
  22104771.075    10889213.95443   8495888.23342  22104771.802    22104771.185
        52.000          45.000
  25135440.905    -5914940.64243  -4599788.11042  25135443.532    25135444.509
        44.000          36.000
 03  6 25 16 35 20.0000000  0 10G 6G16G26G18G23G21G29G17G15G 2
  20906765.199     2998151.54043   2339412.18142  20906766.574    20906765.238
        56.000          49.000
  23301691.059    -3209080.15343  -2495799.54242  23301692.303    23301693.006
        48.000          41.000
  21512721.644    -2027173.74143  -1566750.31842  21512723.452    21512722.035
        53.000          46.000
  20795159.574    -7289534.03843  -5666959.58842  20795160.718    20795157.792
        56.000          49.000
  22459878.355    -9320625.60843  -7245164.41542  22459879.725    22459879.399
        51.000          44.000
  20655366.951    -2148450.06944  -1665790.16342  20655368.166    20655364.456
        57.000          49.000
  23289956.226     2220869.31643   1732236.90842  23289957.427    23289956.510
        48.000          42.000
  21113594.093    19578852.10543  15259640.99542  21113594.786    21113593.575
        55.000          48.000
  22097032.541    10848549.10943   8464201.34742  22097033.247    22097032.790
        52.000          45.000
  25131591.666    -5935182.32943  -4615560.86342  25131592.885    25131591.802
        44.000          37.000
 03  6 25 16 35 40.0000000  0 10G 6G16G26G18G23G21G29G17G15G 2
  20914022.959     3036290.78543   2369131.04042  20914024.509    20914022.532
        56.000          49.000
  23302477.033    -3204950.69643  -2492581.82242  23302477.087    23302476.529
        48.000          41.000
  21514142.405    -2019706.49843  -1560931.69242  21514144.572    21514142.576
        53.000          46.000
  20790096.329    -7316140.64143  -5687692.00242  20790098.043    20790094.415
        56.000          50.000
  22451092.656    -9366796.21643  -7281141.47742  22451093.870    22451092.861
        51.000          44.000
  20654487.796    -2153069.19944  -1669389.49942  20654489.174    20654485.473
        57.000          49.000
  23296530.077     2255413.38043   1759154.34942  23296531.705    23296530.490
        48.000          42.000
  21116172.131    19592399.66043  15270197.51042  21116173.020    21116171.890
        55.000          48.000
  22089302.864    10807929.80743   8432549.95542  22089303.734    22089303.144
        52.000          45.000
  25127773.189    -5955240.11143  -4631190.32942  25127775.435    25127776.279
        43.000          36.000
 03  6 25 16 36  0.0000000  0 10G 6G16G26G18G23G21G29G17G15G 2
  20921319.113     3074632.82743   2399007.92442  20921320.703    20921319.190
        56.000          49.000
  23303306.273    -3200591.97143  -2489185.43742  23303307.168    23303304.924
        48.000          41.000
  21515618.913    -2011945.71343  -1554884.33242  21515620.363    21515619.069
        53.000          46.000
  20785068.622    -7342561.09143  -5708279.35642  20785069.793    20785067.043
        56.000          50.000
  22442334.001    -9412821.61143  -7317005.39242  22442335.908    22442335.283
        51.000          44.000
  20653625.712    -2157600.57543  -1672920.45742  20653626.726    20653623.337
        56.000          49.000
  23303143.674     2290169.38143   1786236.92742  23303144.715    23303144.274
        48.000          42.000
  21118764.953    19606024.45643  15280814.21242  21118765.650    21118764.008
        55.000          48.000
  22081581.784    10767354.36443   8400932.73842  22081582.876    22081581.391
        52.000          45.000
  25123993.679    -5975115.70143  -4646677.80142  25123993.921    25123994.694
        44.000          37.000
 03  6 25 16 36 20.0000000  0 10G 6G16G26G18G23G21G29G17G15G 2
  20928653.878     3113176.32543   2429041.79142  20928655.163    20928653.415
        56.000          49.000
  23304179.775    -3196005.23643  -2485611.38042  23304181.497    23304180.216
        48.000          41.000
  21517151.759    -2003892.44843  -1548609.07042  21517153.579    21517152.579
        53.000          46.000
  20780076.247    -7368796.35843  -5728722.42142  20780077.526    20780074.566
        56.000          50.000
  22433603.039    -9458702.70943  -7352756.86742  22433604.040    22433603.870
        51.000          44.000
  20652779.830    -2162044.98643  -1676383.65042  20652781.055    20652777.250
        56.000          49.000
  23309797.941     2325135.74243   1813483.41242  23309799.658    23309799.394
        48.000          42.000
  21121372.306    19619725.72743  15291490.51442  21121372.666    21121371.329
        55.000          48.000
  22073868.546    10726821.90843   8369349.01142  22073869.260    22073868.474
        52.000          45.000
  25120244.617    -5994809.90443  -4662023.96242  25120245.826    25120245.297
        43.000          37.000
 03  6 25 16 36 40.0000000  0 10G 6G16G26G18G23G21G29G17G15G 2
  20936027.521     3151925.15443   2459235.65142  20936029.314    20936027.288
        56.000          49.000
  23305096.020    -3191186.82143  -2481856.80542  23305098.024    23305093.995
        48.000          41.000
  21518740.891    -1995542.72043  -1542102.79542  21518742.814    21518741.088
        53.000          46.000
  20775119.964    -7394842.14843  -5749017.83742  20775121.601    20775117.906
        56.000          50.000
  22424900.593    -9504435.16343  -7388392.51342  22424900.205    22424899.866
        51.000          44.000
  20651951.481    -2166398.33443  -1679775.88342  20651952.683    20651948.993
        56.000          49.000
  23316492.353     2360316.24243   1840896.76542  23316494.263    23316492.829
        48.000          42.000
  21123994.532    19633507.83643  15302229.80042  21123995.458    21123993.996
        55.000          48.000
  22066164.710    10686336.55443   8337801.99742  22066166.460    22066164.388
        52.000          45.000
  25116533.233    -6014318.55443  -4677225.52042  25116533.201    25116533.199
        44.000          37.000
 03  6 25 16 37  0.0000000  0 10G 6G16G26G18G23G21G29G17G15G 2
  20943439.521     3190875.41343   2489586.47042  20943440.948    20943439.423
        56.000          49.000
  23306056.719    -3186140.38243  -2477924.53042  23306058.187    23306058.204
        48.000          41.000
  21520385.513    -1986899.95843  -1535368.17942  21520387.139    21520385.700
        53.000          46.000
  20770199.183    -7420702.13243  -5769168.46942  20770200.442    20770197.233
        56.000          50.000
  22416225.504    -9550022.35443  -7423914.97042  22416227.052    22416226.464
        51.000          44.000
  20651139.610    -2170663.93743  -1683099.74642  20651140.901    20651137.372
        56.000          49.000
  23323226.385     2395706.68143   1868473.71142  23323228.463    23323227.629
        47.000          42.000
  21126632.415    19647367.19043  15313029.27042  21126632.922    21126631.505
        55.000          48.000
  22058468.722    10645894.80443   8306288.95842  22058468.698    22058468.674
        52.000          45.000
  25112855.315    -6033645.14143  -4692285.21342  25112855.020    25112857.061
        44.000          37.000
 03  6 25 16 37 20.0000000  0 10G 6G16G26G18G23G21G29G17G15G 2
  20950890.058     3230027.93943   2520094.90442  20950891.576    20950889.812
        56.000          49.000
  23307060.283    -3180865.25643  -2473814.07342  23307061.775    23307059.524
        48.000          41.000
  21522085.888    -1977963.19743  -1528404.48242  21522087.330    21522085.827
        53.000          46.000
  20765313.695    -7446375.13743  -5789173.40842  20765314.964    20765311.597
        56.000          50.000
  22407578.463    -9595462.93043  -7459323.19042  22407579.686    22407579.146
        51.000          44.000
  20650345.168    -2174840.17343  -1686353.97242  20650346.096    20650342.996
        56.000          49.000
  23330001.704     2431307.87543   1896214.87042  23330003.134    23330001.960
        47.000          41.000
  21129284.472    19661305.07243  15323889.93742  21129285.273    21129283.498
        55.000          48.000
  22050781.814    10605498.02843   8274810.95642  22050782.701    22050781.987
        52.000          45.000
  25109212.421    -6052788.30043  -4707201.97442  25109214.480    25109214.489
        44.000          37.000
 03  6 25 16 37 40.0000000  0 10G 6G16G26G18G23G21G29G17G15G 2
  20958379.346     3269383.97143   2550761.91742  20958380.699    20958379.320
        56.000          49.000
  23308108.442    -3175359.98743  -2469524.28942  23308108.363    23308107.952
        48.000          41.000
  21523842.983    -1968730.84143  -1521210.44542  21523843.883    21523843.327
        53.000          46.000
  20760463.929    -7471859.49943  -5809031.34642  20760465.643    20760462.097
        56.000          50.000
  22398959.721    -9640755.07043  -7494615.74342  22398961.030    22398959.820
        51.000          44.000
  20649567.719    -2178925.14143  -1689537.08242  20649568.659    20649565.371
        56.000          49.000
  23336816.422     2467120.93443   1924121.12442  23336818.812    23336817.417
        48.000          41.000
  21131952.022    19675323.56143  15334813.42042  21131952.946    21131951.611
        55.000          48.000
  22043103.320    10565148.01743   8243369.39842  22043102.621    22043103.176
        52.000          45.000
  25105604.354    -6071746.33243  -4721974.47742  25105606.081    25105605.036
        44.000          37.000
 03  6 25 16 38  0.0000000  0 10G 6G16G26G18G23G21G29G17G15G 2
  20965906.895     3308941.51543   2581585.94642  20965908.316    20965906.714
        56.000          49.000
  23309199.126    -3169626.70243  -2465056.81542  23309200.403    23309198.268
        48.000          41.000
  21525655.455    -1959204.55543  -1513787.37842  21525657.096    21525656.332
        53.000          46.000
  20755650.170    -7497156.98743  -5828743.66842  20755651.647    20755648.526
        56.000          50.000
  22390368.904    -9685900.33043  -7529793.84542  22390370.280    22390369.594
        51.000          44.000
  20648807.468    -2182920.82243  -1692650.61842  20648808.339    20648805.114
        56.000          50.000
  23343671.479     2503143.69743   1952190.78742  23343673.734    23343672.095
        48.000          41.000
  21134634.742    19689420.91943  15345798.35542  21134635.618    21134634.564
        55.000          48.000
  22035433.352    10524843.04443   8211962.94242  22035433.880    22035433.043
        52.000          45.000
  25102033.322    -6090520.82543  -4736603.95842  25102033.388    25102032.548
        44.000          37.000
 03  6 25 16 38 20.0000000  0 10G 6G16G26G18G23G21G29G17G15G 2
  20973472.450     3348698.63643   2612565.48642  20973473.992    20973472.123
        56.000          49.000
  23310333.181    -3163667.16043  -2460413.04542  23310333.995    23310332.007
        48.000          41.000
  21527524.007    -1949386.05043  -1506136.60842  21527525.570    21527524.392
        53.000          46.000
  20750871.358    -7522269.25443  -5848311.66542  20750872.608    20750869.513
        56.000          50.000
  22381805.515    -9730900.12043  -7564858.59242  22381806.577    22381806.225
        51.000          44.000
  20648063.877    -2186828.87343  -1695695.86942  20648065.143    20648061.394
        56.000          49.000
  23350565.867     2539373.96643   1980422.13042  23350567.405    23350566.429
        48.000          41.000
  21137332.202    19703595.17543  15356843.20742  21137333.137    21137331.611
        55.000          48.000
  22027771.940    10484581.72443   8180590.49642  22027772.973    22027770.639
        52.000          45.000
  25098493.761    -6109113.26243  -4751091.58242  25098495.193    25098494.778
        44.000          37.000
 03  6 25 16 38 40.0000000  0 10G 6G16G26G18G23G21G29G17G15G 2
  20981076.516     3388658.20943   2643702.77742  20981078.092    20981076.235
        56.000          49.000
  23311510.723    -3157478.61043  -2455590.83042  23311513.393    23311510.098
        47.000          41.000
  21529448.687    -1939272.13343  -1498255.64542  21529450.315    21529449.297
        53.000          46.000
  20746128.589    -7547193.00143  -5867732.76042  20746129.973    20746126.705
        56.000          50.000
  22373270.738    -9775751.03343  -7599807.33142  22373271.374    22373270.960
        51.000          44.000
  20647337.632    -2190645.50143  -1698669.88142  20647338.807    20647335.121
        56.000          49.000
  23357500.655     2575814.47143   2008817.30142  23357501.667    23357499.285
        48.000          41.000
  21140044.685    19717850.20143  15367951.00142  21140045.084    21140044.524
        55.000          48.000
  22020119.326    10444367.43043   8149254.69642  22020120.442    22020119.361
        52.000          45.000
  25094991.751    -6127520.30543  -4765434.73842  25094993.170    25094993.174
        44.000          37.000
 03  6 25 16 39  0.0000000  0 10G 6G16G26G18G23G21G29G17G15G 2
  20988718.503     3428817.78043   2674995.91942  20988720.043    20988718.487
        56.000          49.000
  23312731.843    -3151063.62843  -2450592.17142  23312734.503    23312730.629
        48.000          41.000
  21531429.174    -1928865.16643  -1490146.33142  21531430.986    21531429.975
        53.000          46.000
  20741421.152    -7571930.62043  -5887008.82142  20741422.670    20741419.256
        56.000          50.000
  22364763.820    -9820455.02043  -7634641.58542  22364764.537    22364763.876
        51.000          44.000
  20646628.251    -2194372.81043  -1701574.29242  20646629.352    20646625.907
        56.000          50.000
  23364474.518     2612462.65643   2037374.30842  23364476.716    23364474.737
        48.000          42.000
  21142772.075    19732183.76143  15379119.98742  21142773.134    21142771.397
        55.000          48.000
  22012475.539    10404198.18143   8117953.99342  22012476.962    22012474.637
        52.000          45.000
  25091522.517    -6145743.99643  -4779635.03642  25091525.909    25091526.143
        44.000          37.000
 03  6 25 16 39 20.0000000  0 10G 6G16G26G18G23G21G29G17G15G 2
  20996399.421     3469180.18743   2706447.11842  20996401.021    20996399.312
        56.000          49.000
  23313996.243    -3144419.13943  -2445414.65942  23313997.396    23313996.006
        48.000          41.000
  21533465.487    -1918162.09343  -1481806.28742  21533468.172    21533466.178
        53.000          46.000
  20736749.843    -7596478.76643  -5906137.24442  20736751.425    20736747.791
        56.000          50.000
  22356285.763    -9865008.71343  -7669358.72342  22356286.825    22356285.333
        52.000          44.000
  20645936.662    -2198007.42143  -1704406.46942  20645937.882    20645934.178
        56.000          50.000
  23371488.546     2649321.12843   2066095.16542  23371491.136    23371489.501
        48.000          41.000
  21145515.677    19746599.06743  15390352.66542  21145516.334    21145514.561
        55.000          48.000
  22004840.644    10364077.09943   8086690.82342  22004841.176    22004840.439
        52.000          45.000
  25088090.830    -6163781.17943  -4793689.99942  25088091.180    25088092.220
        44.000          37.000
 03  6 25 16 39 40.0000000  0 10G 6G16G26G18G23G21G29G17G15G 2
  21004117.554     3509739.87543   2738052.03842  21004119.247    21004117.345
        56.000          49.000
  23315303.228    -3137550.84743  -2440062.78042  23315305.262    23315301.281
        48.000          41.000
  21535557.685    -1907168.08443  -1473239.53242  21535560.068    21535558.094
        53.000          46.000
  20732113.403    -7620842.64443  -5925122.07942  20732115.209    20732111.511
        56.000          50.000
  22347834.646    -9909417.10243  -7703962.63042  22347836.731    22347835.021
        51.000          44.000
  20645261.577    -2201554.55343  -1707170.47842  20645262.987    20645259.379
        56.000          50.000
  23378541.348     2686384.16143   2094975.41042  23378542.942    23378542.451
        47.000          41.000
  21148273.302    19761090.99843  15401645.05642  21148274.179    21148272.721
        55.000          48.000
  21997213.754    10323999.10743   8055461.23842  21997215.233    21997214.194
        52.000          45.000
  25084694.805    -6181636.90943  -4807603.54442  25084694.664    25084693.610
        45.000          37.000
 03  6 25 16 40  0.0000000  0 10G 6G16G26G18G23G21G29G17G15G 2
  21011874.076     3550499.62843   2769812.85242  21011875.272    21011873.666
        56.000          49.000
  23316652.923    -3130455.99343  -2434534.34842  23316654.437    23316652.359
        47.000          41.000
  21537705.983    -1895880.11943  -1464443.73242  21537707.337    21537706.636
        53.000          46.000
  20727512.924    -7645019.18843  -5943960.93742  20727514.451    20727511.010
        56.000          50.000
  22339412.382    -9953676.93543  -7738450.78642  22339414.078    22339412.791
        51.000          44.000
  20644603.838    -2205011.14143  -1709863.93642  20644605.075    20644601.478
        56.000          49.000
  23385633.408     2723654.36643   2124017.09742  23385634.849    23385633.926
        47.000          41.000
  21151046.062    19775663.02743  15412999.85942  21151046.628    21151046.239
        55.000          48.000
  21989596.254    10283967.44643   8024267.73842  21989597.440    21989595.661
        52.000          45.000
  25081330.862    -6199308.06743  -4821373.30542  25081331.421    25081331.798
        44.000          37.000
 03  6 25 16 40 20.0000000  0 10G 6G16G26G18G23G21G29G17G15G 2
  21019668.460     3591459.33443   2801729.46742  21019670.242    21019668.267
        56.000          49.000
  23318046.133    -3123134.64243  -2428829.43542  23318047.766    23318045.141
        47.000          41.000
  21539910.303    -1884298.17743  -1455418.85642  21539911.518    21539910.147
        53.000          46.000
  20722947.939    -7669008.17243  -5962653.64942  20722949.693    20722946.040
        56.000          50.000
  22331018.510    -9997787.88443  -7772822.92742  22331019.648    22331018.697
        52.000          44.000
  20643963.508    -2208376.45843  -1712486.27642  20643964.695    20643960.792
        56.000          49.000
  23392764.393     2761131.43043   2153219.95642  23392767.318    23392766.877
        48.000          41.000
  21153834.419    19790315.51543  15424417.35042  21153835.296    21153833.915
        55.000          48.000
  21981987.380    10243982.41443   7993110.57742  21981987.925    21981988.197
        52.000          45.000
  25078002.490    -6216794.25843  -4834998.92342  25078003.814    25078005.952
        44.000          37.000
 03  6 25 16 40 40.0000000  0 10G 6G16G26G18G23G21G29G17G15G 2
  21027500.662     3632617.21143   2833800.49242  21027502.080    21027500.571
        56.000          49.000
  23319482.672    -3115588.46543  -2422949.33942  23319483.546    23319483.420
        48.000          41.000
  21542169.503    -1872423.71543  -1446166.04242  21542171.258    21542169.715
        53.000          46.000
  20718418.515    -7692810.94043  -5981201.25642  20718419.898    20718416.331
        56.000          50.000
  22322652.465   -10041751.14843  -7807079.98942  22322654.064    22322651.767
        51.000          44.000
  20643340.391    -2211651.71543  -1715038.43342  20643341.461    20643337.850
        56.000          49.000
  23399935.709     2798813.61143   2182582.67242  23399937.091    23399936.360
        48.000          41.000
  21156638.130    19805047.19243  15435896.55542  21156638.975    21156637.164
        55.000          48.000
  21974387.231    10204042.93043   7961988.91642  21974388.495    21974386.433
        52.000          45.000
  25074710.637    -6234096.77643  -4848481.42142  25074711.736    25074711.112
        44.000          37.000
 03  6 25 16 41  0.0000000  0 10G 6G16G26G18G23G21G29G17G15G 2
  21035370.722     3673975.12343   2866027.39042  21035372.234    21035370.186
        56.000          49.000
  23320961.679    -3107815.59643  -2416892.59042  23320963.562    23320962.661
        48.000          41.000
  21544485.425    -1860254.55043  -1436683.59142  21544487.485    21544485.623
        53.000          46.000
  20713924.643    -7716425.29643  -5999602.04742  20713926.023    20713922.749
        56.000          50.000
  22314315.284   -10085564.26543  -7841220.04942  22314316.902    22314314.760
        52.000          44.000
  20642734.506    -2214834.68544  -1717518.67642  20642735.633    20642731.886
        57.000          49.000
  23407146.196     2836702.59243   2212106.51742  23407148.223    23407146.437
        47.000          41.000
  21159456.768    19819860.29843  15447439.20842  21159457.704    21159455.908
        55.000          48.000
  21966795.825    10164151.20843   7930904.46942  21966796.694    21966795.940
        52.000          45.000
  25071452.832    -6251213.37843  -4861819.04942  25071453.953    25071456.147
        44.000          37.000
 03  6 25 16 41 20.0000000  0 10G 6G16G26G18G23G21G29G17G15G 2
  21043278.662     3715531.47843   2898408.93242  21043280.248    21043278.101
        56.000          49.000
  23322484.069    -3099817.64243  -2410660.46342  23322485.031    23322482.421
        48.000          41.000
  21546856.854    -1847792.13143  -1426972.63342  21546859.042    21546857.131
        53.000          46.000
  20709466.702    -7739852.67643  -6017857.14542  20709467.849    20709464.849
        56.000          50.000
  22306006.221   -10129228.50743  -7875244.11042  22306007.075    22306007.029
        52.000          44.000
  20642146.302    -2217926.27043  -1719927.71042  20642147.433    20642143.792
        56.000          49.000
  23414394.844     2874796.31343   2241789.90042  23414395.925    23414396.994
        48.000          41.000
  21162290.807    19834753.70843  15459044.43142  21162290.899    21162290.438
        55.000          48.000
  21959213.713    10124306.13343   7899856.37242  21959214.133    21959214.038
        52.000          45.000
  25068231.450    -6268145.28543  -4875012.76842  25068232.833    25068231.808
        44.000          37.000
 03  6 25 16 41 40.0000000  0 10G 6G16G26G18G23G21G29G17G15G 2
  21051223.590     3757282.91543   2930942.48942  21051225.435    21051223.218
        56.000          49.000
  23324047.098    -3091598.00943  -2404255.57542  23324049.867    23324046.564
        48.000          41.000
  21549283.574    -1835039.67343  -1417035.66442  21549285.286    21549283.742
        53.000          46.000
  20705043.400    -7763096.16743  -6035968.94642  20705044.851    20705041.619
        56.000          50.000
  22297724.789   -10172746.62543  -7909154.30942  22297725.752    22297726.054
        51.000          44.000
  20641574.934    -2220929.44143  -1722267.84942  20641575.976    20641572.430
        56.000          49.000
  23421682.210     2913091.40643   2271630.20642  23421684.861    23421683.399
        49.000          41.000
  21165139.783    19849724.46743  15470709.92842  21165140.577    21165139.069
        55.000          48.000
  21951639.419    10084504.82143   7868842.36842  21951640.773    21951639.854
        52.000          45.000
  25065043.454    -6284895.29043  -4888064.74242  25065045.251    25065045.107
        44.000          37.000
 03  6 25 16 42  0.0000000  0 10G 6G16G26G18G23G21G29G17G15G 2
  21059206.577     3799233.05843   2963630.88142  21059208.169    21059206.542
        56.000          49.000
  23325655.649    -3083153.00543  -2397675.10542  23325656.170    23325653.801
        48.000          40.000
  21551766.219    -1821993.06143  -1406869.49042  21551768.274    21551766.608
        53.000          46.000
  20700656.317    -7786151.62943  -6053934.23242  20700657.609    20700654.607
        56.000          50.000
  22289472.042   -10216114.43543  -7942947.38142  22289473.191    22289471.962
        51.000          44.000
  20641021.035    -2223839.92343  -1724535.76342  20641022.083    20641018.588
        56.000          49.000
  23429008.484     2951591.57443   2301630.29842  23429010.746    23429009.201
        48.000          41.000
  21168004.435    19864777.05943  15482439.19942  21168004.698    21168003.772
        55.000          48.000
  21944074.751    10044751.35443   7837865.65942  21944075.658    21944074.368
        52.000          45.000
  25061891.835    -6301459.36343  -4900971.83842  25061892.688    25061893.467
        44.000          37.000
 03  6 25 16 42 20.0000000  0 10G 6G16G26G18G23G21G29G17G15G 2
  21067227.596     3841383.52743   2996475.37342  21067229.367    21067227.013
        56.000          49.000
  23327305.303    -3074481.17243  -2390917.85942  23327307.476    23327305.051
        48.000          41.000
  21554304.855    -1808650.68543  -1396472.84742  21554307.041    21554305.156
        53.000          46.000
  20696305.181    -7809017.27243  -6071751.61042  20696306.777    20696303.297
        56.000          50.000
  22281248.522   -10259329.84643  -7976621.69442  22281250.183    22281249.141
        51.000          44.000
  20640484.870    -2226655.92843  -1726730.06042  20640486.260    20640482.675
        56.000          49.000
  23436374.408     2990298.04343   2331791.17042  23436375.351    23436376.277
        48.000          41.000
  21170884.536    19879913.34543  15494233.68442  21170885.461    21170884.171
        55.000          48.000
  21936519.372    10005047.84743   7806927.87242  21936520.450    21936518.472
        52.000          45.000
  25058775.362    -6317835.59943  -4913732.56142  25058776.858    25058776.859
        44.000          37.000
 03  6 25 16 42 40.0000000  0 10G 6G16G26G18G23G21G29G17G15G 2
  21075285.374     3883727.77043   3029470.86142  21075287.103    21075285.250
        56.000          49.000
  23328997.394    -3065588.97443  -2383988.91842  23328998.804    23328997.133
        47.000          41.000
  21556899.215    -1795018.83243  -1385850.63342  21556900.652    21556899.275
        52.000          46.000
  20691988.774    -7831699.25543  -6089425.87342  20691990.374    20691986.934
        56.000          50.000
  22273052.716   -10302398.87343  -8010181.95242  22273054.258    22273053.371
        52.000          44.000
  20639965.953    -2229383.17443  -1728855.19142  20639967.074    20639963.758
        56.000          49.000
  23443777.855     3029204.09843   2362107.52642  23443780.041    23443778.999
        48.000          41.000
  21173779.548    19895127.49743  15506088.84442  21173780.348    21173779.463
        55.000          48.000
  21928972.221     9965388.26043   7776024.30842  21928973.561    21928972.157
        52.000          45.000
  25055694.382    -6334030.04543  -4926351.63342  25055694.825    25055694.274
        44.000          37.000
 03  6 25 16 43  0.0000000  0 10G 6G16G26G18G23G21G29G17G15G 2
  21083381.231     3926271.28843   3062621.61842  21083382.840    21083380.745
        56.000          49.000
  23330732.704    -3056470.82343  -2376883.88442  23330732.335    23330733.023
        48.000          40.000
  21559549.512    -1781091.76343  -1374998.38542  21559551.723    21559549.781
        53.000          46.000
  20687708.626    -7854191.82043  -6106952.53542  20687710.168    20687706.710
        56.000          50.000
  22264885.828   -10345315.50543  -8043623.46042  22264886.864    22264886.251
        51.000          45.000
  20639465.287    -2232015.73343  -1730906.54242  20639466.237    20639462.681
        56.000          49.000
  23451220.134     3068315.22143   2392583.69442  23451221.857    23451221.810
        48.000          41.000
  21176690.673    19910425.44343  15518009.29742  21176691.330    21176690.714
        55.000          48.000
  21921435.211     9925778.59943   7745159.65042  21921435.966    21921435.473
        52.000          45.000
  25052647.313    -6350036.80643  -4938824.44942  25052647.385    25052647.302
        43.000          37.000
 03  6 25 16 43 20.0000000  0 10G 6G16G26G18G23G21G29G17G15G 2
  21091513.519     3969006.76543   3095921.96242  21091515.106    21091513.754
        56.000          49.000
  23332508.906    -3047134.09943  -2369608.55842  23332510.253    23332507.737
        47.000          41.000
  21562254.386    -1766876.52143  -1363921.58742  21562256.550    21562255.266
        53.000          46.000
  20683463.156    -7876501.83443  -6124336.95242  20683464.297    20683461.222
        56.000          50.000
  22256746.843   -10388086.53843  -8076951.52042  22256748.496    22256746.731
        51.000          44.000
  20638980.759    -2234560.39743  -1732889.40342  20638981.822    20638978.695
        56.000          49.000
  23458700.575     3107623.79343   2423213.72042  23458702.200    23458701.620
        47.000          41.000
  21179616.809    19925800.28743  15529989.67942  21179617.301    21179616.556
        55.000          48.000
  21913905.750     9886212.22643   7714328.72042  21913906.490    21913906.058
        52.000          45.000
  25049636.478    -6365862.67843  -4951156.31442  25049637.111    25049638.062
        44.000          37.000
 03  6 25 16 43 40.0000000  0 10G 6G16G26G18G23G21G29G17G15G 2
  21099682.988     4011938.47943   3129375.21442  21099684.582    21099683.536
        56.000          49.000
  23334328.367    -3037574.49343  -2362159.55642  23334329.470    23334325.761
        47.000          40.000
  21565015.126    -1752368.62543  -1352616.74642  21565017.455    21565015.785
        53.000          46.000
  20679253.394    -7898624.63243  -6141575.48642  20679254.554    20679251.192
        56.000          50.000
  22248636.323   -10430707.15343  -8110162.35842  22248638.599    22248636.582
        52.000          44.000
  20638514.276    -2237012.41243  -1734800.07142  20638515.290    20638511.755
        56.000          49.000
  23466219.247     3147133.96443   2454000.82442  23466220.370    23466220.074
        47.000          41.000
  21182557.916    19941256.67543  15542033.60242  21182558.855    21182557.484
        55.000          48.000
  21906385.849     9846693.79643   7683535.15142  21906387.050    21906385.386
        52.000          45.000
  25046659.935    -6381503.04443  -4963343.64342  25046661.848    25046661.666
        44.000          37.000
 03  6 25 16 44  0.0000000  0 10G 6G16G26G18G23G21G29G17G15G 2
  21107890.842     4055069.54443   3162983.80542  21107892.668    21107890.859
        56.000          49.000
  23336190.495    -3027789.12743  -2354534.62642  23336191.718    23336191.060
        48.000          40.000
  21567833.034    -1737564.76343  -1341081.28142  21567834.244    21567832.459
        53.000          46.000
  20675079.802    -7920556.91643  -6158665.57042  20675081.180    20675077.563
        56.000          50.000
  22240555.276   -10473173.84243  -8143253.25842  22240556.194    22240555.818
        52.000          45.000
  20638066.160    -2239368.01943  -1736635.61842  20638067.287    20638063.622
        56.000          49.000
  23473776.781     3186848.69043   2484947.32242  23473778.738    23473778.090
        47.000          41.000
  21185515.283    19956798.40843  15554144.02742  21185516.182    21185514.858
        55.000          48.000
  21898875.665     9807226.88143   7652781.71342  21898876.049    21898874.825
        52.000          45.000
  25043719.851    -6396954.46643  -4975383.74342  25043721.701    25043720.991
        44.000          37.000
 03  6 25 16 44 20.0000000  0 10G 6G16G26G18G23G21G29G17G15G 2
  21116134.927     4098391.82543   3196741.39442  21116136.393    21116134.822
        56.000          49.000
  23338094.143    -3017785.80943  -2346739.86842  23338094.882    23338094.941
        47.000          40.000
  21570704.184    -1722472.85043  -1329321.36142  21570706.480    21570704.705
        53.000          46.000
  20670940.910    -7942306.57143  -6175613.34742  20670942.332    20670938.789
        56.000          50.000
  22232501.963   -10515494.07943  -8176230.03942  22232503.105    22232502.123
        52.000          45.000
  20637634.705    -2241634.82643  -1738401.97142  20637635.949    20637632.434
        56.000          49.000
  23481371.333     3226759.74143   2516046.82042  23481374.083    23481372.866
        47.000          41.000
  21188487.734    19972417.89343  15566315.04142  21188488.601    21188487.166
        55.000          48.000
  21891373.418     9767803.89343   7622062.51042  21891374.028    21891373.328
        52.000          45.000
  25040813.332    -6412224.59443  -4987282.55742  25040814.738    25040815.196
        44.000          37.000
 03  6 25 16 44 40.0000000  0 10G 6G16G26G18G23G21G29G17G15G 2
  21124416.109     4141909.94843   3230651.58942  21124417.652    21124415.889
        56.000          49.000
  23340039.137    -3007560.16443  -2338771.88142  23340040.977    23340039.672
        47.000          40.000
  21573632.077    -1707088.18643  -1317333.32342  21573633.633    21573632.147
        53.000          46.000
  20666837.941    -7963868.51943  -6192414.86042  20666839.089    20666836.074
        56.000          50.000
  22224477.528   -10557662.89343  -8209088.83442  22224478.857    22224477.921
        52.000          45.000
  20637221.332    -2243807.58743  -1740095.04142  20637222.506    20637218.944
        56.000          49.000
  23489004.788     3266871.51143   2547302.69342  23489006.062    23489003.670
        48.000          41.000
  21191475.900    19988120.26743  15578550.63942  21191476.221    21191475.841
        55.000          48.000
  21883880.664     9728429.94343   7591381.51442  21883881.066    21883881.353
        52.000          45.000
  25037944.449    -6427308.39543  -4999036.19442  25037943.650    25037943.953
        44.000          37.000
 03  6 25 16 45  0.0000000  0 10G 6G16G26G18G23G21G29G17G15G 2
  21132734.261     4185622.72243   3264713.45742  21132735.888    21132734.079
        55.000          49.000
  23342028.820    -2997113.38443  -2330631.57642  23342030.326    23342028.431
        47.000          40.000
  21576615.000    -1691411.68643  -1305117.88942  21576617.435    21576615.857
        53.000          46.000
  20662770.264    -7985243.61343  -6209070.77142  20662771.585    20662768.470
        56.000          50.000
  22216481.668   -10599680.84043  -8241830.06342  22216483.144    22216482.279
        52.000          45.000
  20636825.671    -2245886.93043  -1741715.31942  20636826.619    20636823.378
        56.000          49.000
  23496675.776     3307182.56143   2578713.86842  23496676.475    23496676.213
        48.000          41.000
  21194479.467    20003904.64543  15590850.14342  21194480.365    21194478.922
        55.000          48.000
  21876397.371     9689104.40843   7560738.24542  21876398.226    21876397.265
        52.000          45.000
  25035108.874    -6442206.50243  -5010645.13442  25035109.642    25035109.872
        44.000          37.000
 03  6 25 16 45 20.0000000  0 10G 6G16G26G18G23G21G29G17G15G 2
  21141089.564     4229530.02743   3298926.91242  21141090.910    21141089.437
        56.000          48.000
  23344058.207    -2986445.62643  -2322319.07842  23344059.665    23344060.269
        47.000          40.000
  21579653.898    -1675443.14543  -1292674.88342  21579655.886    21579654.025
        53.000          46.000
  20658738.295    -8006431.68343  -6225580.95142  20658739.902    20658736.339
        56.000          50.000
  22208514.812   -10641547.53043  -8274453.43542  22208515.576    22208514.967
        52.000          45.000
  20636447.665    -2247872.50343  -1743262.53042  20636448.873    20636445.625
        56.000          49.000
  23504383.918     3347692.80543   2610280.25742  23504386.707    23504385.019
        47.000          41.000
  21197498.900    20019771.65443  15603214.03042  21197499.669    21197498.530
        55.000          48.000
  21868923.228     9649827.75843   7530133.06942  21868924.547    21868923.121
        52.000          45.000
  25032309.663    -6456918.66443  -5022109.17142  25032308.796    25032308.944
        44.000          37.000
 03  6 25 16 45 40.0000000  0 10G 6G16G26G18G23G21G29G17G15G 2
  21149481.205     4273627.23543   3333288.35542  21149482.620    21149480.732
        55.000          49.000
  23346128.643    -2975561.28643  -2313837.82142  23346130.708    23346130.174
        47.000          40.000
  21582747.433    -1659187.08643  -1280007.84042  21582748.959    21582747.874
        53.000          46.000
  20654741.130    -8027436.96843  -6241948.70242  20654742.533    20654739.212
        56.000          50.000
  22200575.687   -10683267.05743  -8306962.12842  22200577.164    22200575.472
        52.000          45.000
  20636086.952    -2249768.34343  -1744739.81442  20636088.096    20636084.389
        56.000          49.000
  23512129.725     3388397.42543   2641998.10242  23512133.134    23512130.654
        47.000          41.000
  21200533.105    20035717.18143  15615639.09942  21200533.826    21200532.965
        55.000          48.000
  21861457.818     9610595.95743   7499562.83642  21861458.562    21861457.482
        53.000          45.000
  25029544.234    -6471449.15443  -5033431.66242  25029544.926    25029545.177
        44.000          37.000
 03  6 25 16 46  0.0000000  0 10G 6G16G26G18G23G21G29G17G15G 2
  21157909.943     4317920.45943   3367802.53542  21157911.505    21157909.748
        55.000          48.000
  23348243.184    -2964454.41843  -2305183.15042  23348243.628    23348242.972
        47.000          40.000
  21585896.877    -1642637.16243  -1267111.80642  21585898.497    21585897.564
        53.000          46.000
  20650780.091    -8048253.07243  -6258169.03442  20650781.522    20650778.240
        56.000          50.000
  22192666.121   -10724832.73943  -8339350.94742  22192667.104    22192666.851
        52.000          45.000
  20635744.389    -2251567.76843  -1746141.96642  20635745.727    20635742.423
        56.000          49.000
  23519914.245     3429302.28343   2673871.98142  23519915.975    23519914.123
        48.000          41.000
  21203583.892    20051747.92443  15628130.57242  21203584.551    21203583.413
        55.000          48.000
  21854002.191     9571415.66443   7469032.74342  21854003.389    21854001.461
        53.000          45.000
  25026814.415    -6485791.33443  -5044607.40542  25026815.222    25026817.235
        45.000          37.000
 03  6 25 16 46 20.0000000  0 10G 6G16G26G18G23G21G29G17G15G 2
  21166375.064     4362405.45143   3402466.13742  21166376.651    21166374.817
        56.000          48.000
  23350398.167    -2953129.28743  -2296358.41342  23350398.693    23350398.274
        48.000          40.000
  21589101.416    -1625797.52843  -1253990.02442  21589103.655    21589101.415
        53.000          46.000
  20646854.106    -8068883.95943  -6274245.04642  20646855.511    20646852.061
        56.000          50.000
  22184784.969   -10766248.35443  -8371622.82742  22184786.488    22184785.116
        52.000          45.000
  20635419.742    -2253274.46043  -1747471.86442  20635421.102    20635417.435
        56.000          49.000
  23527735.308     3470403.09543   2705898.55942  23527737.209    23527737.054
        48.000          41.000
  21206649.747    20067860.10643  15640685.50142  21206650.182    21206649.329
        55.000          48.000
  21846555.617     9532283.11343   7438539.85542  21846556.425    21846555.270
        53.000          45.000
  25024121.414    -6499949.09143  -5055639.45242  25024121.750    25024122.011
        44.000          37.000
 03  6 25 16 46 40.0000000  0 10G 6G16G26G18G23G21G29G17G15G 2
  21174876.765     4407082.59943   3437279.46442  21174878.707    21174876.865
        55.000          48.000
  23352594.386    -2941585.55843  -2287363.33342  23352597.824    23352594.431
        47.000          40.000
  21592360.855    -1608667.61143  -1240642.04842  21592362.737    21592360.846
        53.000          46.000
  20642963.518    -8089329.02943  -6290176.26742  20642964.889    20642961.437
        56.000          50.000
  22176932.360   -10807513.04843  -8403777.11142  22176933.154    22176933.574
        52.000          45.000
  20635112.865    -2254887.60443  -1748728.86642  20635114.154    20635110.420
        56.000          49.000
  23535594.447     3511699.84243   2738077.81242  23535596.770    23535595.870
        47.000          41.000
  21209731.659    20084054.58943  15653304.55942  21209732.337    21209731.105
        55.000          48.000
  21839117.996     9493199.08743   7408084.77042  21839118.422    21839118.060
        53.000          45.000
  25021461.338    -6513921.67443  -5066527.20042  25021463.893    25021462.219
        44.000          37.000
 03  6 25 16 47  0.0000000  0 10G 6G16G26G18G23G21G29G17G15G 2
  21183414.809     4451949.72943   3472240.83242  21183416.259    21183414.662
        55.000          48.000
  23354832.760    -2929825.37843  -2278199.59542  23354833.639    23354832.833
        48.000          40.000
  21595675.383    -1591249.32843  -1227069.37242  21595677.508    21595676.218
        53.000          46.000
  20639107.922    -8109590.04843  -6305964.06542  20639109.242    20639105.856
        56.000          50.000
  22169108.673   -10848628.43243  -8435815.04642  22169109.734    22169108.233
        52.000          45.000
  20634823.413    -2256408.74143  -1749914.17442  20634824.661    20634821.071
        56.000          49.000
  23543490.167     3553190.51543   2770408.17542  23543490.400    23543491.022
        48.000          41.000
  21212828.861    20100329.66543  15665986.42042  21212829.903    21212828.257
        55.000          48.000
  21831689.569     9454162.12243   7377666.36042  21831690.720    21831688.926
        52.000          46.000
  25018837.965    -6527710.82843  -5077272.02042  25018837.446    25018838.556
        44.000          38.000
 03  6 25 16 47 20.0000000  0 10G 6G16G26G18G23G21G29G17G15G 2
  21191989.463     4497009.73243   3507352.49542  21191991.030    21191989.352
        55.000          48.000
  23357111.949    -2917845.97843  -2268865.03942  23357114.326    23357111.796
        47.000          40.000
  21599045.400    -1573539.62743  -1213269.61842  21599047.038    21599045.621
        53.000          46.000
  20635288.067    -8129663.74943  -6321605.90542  20635289.382    20635285.823
        56.000          50.000
  22161313.701   -10889591.02443  -8467733.92142  22161315.471    22161314.276
        52.000          45.000
  20634552.073    -2257834.64143  -1751025.27642  20634553.228    20634549.805
        56.000          49.000
  23551422.253     3594877.51543   2802891.51042  23551423.384    23551424.441
        48.000          41.000
  21215941.812    20116688.97843  15678733.91242  21215942.579    21215941.118
        55.000          48.000
  21824270.798     9415175.67643   7347287.31842  21824271.876    21824270.948
        53.000          45.000
  25016248.943    -6541313.17943  -5087871.28042  25016250.779    25016252.877
        44.000          37.000
 03  6 25 16 47 40.0000000  0 10G 6G16G26G18G23G21G29G17G15G 2
  21200600.100     4542258.39143   3542611.16342  21200601.391    21200600.013
        55.000          48.000
  23359432.759    -2905651.52943  -2259362.91242  23359434.245    23359433.369
        48.000          41.000
  21602470.452    -1555542.59443  -1199245.96742  21602471.405    21602471.111
        53.000          46.000
  20631503.021    -8149554.01843  -6337104.81142  20631504.490    20631500.995
        56.000          50.000
  22153547.044   -10930404.56243  -8499536.64842  22153548.545    22153547.694
        52.000          45.000
  20634298.330    -2259168.82743  -1752064.91342  20634299.382    20634295.409
        56.000          49.000
  23559391.356     3636756.66343   2835524.57642  23559392.325    23559394.578
        47.000          41.000
  21219070.101    20133128.97143  15691544.27642  21219070.941    21219069.792
        54.000          48.000
  21816860.618     9376236.00843   7316944.71842  21816861.786    21816860.284
        52.000          45.000
  25013695.170    -6554732.63743  -5098328.03842  25013695.337    25013697.764
        44.000          37.000
 03  6 25 16 48  0.0000000  0 10G 6G16G26G18G23G21G29G17G15G 2
  21209247.316     4587700.39743   3578020.48742  21209248.711    21209247.537
        55.000          48.000
  23361795.033    -2893237.24243  -2249689.47742  23361796.458    23361795.522
        48.000          40.000
  21605950.452    -1537253.20943  -1184994.52442  21605952.650    21605951.543
        53.000          46.000
  20627753.944    -8169255.68243  -6352456.75442  20627755.510    20627752.090
        56.000          50.000
  22145809.665   -10971063.85243  -8531219.18242  22145811.387    22145810.076
        52.000          45.000
  20634062.966    -2260405.49843  -1753028.56442  20634064.249    20634060.416
        56.000          49.000
  23567398.265     3678832.63643   2868310.99842  23567399.775    23567398.620
        47.000          41.000
  21222215.031    20149654.87743  15704421.58442  21222215.592    21222214.392
        54.000          48.000
  21809460.964     9337348.49643   7286642.76642  21809461.825    21809460.354
        53.000          46.000
  25011178.342    -6567963.96743  -5108638.18742  25011178.779    25011181.864
        44.000          37.000
 03  6 25 16 48 20.0000000  0 10G 6G16G26G18G23G21G29G17G15G 2
  21217930.792     4633331.91143   3613577.48242  21217932.514    21217930.701
        55.000          48.000
  23364197.830    -2880606.83243  -2239847.62842  23364200.157    23364197.902
        47.000          40.000
  21609485.988    -1518675.23543  -1170518.19542  21609487.741    21609486.666
        53.000          46.000
  20624039.969    -8188772.34543  -6367664.53942  20624041.311    20624038.253
        56.000          50.000
  22138101.510   -11011572.04643  -8562783.98042  22138102.834    22138102.288
        52.000          45.000
  20633845.403    -2261547.91543  -1753918.76542  20633846.542    20633843.290
        56.000          49.000
  23575441.851     3721101.32443   2901247.59542  23575443.293    23575443.204
        47.000          41.000
  21225375.587    20166263.40343  15717363.27742  21225375.973    21225375.197
        55.000          47.000
  21802069.895     9298509.98943   7256379.00442  21802070.592    21802069.966
        53.000          45.000
  25008695.371    -6581010.45043  -5118804.31042  25008698.122    25008698.378
        45.000          37.000
 03  6 25 16 48 40.0000000  0 10G 6G16G26G18G23G21G29G17G15G 2
  21226650.291     4679152.58843   3649281.86942  21226651.698    21226649.626
        55.000          48.000
  23366642.589    -2867761.04143  -2229837.97042  23366644.726    23366642.236
        47.000          40.000
  21613076.049    -1499808.81743  -1155817.10942  21613078.352    21613076.485
        53.000          46.000
  20620361.396    -8208104.05143  -6382728.20442  20620362.803    20620359.687
        56.000          50.000
  22130421.482   -11051929.10743  -8594231.00542  22130422.802    22130422.704
        52.000          45.000
  20633646.015    -2262596.15944  -1754735.58742  20633647.200    20633643.911
        57.000          49.000
  23583522.189     3763562.14643   2934333.91042  23583522.134    23583522.803
        46.000          41.000
  21228551.824    20182954.65543  15730369.43042  21228552.645    21228551.607
        55.000          48.000
  21794688.747     9259720.56143   7226153.47442  21794689.715    21794688.314
        52.000          45.000
  25006246.917    -6593872.17143  -5128826.47642  25006248.634    25006248.498
        44.000          37.000
 03  6 25 16 49  0.0000000  0 10G 6G16G26G18G23G21G29G17G15G 2
  21235405.171     4725160.78143   3685132.37642  21235406.827    21235405.276
        55.000          48.000
  23369128.873    -2854701.48843  -2219661.73942  23369130.478    23369128.252
        47.000          40.000
  21616720.972    -1480655.48843  -1140892.45942  21616722.694    21616721.260
        53.000          46.000
  20616717.568    -8227252.10543  -6397648.76442  20616719.012    20616715.728
        56.000          50.000
  22122770.518   -11092136.13543  -8625561.12942  22122772.085    22122770.428
        52.000          45.000
  20633464.237    -2263551.53843  -1755480.04542  20633465.473    20633462.058
        56.000          49.000
  23591638.237     3806213.41643   2967568.62942  23591639.957    23591638.865
        47.000          41.000
  21231743.462    20199727.52143  15743439.17642  21231744.141    21231742.793
        54.000          48.000
  21787315.939     9220979.16543   7195965.37742  21787317.272    21787315.578
        52.000          45.000
  25003836.833    -6606550.32843  -5138705.58142  25003836.150    25003835.765
        45.000          37.000
 03  6 25 16 49 20.0000000  0 10G 6G16G26G18G23G21G29G17G15G 2
  21244196.479     4771358.67343   3721130.69642  21244197.719    21244196.083
        55.000          48.000
  23371654.057    -2841425.93043  -2209317.18342  23371656.599    23371653.517
        47.000          40.000
  21620421.028    -1461212.86143  -1125742.38142  21620422.609    21620421.157
        53.000          46.000
  20613109.202    -8246213.85843  -6412424.15742  20613110.628    20613107.349
        56.000          50.000
  22115148.354   -11132190.40643  -8656772.21242  22115150.075    22115147.656
        52.000          45.000
  20633300.824    -2264410.73544  -1756149.55842  20633302.073    20633298.245
        57.000          49.000
  23599791.640     3849057.12543   3000953.30242  23599794.180    23599792.302
        47.000          41.000
  21234951.291    20216585.09243  15756574.92042  21234951.805    21234951.010
        54.000          47.000
  21779953.708     9182288.66643   7165816.94242  21779954.276    21779953.189
        53.000          45.000
  25001458.000    -6619042.33243  -5148439.64942  25001460.288    25001460.660
        44.000          37.000
 03  6 25 16 49 40.0000000  0 10G 6G16G26G18G23G21G29G17G15G 2
  21253023.112     4817742.94343   3757274.24942  21253024.608    21253023.336
        55.000          48.000
  23374221.518    -2827937.64443  -2198806.88442  23374222.112    23374221.618
        47.000          40.000
  21624174.973    -1441484.13743  -1110369.37042  21624176.221    21624176.192
        53.000          46.000
  20609535.659    -8264992.53243  -6427056.88342  20609537.105    20609533.980
        56.000          50.000
  22107554.822   -11172094.78143  -8687866.49442  22107555.945    22107555.144
        52.000          45.000
  20633155.006    -2265176.69744  -1756746.41742  20633156.269    20633152.398
        57.000          49.000
  23607980.275     3892089.62743   3034485.08742  23607982.887    23607980.371
        47.000          41.000
  21238174.905    20233524.27843  15769774.26242  21238175.788    21238174.732
        54.000          48.000
  21772600.080     9143646.14043   7135705.88742  21772601.665    21772599.810
        53.000          46.000
  24999115.345    -6631351.24643  -5158031.04042  24999114.642    24999117.675
        44.000          37.000
 03  6 25 16 50  0.0000000  0 10G 6G16G26G18G23G21G29G17G15G 2
  21261886.482     4864319.84043   3793567.90342  21261887.791    21261886.501
        55.000          48.000
  23376830.823    -2814230.46843  -2188126.00942  23376830.587    23376829.091
        48.000          40.000
  21627985.230    -1421462.85543  -1094768.39042  21627987.043    21627984.927
        53.000          46.000
  20605998.528    -8283581.43543  -6441541.73742  20605999.635    20605996.529
        56.000          50.000
  22099991.095   -11211842.47843  -8718838.69342  22099992.069    22099991.683
        52.000          45.000
  20633028.359    -2265842.61443  -1757265.32242  20633029.457    20633025.984
        56.000          49.000
  23616206.034     3935317.12643   3068168.81942  23616207.904    23616207.430
        47.000          40.000
  21241415.139    20250551.94043  15783042.54942  21241416.036    21241414.685
        54.000          47.000
  21765257.387     9105058.54143   7105637.62842  21765258.409    21765256.501
        53.000          45.000
  24996809.219    -6643470.16043  -5167474.37142  24996809.722    24996810.267
        44.000          37.000
 03  6 25 16 50 20.0000000  0 10G 6G16G26G18G23G21G29G17G15G 2
  21270784.601     4911080.11543   3830004.44742  21270786.372    21270784.841
        55.000          48.000
  23379477.343    -2800313.56843  -2177281.71542  23379479.702    23379479.074
        47.000          40.000
  21631848.855    -1401158.08243  -1078946.50442  21631850.876    21631849.774
        53.000          46.000
  20602495.633    -8301989.31943  -6455885.54142  20602496.975    20602493.746
        56.000          50.000
  22092455.412   -11251442.14343  -8749695.53542  22092456.736    22092455.638
        52.000          45.000
  20632919.066    -2266416.84643  -1757712.78242  20632920.107    20632916.325
        56.000          49.000
  23624467.418     3978730.43643   3101997.34242  23624467.847    23624468.979
        47.000          40.000
  21244670.438    20267659.24143  15796372.90042  21244671.327    21244670.461
        54.000          47.000
  21757923.085     9066517.32943   7075605.51842  21757924.235    21757922.659
        53.000          46.000
  24994539.343    -6655407.95943  -5176776.58642  24994539.575    24994538.068
        44.000          37.000
 03  6 25 16 50 40.0000000  0 10G 6G16G26G18G23G21G29G17G15G 2
  21279718.896     4958030.11843   3866588.83342  21279720.547    21279718.963
        55.000          48.000
  23382167.895    -2786180.87043  -2166269.27142  23382168.444    23382167.689
        47.000          40.000
  21635767.834    -1380563.47043  -1062898.76942  21635770.134    21635768.204
        53.000          46.000
  20599028.270    -8320209.65243  -6470083.20142  20599029.902    20599026.474
        56.000          50.000
  22084949.508   -11290887.05343  -8780431.79342  22084951.281    22084948.562
        52.000          45.000
  20632828.607    -2266892.62643  -1758083.52642  20632829.593    20632826.170
        56.000          49.000
  23632764.865     4022335.37243   3135975.17542  23632766.627    23632767.232
        46.000          40.000
  21247942.417    20284853.38143  15809770.91642  21247943.198    21247941.657
        54.000          47.000
  21750598.930     9028029.31043   7045614.85642  21750599.707    21750598.780
        53.000          46.000
  24992300.963    -6667158.02943  -5185932.51842  24992303.447    24992302.573
        44.000          37.000
 03  6 25 16 51  0.0000000  0 10G 6G16G26G18G23G21G29G17G15G 2
  21288688.307     5005164.66743   3903317.01242  21288689.670    21288688.803
        55.000          48.000
  23384897.160    -2771837.39243  -2155092.57142  23384899.723    23384896.222
        47.000          40.000
  21639741.074    -1359683.87743  -1046628.97642  21639743.031    21639741.424
        53.000          46.000
  20595595.932    -8338247.37243  -6484138.56942  20595597.348    20595593.725
        56.000          50.000
  22077471.624   -11330181.62443  -8811050.90442  22077472.806    22077470.894
        53.000          45.000
  20632755.867    -2267274.45144  -1758381.06042  20632757.071    20632753.643
        57.000          50.000
  23641098.256     4066126.98743   3170098.46442  23641101.513    23641098.948
        46.000          41.000
  21251230.069    20302130.04143  15823233.23142  21251230.738    21251229.994
        54.000          47.000
  21743284.322     8989589.99643   7015662.14542  21743285.446    21743283.922
        53.000          46.000
  24990103.688    -6678724.91543  -5194945.69842  24990102.039    24990103.438
        45.000          37.000
 03  6 25 16 51 20.0000000  0 10G 6G16G26G18G23G21G29G17G15G 2
  21297693.483     5052485.89243   3940190.66542  21297695.122    21297693.428
        55.000          48.000
  23387667.329    -2757281.08143  -2143750.02642  23387668.065    23387667.003
        47.000          40.000
  21643769.116    -1338517.05643  -1030135.37542  21643771.002    21643769.536
        53.000          46.000
  20592198.740    -8356099.90043  -6498049.62242  20592200.192    20592196.737
        56.000          50.000
  22070023.384   -11369323.21443  -8841550.81342  22070024.725    22070023.318
        53.000          45.000
  20632701.603    -2267559.61744  -1758603.27542  20632702.605    20632699.252
        57.000          49.000
  23649467.906     4110107.07543   3204368.61242  23649469.390    23649468.560
        46.000          41.000
  21254534.135    20319491.82843  15836761.88542  21254534.794    21254534.101
        54.000          47.000
  21735979.345     8951202.19043   6985749.57142  21735980.287    21735978.932
        53.000          46.000
  24987935.556    -6690106.06043  -5203814.13942  24987936.744    24987937.696
        44.000          37.000
 03  6 25 16 51 40.0000000  0 10G 6G16G26G18G23G21G29G17G15G 2
  21306733.998     5099994.41943   3977210.26242  21306735.364    21306734.159
        55.000          48.000
  23390477.381    -2742511.32143  -2132241.17242  23390479.142    23390478.228
        47.000          40.000
  21647851.954    -1317062.21543  -1013417.34342  21647853.737    21647852.560
        53.000          46.000
  20588836.810    -8373766.29543  -6511815.64042  20588838.332    20588834.956
        56.000          50.000
  22062604.489   -11408310.72443  -8871930.66342  22062605.561    22062604.451
        52.000          45.000
  20632666.100    -2267746.73943  -1758749.09442  20632667.138    20632663.573
        56.000          50.000
  23657872.879     4154276.23443   3238786.09642  23657874.933    23657874.734
        47.000          41.000
  21257854.270    20336939.82743  15850357.71342  21257855.101    21257853.943
        54.000          47.000
  21728684.310     8912867.06143   6955878.04542  21728685.483    21728683.802
        53.000          46.000
  24985805.044    -6701300.46743  -5212537.07242  24985805.799    24985807.703
        44.000          37.000
 03  6 25 16 52  0.0000000  0 10G 6G16G26G18G23G21G29G17G15G 2
  21315809.073     5147684.74343   4014371.52142  21315810.840    21315809.069
        55.000          48.000
  23393328.073    -2727533.54543  -2120570.21442  23393329.876    23393327.346
        47.000          40.000
  21651988.435    -1295324.70343   -996479.04142  21651990.480    21651988.644
        53.000          46.000
  20585509.502    -8391251.68143  -6525440.60742  20585510.967    20585507.464
        56.000          50.000
  22055213.402   -11447149.13943  -8902194.33142  22055214.841    22055213.806
        52.000          45.000
  20632647.881    -2267841.23943  -1758822.74142  20632649.051    20632645.494
        56.000          50.000
  23666313.011     4198628.76243   3273346.46642  23666314.198    23666313.665
        47.000          41.000
  21261189.963    20354469.27043  15864017.00542  21261190.869    21261189.529
        54.000          47.000
  21721398.802     8874579.74043   6926043.77742  21721399.570    21721398.228
        53.000          46.000
  24983710.318    -6712313.29743  -5221118.52142  24983710.463    24983710.571
        44.000          37.000
 03  6 25 16 52 20.0000000  0 10G 6G16G26G18G23G21G29G17G15G 2
  21324919.740     5195561.22643   4051677.84342  21324921.226    21324919.610
        55.000          48.000
  23396218.268    -2712343.44243  -2108733.81342  23396219.747    23396219.121
        47.000          40.000
  21656179.743    -1273299.94243   -979316.90842  21656181.160    21656179.960
        53.000          46.000
  20582217.553    -8408551.28643  -6538920.81442  20582218.946    20582215.396
        56.000          50.000
  22047852.136   -11485833.56243  -8932338.00242  22047852.713    22047852.362
        52.000          45.000
  20632648.749    -2267837.48043  -1758819.82342  20632649.891    20632646.638
        56.000          50.000
  23674788.544     4243168.86443   3308052.99142  23674791.867    23674790.139
        47.000          41.000
  21264542.209    20372085.09743  15877743.60942  21264542.941    21264541.677
        54.000          47.000
  21714122.687     8836345.25043   6896250.67342  21714123.088    21714123.111
        53.000          46.000
  24981649.793    -6723139.85243  -5229554.80242  24981651.501    24981650.792
        44.000          37.000
 03  6 25 16 52 40.0000000  0 10G 6G16G26G18G23G21G29G17G15G 2
  21334065.545     5243622.03643   4089127.79642  21334067.062    21334065.796
        55.000          48.000
  23399149.764    -2696942.82043  -2096733.36842  23399150.392    23399149.371
        47.000          40.000
  21660425.045    -1250989.74343   -961932.35742  21660426.723    21660425.412
        53.000          46.000
  20578960.644    -8425666.63343  -6552257.43942  20578961.837    20578958.830
        56.000          50.000
  22040519.769   -11524365.29243  -8962362.69742  22040520.237    22040520.067
        52.000          45.000
  20632667.877    -2267736.72043  -1758741.32342  20632669.161    20632665.746
        56.000          50.000
  23683299.559     4287894.60143   3342904.17742  23683300.887    23683300.778
        46.000          40.000
  21267910.505    20389786.06143  15891536.55442  21267911.499    21267910.395
        54.000          47.000
  21706856.732     8798162.39243   6866497.80442  21706857.734    21706856.283
        53.000          46.000
  24979624.482    -6733781.42543  -5237846.96742  24979625.543    24979626.663
        44.000          37.000
 03  6 25 16 53  0.0000000  0 10G 6G16G26G18G23G21G29G17G15G 2
  21343246.245     5291866.30343   4126720.69242  21343247.503    21343246.073
        55.000          48.000
  23402119.616    -2681332.78843  -2084569.76042  23402122.310    23402119.526
        47.000          40.000
  21664724.827    -1228394.83343   -944325.96042  21664726.575    21664724.830
        53.000          46.000
  20575738.612    -8442598.29943  -6565450.94042  20575740.046    20575736.829
        56.000          50.000
  22033216.244   -11562744.71643  -8992268.70942  22033217.855    22033216.278
        52.000          45.000
  20632705.514    -2267539.20543  -1758587.42842  20632706.840    20632703.428
        56.000          50.000
  23691846.194     4332804.86943   3377899.14342  23691847.039    23691848.130
        46.000          40.000
  21271295.242    20407571.74043  15905395.51142  21271296.013    21271295.089
        54.000          47.000
  21699600.526     8760030.84143   6836784.91442  21699601.183    21699600.261
        53.000          46.000
  24977634.223    -6744238.53043  -5245995.37742  24977635.160    24977635.605
        44.000          37.000
 03  6 25 16 53 20.0000000  0 10G 6G16G26G18G23G21G29G17G15G 2
  21352461.412     5340292.42143   4164455.28142  21352462.937    21352461.275
        55.000          48.000
  23405129.718    -2665515.03343  -2072244.29142  23405131.087    23405129.131
        47.000          40.000
  21669078.448    -1205516.73543   -926498.89442  21669079.844    21669078.890
        53.000          46.000
  20572551.253    -8459347.56043  -6578502.30742  20572552.426    20572549.164
        56.000          50.000
  22025941.762   -11600972.77043  -9022056.77642  22025943.076    22025941.532
        52.000          45.000
  20632761.260    -2267245.95644  -1758358.93942  20632762.646    20632759.073
        57.000          50.000
  23700426.763     4377897.90043   3413036.53242  23700428.540    23700428.484
        46.000          40.000
  21274695.694    20425441.30543  15919319.83342  21274696.076    21274695.069
        54.000          47.000
  21692353.928     8721949.77843   6807111.36542  21692354.565    21692353.700
        53.000          46.000
  24975678.954    -6754512.35443  -5254000.98242  24975679.793    24975679.710
        44.000          38.000
 03  6 25 16 53 40.0000000  0 10G 6G16G26G18G23G21G29G17G15G 2
  21361711.758     5388904.15043   4202334.50842  21361713.119    21361711.929
        55.000          48.000
  23408180.306    -2649485.64443  -2059753.90642  23408180.950    23408179.956
        47.000          40.000
  21673486.710    -1182351.44043   -908448.03642  21673488.704    21673487.593
        53.000          46.000
  20569399.430    -8475910.36143  -6591408.37542  20569400.744    20569397.564
        56.000          50.000
  22018696.662   -11639045.16243  -9051723.54342  22018698.030    22018696.795
        53.000          45.000
  20632836.138    -2266852.80443  -1758052.60342  20632837.237    20632834.196
        56.000          49.000
  23709042.824     4423177.51343   3448319.29342  23709044.560    23709043.871
        46.000          40.000
  21278112.847    20443399.08043  15933312.88642  21278112.995    21278112.720
        54.000          47.000
  21685117.819     8683923.47343   6777480.48542  21685119.323    21685117.023
        53.000          46.000
  24973759.438    -6764598.70943  -5261860.50442  24973762.993    24973762.194
        44.000          37.000
 03  6 25 16 54  0.0000000  0 10G 6G16G26G18G23G21G29G17G15G 2
  21370996.153     5437693.56043   4240352.19242  21370997.721    21370995.557
        55.000          48.000
  23411269.628    -2633252.58243  -2047104.81842  23411271.170    23411269.789
        47.000          40.000
  21677947.911    -1158906.88943   -890179.58042  21677950.712    21677948.372
        53.000          46.000
  20566281.797    -8492294.16943  -6604174.97042  20566283.171    20566279.848
        56.000          50.000
  22011480.268   -11676969.31143  -9081274.80042  22011481.559    22011479.619
        53.000          45.000
  20632928.735    -2266366.43943  -1757673.63642  20632929.857    20632926.653
        56.000          50.000
  23717693.494     4468635.35843   3483740.94142  23717695.570    23717696.015
        47.000          40.000
  21281545.684    20461438.13143  15947369.27842  21281546.135    21281544.645
        54.000          47.000
  21677890.713     8645944.73843   6747886.66942  21677891.723    21677890.242
        53.000          46.000
  24971875.940    -6774505.00943  -5269579.73642  24971876.377    24971877.498
        45.000          38.000
 03  6 25 16 54 20.0000000  0 10G 6G16G26G18G23G21G29G17G15G 2
  21380316.078     5486669.58943   4278515.29542  21380317.589    21380316.338
        55.000          48.000
  23414398.626    -2616807.00743  -2034290.13942  23414400.754    23414399.285
        47.000          40.000
  21682464.136    -1135173.92143   -871686.38242  21682465.542    21682464.959
        52.000          46.000
  20563199.962    -8508489.89643  -6616795.01042  20563201.034    20563197.916
        56.000          50.000
  22004293.479   -11714735.78743  -9110703.19342  22004294.945    22004293.303
        53.000          45.000
  20633040.669    -2265777.78743  -1757214.96442  20633041.896    20633038.301
        56.000          49.000
  23726379.381     4514280.34143   3519308.42442  23726381.258    23726380.825
        47.000          40.000
  21284995.732    20479567.89643  15961496.35242  21284996.063    21284995.303
        54.000          47.000
  21670674.536     8608023.08543   6718337.33842  21670675.679    21670674.098
        53.000          46.000
  24970026.163    -6784222.05043  -5277151.48842  24970027.542    24970026.112
        44.000          38.000
 03  6 25 16 54 40.0000000  0 10G 6G16G26G18G23G21G29G17G15G 2
  21389669.976     5535825.20243   4316818.32742  21389671.637    21389669.913
        55.000          48.000
  23417567.940    -2600156.05143  -2021315.40642  23417569.115    23417568.723
        47.000          40.000
  21687033.821    -1111159.50343   -852973.87242  21687034.934    21687034.554
        53.000          45.000
  20560152.470    -8524504.14743  -6629273.63842  20560153.936    20560150.431
        56.000          50.000
  21997135.269   -11752351.09943  -9140013.80242  21997137.013    21997135.843
        53.000          45.000
  20633171.016    -2265093.06344  -1756681.43142  20633172.278    20633168.744
        57.000          50.000
  23735099.936     4560105.10343   3555015.98642  23735101.061    23735100.242
        47.000          40.000
  21288461.688    20497781.65643  15975688.88042  21288462.731    21288461.076
        54.000          47.000
  21663467.914     8570152.14543   6688827.52042  21663468.485    21663467.196
        54.000          46.000
  24968211.158    -6793756.38343  -5284580.86442  24968212.189    24968212.412
        43.000          38.000
 03  6 25 16 55  0.0000000  0 10G 6G16G26G18G23G21G29G17G15G 2
  21399058.415     5585160.81843   4355261.62642  21399060.132    21399058.395
        55.000          47.000
  23420775.454    -2583299.24943  -2008180.27542  23420776.743    23420775.470
        47.000          40.000
  21691657.331    -1086862.93743   -834041.50742  21691659.294    21691658.100
        52.000          46.000
  20557139.561    -8540336.03743  -6641610.17042  20557141.254    20557137.772
        56.000          50.000
  21990006.251   -11789814.28143  -9169205.86342  21990007.913    21990006.301
        53.000          45.000
  20633319.974    -2264311.02743  -1756072.06642  20633320.923    20633317.932
        56.000          49.000
  23743854.337     4606110.21743   3590864.08142  23743856.582    23743854.607
        46.000          40.000
  21291943.682    20516080.38643  15989947.62142  21291944.710    21291943.393
        54.000          47.000
  21656271.327     8532333.13343   6659358.17342  21656272.457    21656271.337
        53.000          46.000
  24966432.404    -6803107.17243  -5291867.23142  24966434.462    24966435.105
        45.000          38.000
 03  6 25 16 55 20.0000000  0 10G 6G16G26G18G23G21G29G17G15G 2
  21408480.947     5634677.06143   4393845.66742  21408482.822    21408481.113
        54.000          47.000
  23424022.191    -2566236.02343  -1994884.32042  23424023.523    23424023.508
        47.000          40.000
  21696334.987    -1062283.69343   -814888.87242  21696336.850    21696335.321
        53.000          46.000
  20554161.865    -8555984.62943  -6653803.87242  20554163.626    20554159.812
        56.000          50.000
  21982906.445   -11827124.21743  -9198278.51242  21982907.682    21982906.070
        53.000          45.000
  20633487.421    -2263430.58643  -1755386.02342  20633488.989    20633485.459
        56.000          49.000
  23752643.621     4652296.20043   3626853.11742  23752645.884    23752644.620
        46.000          40.000
  21295442.117    20534465.42943  16004273.60842  21295443.176    21295442.232
        54.000          47.000
  21649084.573     8494567.21043   6629930.18842  21649085.539    21649084.147
        53.000          46.000
  24964687.366    -6812273.55443  -5299009.90442  24964689.732    24964690.872
        44.000          37.000
 03  6 25 16 55 40.0000000  0 10G 6G16G26G18G23G21G29G17G15G 2
  21417938.185     5684374.57643   4432570.96642  21417939.883    21417938.494
        54.000          47.000
  23427309.525    -2548965.82343  -1981427.07442  23427310.846    23427310.392
        47.000          40.000
  21701066.139    -1037420.96043   -795515.33742  21701067.733    21701066.258
        53.000          46.000
  20551219.060    -8571449.10743  -6665854.11042  20551220.487    20551217.124
        56.000          50.000
  21975835.959   -11864279.71343  -9227230.81742  21975836.546    21975835.379
        53.000          45.000
  20633673.855    -2262450.35043  -1754622.21942  20633674.984    20633671.948
        56.000          49.000
  23761466.095     4698663.32543   3662983.28742  23761467.121    23761468.850
        46.000          40.000
  21298957.489    20552938.20643  16018667.96542  21298957.943    21298957.494
        54.000          47.000
  21641908.424     8456855.67043   6600544.57942  21641909.223    21641908.620
        53.000          46.000
  24962978.859    -6821254.36743  -5306007.97942  24962980.180    24962981.194
        44.000          37.000
 03  6 25 16 56  0.0000000  0 10G 6G16G26G18G23G21G29G17G15G 2
  21427429.253     5734250.87743   4471435.58442  21427430.682    21427429.084
        55.000          47.000
  23430633.169    -2531491.19343  -1967810.52842  23430636.012    23430635.367
        47.000          40.000
  21705851.054    -1012277.07443   -775922.72142  21705852.717    21705851.140
        53.000          46.000
  20548310.905    -8586731.45643  -6677762.42342  20548312.625    20548308.949
        56.000          50.000
  21968794.634   -11901282.68943  -9256064.27542  21968795.758    21968794.795
        53.000          45.000
  20633879.284    -2261372.17643  -1753782.09942  20633880.176    20633876.788
        56.000          49.000
  23770323.845     4745209.02443   3699252.61842  23770326.339    23770325.453
        46.000          40.000
  21302489.267    20571497.00243  16033129.34942  21302490.037    21302488.666
        54.000          47.000
  21634742.078     8419196.73143   6571199.96242  21634742.822    21634741.325
        53.000          46.000
  24961304.999    -6830051.72043  -5312863.10742  24961306.905    24961304.704
        44.000          37.000
 03  6 25 16 56 20.0000000  0 10G 6G16G26G18G23G21G29G17G15G 2
  21436954.495     5784305.16643   4510438.88942  21436956.244    21436954.618
        55.000          47.000
  23433999.169    -2513813.00043  -1954035.36642  23433999.129    23433998.920
        47.000          40.000
  21710688.997     -986852.78643   -756111.61142  21710690.793    21710689.206
        53.000          46.000
  20545437.323    -8601832.07043  -6689529.12642  20545438.754    20545435.745
        56.000          50.000
  21961782.103   -11938133.39543  -9284779.08942  21961783.698    21961782.014
        53.000          45.000
  20634103.142    -2260196.00343  -1752865.61442  20634104.114    20634100.656
        56.000          49.000
  23779215.274     4791932.37743   3735660.36742  23779216.938    23779217.186
        46.000          40.000
  21306037.127    20590141.47943  16047657.50042  21306037.848    21306036.347
        54.000          47.000
  21627585.597     8381590.29243   6541896.25442  21627586.859    21627585.401
        54.000          46.000
  24959666.067    -6838665.93143  -5319575.51242  24959667.416    24959668.224
        45.000          37.000
 03  6 25 16 56 40.0000000  0 10G 6G16G26G18G23G21G29G17G15G 2
  21446513.251     5834536.80943   4549580.39942  21446514.980    21446513.577
        55.000          47.000
  23437400.245    -2495931.86343  -1940102.04642  23437402.820    23437401.621
        47.000          40.000
  21715580.194     -961148.62043   -736082.41242  21715582.212    21715580.861
        52.000          46.000
  20542598.213    -8616751.43943  -6701154.60542  20542599.793    20542596.363
        56.000          50.000
  21954798.395   -11974831.97843  -9313375.36142  21954799.500    21954798.516
        53.000          45.000
  20634345.374    -2258921.96743  -1751872.87642  20634346.782    20634343.023
        56.000          49.000
  23788140.212     4838832.68843   3772206.03242  23788141.216    23788140.572
        46.000          40.000
  21309601.566    20608871.70443  16062252.46642  21309602.294    21309600.985
        54.000          47.000
  21620439.436     8344036.35543   6512633.45642  21620440.713    21620438.454
        54.000          46.000
  24958061.238    -6847097.24543  -5326145.41642  24958062.660    24958064.305
        45.000          37.000
 03  6 25 16 57  0.0000000  0 10G 6G16G26G18G23G21G29G17G15G 2
  21456106.897     5884950.81743   4588864.00742  21456108.504    21456106.651
        54.000          47.000
  23440843.698    -2477842.76543  -1926006.68942  23440844.222    23440842.468
        47.000          40.000
  21720525.909     -935159.41543   -715831.10542  21720527.659    21720526.248
        53.000          45.000
  20539794.659    -8631484.31143  -6712634.75442  20539796.211    20539793.000
        56.000          50.000
  21947845.106   -12011372.89243  -9341848.77642  21947846.489    21947845.315
        53.000          45.000
  20634607.647    -2257544.31243  -1750799.39542  20634608.995    20634605.427
        56.000          50.000
  23797100.011     4885914.59143   3808893.18542  23797102.150    23797100.676
        46.000          40.000
  21313182.956    20627693.36543  16076918.68142  21313184.088    21313182.755
        54.000          47.000
  21613304.247     8306540.65543   6483416.03342  21613305.067    21613304.220
        54.000          46.000
  24956492.526    -6855340.21343  -5332568.53942  24956494.739    24956494.299
        45.000          37.000
 03  6 25 16 57 20.0000000  0 10G 6G16G26G18G23G21G29G17G15G 2
  21465732.681     5935535.83443   4628280.86642  21465734.700    21465732.771
        55.000          47.000
  23444322.795    -2459557.21843  -1911758.25742  23444324.261    23444321.226
        47.000          40.000
  21725523.668     -908896.45143   -695366.48242  21725525.239    21725524.299
        53.000          46.000
  20537024.579    -8646041.44243  -6723977.97042  20537025.887    20537022.750
        56.000          50.000
  21940919.668   -12047766.82043  -9370207.66242  21940921.415    21940919.362
        53.000          46.000
  20634887.562    -2256073.57544  -1749653.38142  20634888.525    20634885.318
        57.000          49.000
  23806091.464     4933166.82143   3845713.06042  23806093.618    23806093.256
        47.000          40.000
  21316779.982    20646595.92143  16091647.93242  21316781.134    21316779.777
        54.000          47.000
  21606178.136     8269092.58043   6454235.72142  21606179.455    21606177.453
        54.000          46.000
  24954957.329    -6863405.73343  -5338853.40542  24954959.338    24954958.560
        44.000          37.000
 03  6 25 16 57 40.0000000  0 10G 6G16G26G18G23G21G29G17G15G 2
  21475393.797     5986303.94743   4667840.39942  21475395.394    21475393.725
        55.000          47.000
  23447841.841    -2441063.07343  -1897347.29542  23447844.155    23447841.267
        47.000          40.000
  21730575.758     -882347.46143   -674678.97942  21730577.551    21730577.090
        53.000          45.000
  20534290.028    -8660410.49943  -6735174.62942  20534291.454    20534288.743
        56.000          50.000
  21934024.319   -12084001.18143  -9398442.21042  21934025.778    21934024.161
        53.000          46.000
  20635187.597    -2254497.15343  -1748425.01642  20635188.623    20635185.312
        56.000          50.000
  23815118.148     4980601.34343   3882674.97642  23815120.068    23815118.268
        47.000          40.000
  21320394.827    20665591.92143  16106449.99642  21320396.020    21320394.896
        54.000          47.000
  21599063.552     8231705.03443   6425102.57442  21599064.826    21599062.993
        54.000          46.000
  24953459.810    -6871281.41543  -5344990.34242  24953460.032    24953461.171
        45.000          37.000
 03  6 25 16 58  0.0000000  0 10G 6G16G26G18G23G21G29G17G15G 2
  21485087.298     6037244.49643   4707534.29842  21485088.760    21485087.694
        54.000          47.000
  23451399.921    -2422371.04143  -1882782.12942  23451400.938    23451398.525
        47.000          40.000
  21735680.028     -855523.04943   -653776.84942  21735682.504    21735680.685
        53.000          45.000
  20531589.691    -8674601.83443  -6746232.80142  20531591.179    20531587.902
        56.000          50.000
  21927157.629   -12120086.13643  -9426560.33342  21927158.728    21927157.639
        53.000          46.000
  20635505.744    -2252824.93143  -1747121.99842  20635506.702    20635503.583
        56.000          50.000
  23824177.379     5028207.33443   3919770.51542  23824178.529    23824178.718
        47.000          40.000
  21324025.782    20684671.36943  16121317.08642  21324026.606    21324025.611
        54.000          47.000
  21591958.473     8194368.00043   6396008.78942  21591959.669    21591958.216
        53.000          46.000
  24951996.373    -6878977.53343  -5350987.35242  24951996.613    24951996.575
        45.000          37.000
 03  6 25 16 58 20.0000000  0 10G 6G16G26G18G23G21G29G17G15G 2
  21494814.729     6088361.87243   4747365.97642  21494816.334    21494814.725
        54.000          47.000
  23454994.667    -2403476.73843  -1868059.33642  23454996.328    23454994.241
        47.000          40.000
  21740837.990     -828418.69443   -632656.59442  21740839.947    21740838.623
        53.000          46.000
  20528923.952    -8688610.58543  -6757148.70742  20528925.363    20528921.811
        56.000          50.000
  21920319.917   -12156016.76643  -9454558.20242  21920321.215    21920320.135
        53.000          46.000
  20635843.191    -2251051.73143  -1745740.29842  20635844.309    20635840.931
        56.000          49.000
  23833269.972     5075988.98543   3957002.93642  23833270.922    23833270.433
        47.000          40.000
  21327673.264    20703839.38843  16136253.18942  21327674.308    21327673.139
        54.000          47.000
  21584864.122     8157086.54643   6366958.31042  21584865.242    21584863.776
        54.000          46.000
  24950565.201    -6886489.21843  -5356840.65242  24950567.148    24950567.681
        45.000          37.000
 03  6 25 16 58 40.0000000  0 10G 6G16G26G18G23G21G29G17G15G 2
  21504575.140     6139652.16543   4787332.40242  21504577.177    21504575.323
        54.000          47.000
  23458627.964    -2384384.22143  -1853182.09942  23458630.393    23458629.302
        47.000          40.000
  21746048.133     -801038.35143   -611321.28342  21746049.894    21746049.198
        52.000          45.000
  20526292.227    -8702440.42643  -6767925.19742  20526293.563    20526290.317
        56.000          50.000
  21913511.459   -12191796.50143  -9482438.48442  21913512.713    21913511.111
        53.000          46.000
  20636199.256    -2249180.89743  -1744282.51942  20636200.273    20636196.964
        56.000          50.000
  23842394.710     5123942.20543   3994369.02042  23842394.482    23842395.894
        46.000          40.000
  21331336.890    20723092.71143  16151255.76842  21331337.256    21331337.165
        54.000          47.000
  21577779.562     8119857.34243   6337948.55242  21577780.339    21577779.301
        54.000          46.000
  24949169.737    -6893820.06843  -5362553.03942  24949170.582    24949172.441
        45.000          37.000
 03  6 25 16 59  0.0000000  0 10G 6G16G26G18G23G21G29G17G15G 2
  21514369.389     6191121.69843   4827438.49142  21514371.273    21514369.561
        54.000          47.000
  23462300.440    -2365087.34843  -1838145.60342  23462302.109    23462300.600
        47.000          41.000
  21751312.091     -773375.62943   -589765.93042  21751313.781    21751312.492
        52.000          45.000
  20523695.856    -8716084.78643  -6778557.16142  20523697.166    20523693.659
        56.000          50.000
  21906732.772   -12227418.52343  -9510195.88842  21906733.803    21906733.439
        53.000          46.000
  20636575.101    -2247205.43444  -1742743.20842  20636576.271    20636573.056
        57.000          50.000
  23851553.715     5172073.21943   4031873.66542  23851555.538    23851553.423
        47.000          40.000
  21335018.194    20742438.44543  16166330.35642  21335018.742    21335018.473
        54.000          47.000
  21570706.540     8082687.39743   6308984.96242  21570707.346    21570706.882
        54.000          46.000
  24947811.185    -6900963.35943  -5368119.27042  24947812.048    24947812.130
        44.000          37.000
 03  6 25 16 59 20.0000000  0 10G 6G16G26G18G23G21G29G17G15G 2
  21524196.300     6242762.84343   4867678.30942  21524197.874    21524196.954
        54.000          47.000
  23466009.380    -2345593.56243  -1822955.69842  23466010.291    23466010.457
        47.000          40.000
  21756628.855     -745437.91943   -567996.30042  21756630.843    21756629.811
        53.000          45.000
  20521133.187    -8729550.54643  -6789049.95942  20521134.785    20521131.444
        56.000          50.000
  21899982.979   -12262889.87343  -9537835.87542  21899984.399    21899982.755
        53.000          46.000
  20636969.739    -2245132.15143  -1741127.67442  20636970.923    20636967.840
        56.000          50.000
  23860745.629     5220374.29643   4069510.80542  23860747.351    23860746.168
        46.000          40.000
  21338715.972    20761869.59443  16181471.49642  21338716.950    21338714.889
        54.000          47.000
  21563643.323     8045569.85743   6280062.21342  21563644.255    21563643.469
        54.000          46.000
  24946486.833    -6907926.22343  -5373544.93142  24946488.475    24946489.821
        44.000          37.000
 03  6 25 16 59 40.0000000  0 10G 6G16G26G18G23G21G29G17G15G 2
  21534056.547     6294578.81943   4908054.35642  21534058.235    21534056.622
        54.000          47.000
  23469757.575    -2325899.67443  -1807609.88042  23469760.342    23469759.670
        46.000          40.000
  21761998.314     -717221.92043   -546009.81242  21762000.204    21761999.071
        53.000          45.000
  20518605.360    -8742834.52143  -6799401.10642  20518606.986    20518603.582
        56.000          50.000
  21893262.166   -12298206.83643  -9565355.56742  21893263.771    21893262.269
        53.000          46.000
  20637383.632    -2242956.99144  -1739432.75542  20637384.818    20637381.627
        57.000          50.000
  23869969.886     5268848.55043   4107282.91942  23869971.108    23869971.694
        47.000          40.000
  21342430.823    20781390.04143  16196682.21042  21342431.618    21342430.291
        54.000          47.000
  21556590.542     8008508.62543   6251183.33842  21556592.104    21556590.629
        54.000          46.000
  24945195.290    -6914705.19643  -5378827.26842  24945196.462    24945198.930
        44.000          37.000
 03  6 25 17  0  0.0000000  0 10G 6G16G26G18G23G21G29G17G15G 2
  21543949.582     6346566.10643   4948563.89842  21543950.961    21543949.536
        54.000          47.000
  23473542.623    -2306009.40443  -1792111.00842  23473542.769    23473541.708
        47.000          40.000
  21767419.639     -688731.17643   -523809.24842  21767421.335    21767420.697
        52.000          45.000
  20516111.503    -8755939.77443  -6809612.99042  20516113.057    20516109.703
        56.000          50.000
  21886570.416   -12333372.27243  -9592757.18142  21886572.209    21886570.387
        53.000          46.000
  20637816.244    -2240682.89043  -1737660.73642  20637817.575    20637814.426
        56.000          50.000
  23879226.697     5317492.31843   4145187.11042  23879228.643    23879227.927
        46.000          40.000
  21346161.814    20800996.99243  16211960.34142  21346162.708    21346162.041
        54.000          47.000
  21549548.390     7971501.08643   6222346.30142  21549549.314    21549548.116
        54.000          46.000
  24943940.652    -6921303.15943  -5383968.58242  24943941.746    24943941.223
        44.000          38.000
 03  6 25 17  0 20.0000000  0 10G 6G16G26G18G23G21G29G17G15G 2
  21553875.328     6398726.25043   4989208.12942  21553876.855    21553875.345
        54.000          47.000
  23477364.712    -2285921.20543  -1776457.92042  23477366.818    23477363.973
        47.000          40.000
  21772893.981     -659964.02743   -501393.30142  21772895.952    21772895.375
        52.000          45.000
  20513652.102    -8768864.48343  -6819684.19142  20513653.356    20513650.298
        56.000          50.000
  21879907.849   -12368384.08343  -9620039.08042  21879909.527    21879908.021
        53.000          46.000
  20638268.327    -2238307.65743  -1735809.91442  20638269.665    20638266.207
        56.000          49.000
  23888515.751     5366307.03143   4183224.51642  23888518.183    23888518.487
        46.000          40.000
  21349909.612    20820692.64543  16227307.58242  21349910.594    21349909.455
        54.000          47.000
  21542516.692     7934549.36943   6193552.76442  21542518.267    21542516.100
        54.000          46.000
  24942720.413    -6927718.35643  -5388967.48142  24942720.260    24942722.182
        45.000          37.000
 03  6 25 17  0 40.0000000  0 10G 6G16G26G18G23G21G29G17G15G 2
  21563834.099     6451060.20443   5029987.79442  21563835.920    21563834.498
        54.000          47.000
  23481225.029    -2265634.34343  -1760650.01642  23481227.442    23481224.983
        47.000          40.000
  21778420.706     -630919.49043   -478761.20842  21778422.772    21778422.442
        52.000          45.000
  20511227.234    -8781607.36843  -6829613.70842  20511228.470    20511225.129
        56.000          50.000
  21873274.826   -12403240.87943  -9647200.19642  21873276.487    21873275.524
        53.000          46.000
  20638739.938    -2235829.60543  -1733878.97442  20638740.967    20638737.641
        56.000          50.000
  23897837.602     5415293.42843   4221395.69742  23897840.443    23897837.403
        47.000          40.000
  21353674.771    20840478.59743  16242725.18742  21353675.635    21353674.749
        54.000          47.000
  21535495.806     7897655.18043   6164804.04842  21535496.923    21535495.061
        54.000          46.000
  24941533.571    -6933949.40943  -5393822.88842  24941535.184    24941536.509
        44.000          37.000
 03  6 25 17  1  0.0000000  0 10G 6G16G26G18G23G21G29G17G15G 2
  21573825.899     6503567.28143   5070902.36542  21573827.461    21573826.414
        54.000          47.000
  23485123.662    -2245149.55743  -1744687.89642  23485125.393    23485123.099
        47.000          40.000
  21784000.772     -601598.21443   -455913.47342  21784002.236    21784001.479
        52.000          45.000
  20508836.968    -8794168.84043  -6839401.86542  20508838.343    20508835.083
        56.000          50.000
  21866671.250   -12437942.82443  -9674240.65542  21866672.457    21866671.989
        53.000          46.000
  20639231.082    -2233248.77243  -1731867.94742  20639232.268    20639229.024
        56.000          50.000
  23907191.953     5464450.65243   4259699.99142  23907193.157    23907191.675
        47.000          40.000
  21357457.171    20860354.63543  16258212.99042  21357457.847    21357456.517
        54.000          47.000
  21528486.216     7860818.55143   6136100.19042  21528487.364    21528486.241
        54.000          46.000
  24940383.019    -6939996.68243  -5398535.08942  24940384.714    24940385.575
        44.000          37.000
 03  6 25 17  1 20.0000000  0 10G 6G16G26G18G23G21G29G17G15G 2
  21583849.328     6556240.21743   5111946.17242  21583851.291    21583849.122
        54.000          47.000
  23489058.878    -2224473.93243  -1728577.07742  23489060.360    23489058.229
        47.000          40.000
  21789631.351     -572007.28043   -432855.60842  21789633.224    21789632.093
        52.000          45.000
  20506479.661    -8806555.63243  -6849053.91042  20506481.325    20506477.921
        56.000          50.000
  21860095.996   -12472496.57843  -9701165.64142  21860097.468    21860096.189
        53.000          46.000
  20639740.602    -2230571.45043  -1729781.73942  20639742.011    20639738.221
        56.000          50.000
  23916577.072     5513771.49543   4298131.76942  23916579.874    23916578.025
        46.000          40.000
  21361255.521    20880314.49543  16273766.11442  21361256.197    21361254.997
        54.000          47.000
  21521486.013     7824032.95143   6107436.09242  21521487.596    21521485.363
        53.000          46.000
  24939266.006    -6945867.00443  -5403109.40042  24939268.683    24939267.614
        45.000          37.000
 03  6 25 17  1 40.0000000  0 10G 6G16G26G18G23G21G29G17G15G 2
  21593905.805     6609087.69543   5153125.98042  21593907.122    21593906.096
        54.000          47.000
  23493030.993    -2203598.89343  -1712310.85442  23493032.009    23493031.689
        47.000          40.000
  21795315.460     -542137.96543   -409580.82342  21795317.238    21795316.163
        52.000          45.000
  20504157.539    -8818758.81043  -6858562.87842  20504158.801    20504155.311
        56.000          50.000
  21853550.476   -12506892.82943  -9727967.88742  21853551.795    21853550.260
        53.000          46.000
  20640270.241    -2227788.22743  -1727613.00742  20640271.421    20640268.156
        56.000          50.000
  23925995.072     5563264.32443   4336697.56242  23925996.669    23925996.831
        46.000          40.000
  21365071.467    20900367.75143  16289392.01242  21365072.436    21365070.664
        54.000          47.000
  21514497.643     7787307.84843   6078819.13442  21514498.119    21514497.139
        54.000          46.000
  24938183.399    -6951551.22243  -5407538.70342  24938186.127    24938186.107
        43.000          37.000
 03  6 25 17  2  0.0000000  0 10G 6G16G26G18G23G21G29G17G15G 2
  21603994.392     6662103.20343   5194436.72342  21603995.622    21603994.353
        54.000          47.000
  23497039.857    -2182530.98243  -1695894.35042  23497041.912    23497040.903
        47.000          40.000
  21801050.850     -511996.76543   -386094.18542  21801052.920    21801051.681
        52.000          45.000
  20501869.240    -8830784.32743  -6867933.41042  20501870.534    20501867.203
        56.000          50.000
  21847033.851   -12541137.74443  -9754652.21542  21847034.813    21847033.813
        53.000          46.000
  20640818.914    -2224905.12243  -1725366.44642  20640819.997    20640816.422
        56.000          50.000
  23935444.759     5612922.56643   4375392.24742  23935446.291    23935445.582
        46.000          40.000
  21368903.867    20920508.24043  16305085.88842  21368905.173    21368904.000
        54.000          47.000
  21507519.425     7750637.48943   6050244.83742  21507519.709    21507518.589
        54.000          46.000
  24937137.516    -6957055.63743  -5411827.90742  24937137.888    24937138.108
        44.000          37.000
 03  6 25 17  2 20.0000000  0 11G 6G16G 3G26G18G23G21G29G17G15G 2
  21614114.601     6715285.52243   5235877.45142  21614116.229    21614114.812
        54.000          47.000
  23501084.671    -2161271.61943  -1679328.67342  23501088.058    23501084.849
        47.000          40.000
  24610917.046    -5528439.38753  -3970494.25652  24610919.078    24610920.909
        43.000          37.000
  21806838.398     -481584.80943   -362396.57242  21806840.344    21806839.608
        52.000          45.000
  20499614.248    -8842633.18643  -6877166.28742  20499615.830    20499612.580
        56.000          50.000
  21840545.949   -12575231.97443  -9781219.12842  21840547.084    21840546.379
        53.000          46.000
  20641386.449    -2221922.43543  -1723042.28742  20641387.622    20641384.003
        56.000          50.000
  23944925.751     5662744.91743   4414214.81242  23944927.335    23944927.345
        46.000          40.000
  21372753.207    20940735.72543  16320847.54942  21372753.690    21372753.014
        54.000          47.000
  21500551.537     7714021.45543   6021712.87142  21500552.954    21500550.840
        54.000          47.000
  24936123.772    -6962380.93343  -5415977.52442  24936125.548    24936127.581
        44.000          37.000
 03  6 25 17  2 40.0000000  0 11G 6G16G 3G26G18G23G21G29G17G15G 2
  21624267.857     6768641.73043   5277453.68242  21624269.941    21624268.179
        54.000          47.000
  23505168.931    -2139813.71643  -1662608.28042  23505170.276    23505169.472
        47.000          40.000
  24598339.302    -5594544.16443  -4022004.44842  24598338.945    24598338.414
        44.000          37.000
  21812678.647     -450894.97043   -338482.42142  21812680.210    21812679.352
        52.000          45.000
  20497394.744    -8854297.95943  -6886255.72142  20497396.122    20497392.641
        56.000          50.000
  21834088.050   -12609167.77843  -9807662.59042  21834088.756    21834088.516
        53.000          46.000
  20641974.564    -2218832.38443  -1720634.46842  20641975.646    20641972.397
        56.000          50.000
  23954439.452     5712738.30443   4453170.64942  23954442.103    23954440.752
        46.000          40.000
  21376620.378    20961057.87643  16336682.97442  21376621.224    21376619.933
        54.000          47.000
  21493595.696     7677467.57943   5993229.34242  21493596.173    21493595.176
        54.000          47.000
  24935145.413    -6967519.58443  -5419981.69542  24935147.327    24935149.087
        44.000          37.000
 03  6 25 17  3  0.0000000  0 11G 6G16G 3G26G18G23G21G29G17G15G 2
  21634453.232     6822165.04843   5319160.12442  21634454.679    21634453.785
        54.000          47.000
  23509288.914    -2118164.13143  -1645738.52842  23509290.165    23509289.199
        47.000          40.000
  24585772.414    -5660580.57743  -4073461.36842  24585774.665    24585773.801
        43.000          37.000
  21818570.401     -419933.92543   -314356.94242  21818572.429    21818570.556
        52.000          45.000
  20495208.748    -8865785.21743  -6895206.83142  20495210.435    20495206.817
        56.000          50.000
  21827659.270   -12642951.50043  -9833987.54642  21827660.870    21827659.380
        53.000          46.000
  20642581.869    -2215640.94843  -1718147.64342  20642582.872    20642579.476
        56.000          50.000
  23963984.374     5762895.80243   4492254.37242  23963986.446    23963986.249
        46.000          40.000
  21380504.484    20981468.53343  16352587.36242  21380505.346    21380504.569
        54.000          47.000
  21486650.197     7640969.88843   5964789.59142  21486650.970    21486650.233
        54.000          47.000
  24934203.216    -6972478.06343  -5423845.50242  24934203.367    24934204.509
        44.000          37.000
 03  6 25 17  3 20.0000000  0 11G 6G16G 3G26G18G23G21G29G17G15G 2
  21644670.258     6875854.68643   5360996.17142  21644671.687    21644670.438
        54.000          47.000
  23513444.806    -2096323.76443  -1628720.12742  23513446.056    23513444.352
        47.000          40.000
  24573219.151    -5726548.16343  -4124864.66342  24573220.508    24573221.740
        45.000          37.000
  21824513.296     -388702.58043   -290020.84142  21824515.264    21824513.739
        52.000          45.000
  20493056.527    -8877095.35843  -6904019.92942  20493057.980    20493054.722
        56.000          50.000
  21821259.293   -12676583.39243  -9860194.19542  21821259.903    21821259.766
        53.000          46.000
  20643208.308    -2212348.20543  -1715581.88042  20643209.458    20643206.459
        56.000          50.000
  23973560.535     5813216.48343   4531465.24642  23973562.550    23973561.746
        47.000          40.000
  21384405.390    21001967.52643  16368560.58842  21384406.056    21384404.858
        54.000          47.000
  21479715.731     7604528.25743   5936393.52342  21479716.345    21479715.265
        54.000          47.000
  24933293.752    -6977256.80343  -5427569.22642  24933295.864    24933296.073
        45.000          37.000
 03  6 25 17  3 40.0000000  0 11G 6G16G 3G26G18G23G21G29G17G15G 2
  21654918.853     6929712.80343   5402963.49742  21654920.007    21654919.408
        54.000          47.000
  23517637.081    -2074290.44143  -1611551.36942  23517638.609    23517638.433
        47.000          40.000
  24560679.532    -5792443.44743  -4176211.60942  24560681.089    24560680.205
        43.000          37.000
  21830508.128     -357198.48843   -265472.21142  21830509.891    21830507.878
        52.000          45.000
  20490938.361    -8888225.70243  -6912692.92742  20490940.183    20490936.537
        56.000          50.000
  21814888.701   -12710060.69843  -9886280.38042  21814890.274    21814888.440
        53.000          46.000
  20643854.830    -2208951.33843  -1712934.98542  20643855.843    20643852.746
        56.000          50.000
  23983167.065     5863702.41943   4570804.88742  23983169.274    23983168.584
        46.000          40.000
  21388323.518    21022557.62743  16384604.80142  21388324.542    21388323.310
        54.000          47.000
  21472792.126     7568145.61343   5908043.41942  21472792.941    21472792.185
        54.000          47.000
  24932418.007    -6981853.12043  -5431150.80042  24932420.242    24932420.915
        44.000          37.000
 03  6 25 17  4  0.0000000  0 11G 6G16G 3G26G18G23G21G29G17G15G 2
  21665199.839     6983739.99443   5445062.57442  21665201.494    21665200.151
        54.000          47.000
  23521867.148    -2052063.62543  -1594231.83142  23521868.187    23521866.578
        46.000          40.000
  24548153.502    -5858264.53743  -4227500.75542  24548154.930    24548155.117
        43.000          37.000
  21836555.344     -325421.20343   -240710.70742  21836556.997    21836556.427
        52.000          45.000
  20488854.877    -8899175.23643  -6921225.03042  20488856.405    20488852.895
        56.000          50.000
  21808547.882   -12743382.29243  -9912245.23342  21808549.528    21808548.122
        53.000          46.000
  20644521.356    -2205448.81943  -1710205.76042  20644522.727    20644518.850
        56.000          50.000
  23992806.107     5914354.07443   4610273.67342  23992806.982    23992808.105
        46.000          40.000
  21392259.368    21043240.72143  16400721.48142  21392260.071    21392258.936
        54.000          47.000
  21465880.345     7531823.30843   5879740.33242  21465880.781    21465880.427
        54.000          47.000
  24931578.796    -6986266.07743  -5434589.51242  24931580.949    24931580.795
        44.000          37.000
 03  6 25 17  4 20.0000000  0 11G 6G16G 3G26G18G23G21G29G17G15G 2
  21675512.025     7037930.15643   5487288.63542  21675513.606    21675512.084
        54.000          47.000
  23526132.369    -2029649.52943  -1576766.35642  23526132.946    23526133.776
        47.000          40.000
  24535641.829    -5924016.35743  -4278735.92742  24535643.856    24535642.808
        44.000          37.000
  21842653.675     -293376.60843   -215740.90642  21842655.594    21842653.667
        52.000          45.000
  20486804.384    -8909949.99143  -6929620.94642  20486805.854    20486802.470
        56.000          50.000
  21802235.517   -12776553.71643  -9938093.07742  21802237.008    21802235.446
        53.000          46.000
  20645206.993    -2201845.94143  -1707398.33442  20645208.063    20645204.736
        56.000          50.000
  24002474.712     5965165.29543   4649866.78042  24002476.114    24002475.712
        46.000          40.000
  21396211.898    21064011.14043  16416906.20542  21396212.500    21396211.934
        54.000          47.000
  21458978.931     7495556.08243   5851480.16442  21458979.837    21458978.686
        54.000          47.000
  24930772.049    -6990501.46043  -5437889.86242  24930773.913    24930773.962
        44.000          37.000
 03  6 25 17  4 40.0000000  0 11G 6G16G 3G26G18G23G21G29G17G15G 2
  21685855.766     7092286.52543   5529644.20542  21685857.939    21685855.816
        54.000          47.000
  23530433.922    -2007045.02843  -1559152.51042  23530433.902    23530433.700
        47.000          40.000
  24523144.122    -5989694.41343  -4329913.61242  24523145.732    24523145.606
        44.000          37.000
  21848802.464     -261061.66443   -190560.45142  21848804.536    21848803.335
        52.000          45.000
  20484788.230    -8920546.42343  -6937877.91042  20484789.656    20484785.855
        56.000          50.000
  21795952.416   -12809571.30343  -9963821.03942  21795953.559    21795952.871
        53.000          46.000
  20645912.453    -2198138.88943  -1704509.73642  20645913.622    20645910.275
        56.000          50.000
  24012174.934     6016139.09443   4689586.59642  24012177.431    24012176.675
        46.000          39.000
  21400181.788    21084872.69243  16433161.94042  21400182.143    21400180.803
        54.000          47.000
  21452088.587     7459347.84943   5823265.96242  21452089.428    21452088.180
        54.000          47.000
  24930002.671    -6994555.70443  -5441049.06242  24930003.030    24930005.112
        45.000          37.000
 03  6 25 17  5  0.0000000  0 11G 6G16G 3G26G18G23G21G29G17G15G 2
  21696230.932     7146808.30743   5572128.67642  21696232.681    21696231.570
        54.000          47.000
  23534771.675    -1984250.94043  -1541390.95442  23534772.555    23534771.521
        47.000          40.000
  24510661.258    -6055298.06343  -4381033.32742  24510662.951    24510663.661
        45.000          37.000
  21855003.534     -228476.92343   -165169.75942  21855005.068    21855003.233
        52.000          45.000
  20482805.400    -8930964.85343  -6945996.16442  20482807.080    20482803.320
        56.000          50.000
  21789698.556   -12842435.34243  -9989429.36242  21789700.392    21789698.869
        53.000          46.000
  20646637.366    -2194327.59143  -1701539.90342  20646638.950    20646635.849
        56.000          50.000
  24021906.152     6067274.51843   4729432.33042  24021908.843    24021905.948
        45.000          39.000
  21404168.967    21105825.28043  16449488.61242  21404169.455    21404168.417
        54.000          47.000
  21445209.896     7423198.60243   5795097.72842  21445210.399    21445209.236
        54.000          47.000
  24929264.451    -6998429.20043  -5444067.38842  24929265.938    24929267.310
        44.000          37.000
 03  6 25 17  5 20.0000000  0 11G 6G16G 3G26G18G23G21G29G17G15G 2
  21706637.600     7201495.78543   5614742.25442  21706639.770    21706638.170
        54.000          47.000
  23539145.804    -1961267.06743  -1523481.49542  23539145.856    23539145.765
        47.000          40.000
  24498190.498    -6120825.89743  -4432093.97442  24498192.005    24498192.282
        44.000          38.000
  21861255.539     -195622.24443   -139568.72942  21861257.660    21861256.426
        52.000          45.000
  20480856.998    -8941204.56743  -6953975.16342  20480858.472    20480855.010
        56.000          50.000
  21783474.092   -12875145.00743 -10014917.38642  21783475.560    21783474.586
        53.000          46.000
  20647383.123    -2190411.20343  -1698488.18442  20647384.174    20647381.197
        56.000          50.000
  24031667.956     6118571.72243   4769404.13542  24031668.847    24031670.370
        46.000          40.000
  21408173.587    21126869.95043  16465887.03342  21408174.761    21408173.262
        54.000          47.000
  21438342.046     7387109.41343   5766976.28742  21438342.701    21438341.722
        54.000          47.000
  24928561.002    -7002121.27243  -5446944.36442  24928561.998    24928562.208
        44.000          37.000
 03  6 25 17  5 40.0000000  0 11G 6G16G 3G26G18G23G21G29G17G15G 2
  21717075.060     7256344.08943   5657481.15542  21717076.839    21717075.530
        53.000          47.000
  23543554.873    -1938098.23443  -1505427.91542  23543556.757    23543553.557
        47.000          39.000
  24485734.235    -6186281.28043  -4483098.17642  24485735.743    24485736.473
        44.000          38.000
  21867558.077     -162502.32443   -113761.01242  21867560.193    21867558.332
        52.000          45.000
  20478941.501    -8951270.19743  -6961818.51242  20478943.016    20478939.743
        56.000          50.000
  21777278.434   -12907704.53543 -10040288.42642  21777279.091    21777278.108
        53.000          46.000
  20648147.398    -2186393.82443  -1695357.76942  20648148.905    20648145.360
        56.000          50.000
  24041458.841     6170025.86943   4809498.23542  24041459.942    24041460.111
        46.000          40.000
  21412195.045    21148002.70743  16482354.09442  21412195.910    21412194.976
        54.000          47.000
  21431485.468     7351076.27043   5738898.52142  21431486.249    21431484.800
        54.000          47.000
  24927893.428    -7005636.41543  -5449683.49642  24927893.425    24927895.560
        44.000          37.000
 03  6 25 17  6  0.0000000  0 11G 6G16G 3G26G18G23G21G29G17G15G 2
  21727543.651     7311357.16843   5700348.45342  21727545.700    21727543.982
        53.000          47.000
  23547999.132    -1914740.66843  -1487227.25642  23548001.072    23548000.902
        47.000          40.000
  24473293.771    -6251659.14243  -4534041.95642  24473294.969    24473293.610
        45.000          37.000
  21873912.037     -129113.19143    -87743.51442  21873913.625    21873911.645
        52.000          45.000
  20477060.018    -8961157.16543  -6969522.64542  20477061.492    20477058.086
        56.000          50.000
  21771111.657   -12940109.44443 -10065538.98442  21771113.067    21771111.777
        53.000          46.000
  20648932.070    -2182270.43643  -1692144.75042  20648933.046    20648929.912
        56.000          50.000
  24051280.853     6221640.61143   4849717.46242  24051281.935    24051281.356
        46.000          40.000
  21416234.046    21169228.18443  16498893.40442  21416235.024    21416233.585
        54.000          47.000
  21424640.117     7315103.93843   5710868.14042  21424640.907    21424639.004
        54.000          47.000
  24927258.235    -7008970.29843  -5452281.36042  24927260.230    24927260.689
        44.000          37.000
 03  6 25 17  6 20.0000000  0 11G 6G16G 3G26G18G23G21G29G17G15G 2
  21738043.846     7366535.62243   5743344.61542  21738045.284    21738043.979
        53.000          47.000
  23552479.855    -1891194.00643  -1468879.26342  23552481.057    23552481.448
        48.000          40.000
  24460868.526    -6316957.68643  -4584923.93642  24460869.122    24460871.115
        44.000          38.000
  21880316.790      -95454.25343    -61515.78442  21880318.375    21880317.073
        52.000          45.000
  20475212.722    -8970864.82943  -6977087.06142  20475214.274    20475211.157
        56.000          50.000
  21764975.024   -12972358.59043 -10090668.16442  21764976.396    21764974.571
        53.000          46.000
  20649737.117    -2178039.83643  -1688848.19042  20649738.385    20649734.933
        56.000          50.000
  24061133.667     6273416.57643   4890062.31542  24061136.341    24061135.080
        45.000          40.000
  21420290.918    21190547.89043  16515506.13942  21420291.644    21420290.625
        54.000          47.000
  21417806.506     7279193.72943   5682886.16542  21417807.547    21417806.421
        54.000          47.000
  24926659.979    -7012121.95943  -5454737.24742  24926662.105    24926661.946
        44.000          37.000
 03  6 25 17  6 40.0000000  0 11G 6G16G 3G26G18G23G21G29G17G15G 2
  21748574.324     7421872.57743   5786464.28142  21748575.622    21748574.503
        54.000          47.000
  23556994.804    -1867464.81643  -1450389.02942  23556996.989    23556994.900
        47.000          40.000
  24448455.312    -6382182.38943  -4635748.37542  24448455.667    24448456.855
        44.000          38.000
  21886771.706      -61532.26443    -35083.08442  21886773.339    21886773.330
        52.000          45.000
  20473398.377    -8980399.74843  -6984516.87142  20473399.607    20473396.613
        56.000          50.000
  21758866.739   -13004458.31443 -10115680.91342  21758868.204    21758867.522
        53.000          46.000
  20650561.488    -2173707.98143  -1685472.73142  20650562.563    20650559.289
        56.000          50.000
  24071015.470     6325346.74943   4930527.33342  24071019.344    24071018.442
        45.000          39.000
  21424365.342    21211955.36643  16532187.27042  21424365.267    21424364.634
        54.000          47.000
  21410983.742     7243339.59443   5654947.88242  21410984.672    21410983.396
        54.000          47.000
  24926093.288    -7015097.81943  -5457056.13842  24926093.856    24926094.853
        44.000          37.000
 03  6 25 17  7  0.0000000  0 11G 6G16G 3G26G18G23G21G29G17G15G 2
  21759135.429     7477372.17343   5829710.67742  21759137.037    21759135.616
        53.000          47.000
  23561546.947    -1843549.23643  -1431753.56442  23561548.046    23561547.292
        47.000          40.000
  24436057.763    -6447327.69943  -4686510.95442  24436058.678    24436059.812
        44.000          38.000
  21893277.924      -27343.14943     -8442.23742  21893280.143    21893278.816
        52.000          45.000
  20471617.598    -8989757.46143  -6991808.59942  20471619.224    20471615.567
        56.000          50.000
  21752787.647   -13036403.97643 -10140573.61142  21752789.422    21752787.511
        54.000          46.000
  20651405.819    -2169270.20743  -1682014.73942  20651407.079    20651403.576
        56.000          50.000
  24080927.434     6377435.11843   4971115.62242  24080928.823    24080927.907
        45.000          40.000
  21428456.457    21233455.65043  16548940.71742  21428456.663    21428455.499
        54.000          47.000
  21404172.550     7207546.55243   5627057.20242  21404173.604    21404172.029
        54.000          47.000
  24925559.994    -7017893.38543  -5459234.53142  24925561.957    24925562.332
        44.000          37.000
 03  6 25 17  7 20.0000000  0 11G 6G16G 3G26G18G23G21G29G17G15G 2
  21769727.529     7533034.06143   5873083.54242  21769729.294    21769727.692
        53.000          46.000
  23566132.635    -1819447.67943  -1412973.18842  23566133.547    23566133.727
        47.000          39.000
  24423677.655    -6512392.65843  -4737210.91642  24423677.202    24423679.615
        44.000          38.000
  21899834.681        7112.80843     18406.54642  21899836.205    21899835.490
        52.000          45.000
  20469870.781    -8998937.76943  -6998962.08842  20469872.208    20469868.723
        56.000          50.000
  21746737.761   -13068195.30343 -10165346.04942  21746739.257    21746737.703
        54.000          46.000
  20652270.780    -2164725.95843  -1678473.77742  20652272.056    20652268.718
        56.000          50.000
  24090870.005     6429681.37743   5011826.95242  24090871.353    24090870.950
        46.000          39.000
  21432565.384    21255049.33143  16565766.93742  21432567.016    21432565.031
        54.000          47.000
  21397372.952     7171815.09443   5599214.51642  21397373.999    21397372.896
        54.000          47.000
  24925062.558    -7020508.48043  -5461272.30242  24925065.404    24925066.234
        45.000          37.000
 03  6 25 17  7 40.0000000  0 11G 6G16G 3G26G18G23G21G29G17G15G 2
  21780350.253     7588856.39743   5916581.42542  21780351.679    21780351.021
        53.000          46.000
  23570754.350    -1795161.97943  -1394049.34542  23570756.084    23570755.323
        47.000          40.000
  24411312.081    -6577377.78643  -4787848.68542  24411313.730    24411311.871
        44.000          38.000
  21906441.979       41833.82243     45461.87242  21906444.260    21906443.169
        52.000          45.000
  20468157.225    -9007942.19043  -7005978.52542  20468158.758    20468155.624
        56.000          50.000
  21740717.225   -13099833.71543 -10189999.32842  21740718.265    21740717.157
        54.000          46.000
  20653155.699    -2160076.24444  -1674850.63542  20653156.629    20653153.570
        57.000          50.000
  24100841.572     6482083.33643   5052659.60442  24100843.626    24100843.879
        45.000          40.000
  21436692.088    21276735.20443  16582664.99742  21436692.553    21436691.937
        54.000          47.000
  21390585.005     7136144.12743   5571418.96242  21390586.204    21390585.149
        54.000          47.000
  24924600.706    -7022944.80843  -5463170.78142  24924602.090    24924601.158
        45.000          37.000
 03  6 25 17  8  0.0000000  0 11G 6G16G 3G26G18G23G21G29G17G15G 2
  21791002.758     7644835.41343   5960201.39642  21791004.032    21791002.888
        53.000          46.000
  23575410.609    -1770696.05343  -1374985.03942  23575412.445    23575412.311
        47.000          40.000
  24398960.310    -6642285.78943  -4838426.35442  24398962.154    24398962.485
        45.000          38.000
  21913098.958       76816.04643     72720.72942  21913101.135    21913099.182
        52.000          45.000
  20466476.470    -9016774.32343  -7012860.70842  20466478.007    20466474.714
        56.000          50.000
  21734725.181   -13131322.48643 -10214536.01342  21734726.644    21734724.830
        54.000          46.000
  20654059.892    -2155324.16843  -1671147.72942  20654061.166    20654057.635
        56.000          50.000
  24110842.729     6534637.17643   5093610.60542  24110844.693    24110845.378
        46.000          40.000
  21440835.657    21298510.16243  16599632.47342  21440836.480    21440835.140
        54.000          47.000
  21383808.091     7100530.61343   5543668.17142  21383809.332    21383807.994
        54.000          47.000
  24924169.202    -7025205.70543  -5464932.55442  24924171.383    24924170.556
        44.000          37.000
